[[{"header":{"parameterUnit":"m.s-1","parameterCategory":1,"la1":30.6,"la2":29.2853,"lo1":-89.7004,"lo2":-87.6739,"dy":0.0162,"dx":0.0183,"nx":112,"ny":82,"refTime":"2023-09-30T12:00:00:Z","depth":0,"parameterNumber":2,"parameterNumberName":"U-component_of_WINDS"},"data":[0.0,0.0,0.0,0.0,0.0,0.0,0.0,0.0,0.0,0.0,0.0,0.0,0.0,0.0,0.0,0.0,0.0,0.0,0.0,0.0,0.0,0.0,0.0,0.0,0.0,0.0,0.0,0.0,0.0,0.0,0.0,0.0,0.0,0.0,0.0,0.0,0.0,0.0,0.0,0.0,0.0,0.0,0.0,0.0,0.0,0.0,0.0,0.0,0.0,0.0,0.0,0.0,0.0,0.0,0.0,0.0,0.0,0.0,0.0,0.0,0.0,0.0,0.0,0.0,0.0,0.0,0.0,0.0,0.0,0.0,0.0,0.0,0.0,0.0,0.0,0.0,0.0,0.0,0.0,0.0,0.0,0.0,0.0,0.0,0.0,0.0,0.0,0.0,0.0,0.0,0.0,1.5378,1.5661,1.5808,1.5808,1.6059,1.5738,1.4656,0.0,0.0,0.0,0.0,0.0,0.0,0.0,0.0,0.0,0.0,0.0,0.0,0.0,0.0,0.0,0.0,0.0,0.0,0.0,0.0,0.0,0.0,0.0,0.0,0.0,0.0,0.0,0.0,0.0,0.0,0.0,0.0,0.0,0.0,0.0,0.0,0.0,0.0,0.0,0.0,0.0,0.0,0.0,0.0,0.0,0.0,0.0,0.0,0.0,0.0,0.0,0.0,0.0,0.0,0.0,0.0,0.0,0.0,0.0,0.0,0.0,0.0,0.0,0.0,0.0,0.0,0.0,0.0,0.0,0.0,0.0,0.0,0.0,0.0,0.0,0.0,0.0,0.0,0.0,0.0,0.0,0.0,0.0,0.0,0.0,0.0,0.0,0.0,0.0,0.0,0.0,0.0,0.0,0.0,0.0,0.0,0.0,0.0,0.0,0.0,0.0,0.0,0.0,0.0,1.5093,1.5675,1.5781,1.5808,1.5808,1.5848,1.5605,1.4959,0.0,0.0,0.0,0.0,0.0,0.0,0.0,0.0,0.0,0.0,0.0,0.0,0.0,0.0,0.0,0.0,0.0,0.0,0.0,0.0,0.0,0.0,0.0,0.0,0.0,0.0,0.0,0.0,0.0,0.0,0.0,0.0,0.0,0.0,0.0,0.0,0.0,0.0,0.0,0.0,0.0,0.0,0.0,0.0,0.0,0.0,0.0,0.0,0.0,0.0,0.0,0.0,0.0,0.0,0.0,0.0,0.0,0.0,0.0,0.0,0.0,0.0,0.0,0.0,0.0,0.0,0.0,0.0,0.0,0.0,0.0,0.0,0.0,0.0,0.0,0.0,0.0,0.0,0.0,0.0,0.0,0.0,0.0,0.0,0.0,0.0,0.0,0.0,0.0,0.0,0.0,0.0,0.0,0.0,0.0,0.0,0.0,0.0,0.0,0.0,0.0,0.0,0.0,1.499,1.5538,1.5781,1.5808,1.5808,1.5808,1.5808,1.5488,1.4776,1.4517,0.0,0.0,0.0,0.0,0.0,0.0,0.0,0.0,0.0,0.0,0.0,0.0,0.0,0.0,0.0,0.0,0.0,0.0,0.0,0.0,0.0,0.0,0.0,0.0,0.0,0.0,0.0,0.0,0.0,0.0,0.0,0.0,0.0,0.0,0.0,0.0,0.0,0.0,0.0,0.0,0.0,0.0,0.0,0.0,0.0,0.0,0.0,0.0,0.0,0.0,0.0,0.0,0.0,0.0,0.0,0.0,0.0,0.0,0.0,0.0,0.0,0.0,0.0,0.0,0.0,0.0,0.0,0.0,0.0,0.0,0.0,0.0,0.0,0.0,0.0,0.0,0.0,0.0,0.0,0.0,0.0,0.0,0.0,0.0,0.0,0.0,0.0,0.0,0.0,0.0,0.0,0.0,0.0,0.0,0.0,0.0,0.0,0.0,0.0,0.0,0.0,0.0,1.5351,1.5648,1.5795,1.5808,1.5808,1.5808,1.5741,1.5394,1.4669,1.4776,0.0,0.0,0.0,0.0,0.0,0.0,0.0,0.0,0.0,0.0,0.0,0.0,0.0,0.0,0.0,0.0,0.0,0.0,0.0,0.0,0.0,0.0,0.0,0.0,0.0,0.0,0.0,0.0,0.0,0.0,0.0,0.0,0.0,0.0,0.0,0.0,0.0,0.0,0.0,0.0,0.0,0.0,0.0,0.0,0.0,0.0,0.0,0.0,0.0,0.0,0.0,0.0,0.0,0.0,0.0,0.0,0.0,0.0,0.0,0.0,0.0,0.0,0.0,0.0,0.0,0.0,0.0,0.0,0.0,0.0,0.0,0.0,0.0,0.0,0.0,0.0,0.0,0.0,0.0,0.0,0.0,0.0,0.0,0.0,0.0,0.0,0.0,0.0,0.0,0.0,0.0,0.0,0.0,0.0,0.0,0.0,0.0,0.0,0.0,0.0,0.0,0.0,1.5026,1.5253,1.5741,1.5808,1.5808,1.5808,1.5578,1.5307,1.4972,1.4696,0.0,0.0,0.0,0.0,0.0,0.0,0.0,0.0,0.0,0.0,0.0,0.0,0.0,0.0,0.0,0.0,0.0,0.0,0.0,0.0,0.0,0.0,0.0,0.0,0.0,0.0,0.0,0.0,0.0,0.0,0.0,0.0,0.0,0.0,0.0,0.0,0.0,0.0,0.0,0.0,0.0,0.0,0.0,0.0,0.0,0.0,0.0,0.0,0.0,0.0,0.0,0.0,0.0,0.0,0.0,0.0,0.0,0.0,0.0,0.0,0.0,0.0,0.0,0.0,0.0,0.0,0.0,0.0,0.0,0.0,0.0,0.0,0.0,0.0,0.0,0.0,0.0,0.0,0.0,0.0,0.0,0.0,0.0,0.0,0.0,0.0,0.0,0.0,0.0,0.0,0.0,0.0,0.0,0.0,0.0,0.0,0.0,0.0,0.0,0.0,0.0,0.0,1.5284,1.5591,0.0,1.5808,1.5808,1.5808,1.5701,1.5471,1.5035,0.0,0.0,0.0,0.0,0.0,0.0,0.0,0.0,0.0,0.0,0.0,0.0,0.0,0.0,0.0,0.0,0.0,0.0,0.0,0.0,0.0,0.0,0.0,0.0,0.0,0.0,0.0,0.0,0.0,0.0,0.0,0.0,0.0,0.0,0.0,0.0,0.0,0.0,0.0,0.0,0.0,0.0,0.0,0.0,0.0,0.0,0.0,0.0,0.0,0.0,0.0,0.0,0.0,0.0,0.0,0.0,0.0,0.0,0.0,0.0,0.0,0.0,0.0,0.0,0.0,0.0,0.0,0.0,0.0,0.0,0.0,0.0,0.0,0.0,0.0,0.0,0.0,0.0,0.0,0.0,0.0,0.0,0.0,0.0,0.0,0.0,0.0,0.0,0.0,0.0,0.0,0.0,0.0,0.0,0.0,0.0,0.0,0.0,0.0,0.0,0.0,0.0,1.5008,1.5471,1.5808,0.0,1.5808,1.5808,1.5808,1.5635,1.5351,1.4879,0.0,0.0,0.0,0.0,0.0,0.0,0.0,0.0,0.0,0.0,0.0,0.0,0.0,0.0,0.0,0.0,0.0,0.0,0.0,0.0,0.0,0.0,0.0,0.0,0.0,0.0,0.0,0.0,0.0,0.0,0.0,0.0,0.0,0.0,0.0,0.0,0.0,0.0,0.0,0.0,0.0,0.0,0.0,0.0,0.0,0.0,0.0,0.0,0.0,0.0,0.0,0.0,0.0,0.0,0.0,0.0,0.0,0.0,0.0,0.0,0.0,0.0,0.0,0.0,0.0,0.0,0.0,0.0,0.0,0.0,0.0,0.0,0.0,0.0,0.0,0.0,0.0,0.0,0.0,0.0,0.0,0.0,0.0,0.0,0.0,0.0,0.0,0.0,0.0,0.0,0.0,0.0,0.0,0.0,0.0,0.0,0.0,0.0,0.0,0.0,0.0,0.0,1.5008,1.5471,1.5808,1.5808,1.5808,1.5808,1.5808,1.5297,1.4865,0.0,0.0,0.0,0.0,0.0,0.0,0.0,0.0,0.0,0.0,0.0,0.0,0.0,0.0,0.0,0.0,0.0,0.0,0.0,0.0,0.0,0.0,0.0,0.0,0.0,0.0,0.0,0.0,0.0,0.0,0.0,0.0,0.0,0.0,0.0,0.0,0.0,0.0,0.0,0.0,0.0,0.0,0.0,0.0,0.0,0.0,0.0,0.0,0.0,0.0,0.0,0.0,0.0,0.0,0.0,0.0,0.0,0.0,0.0,0.0,0.0,0.0,0.0,0.0,0.0,0.0,0.0,0.0,0.0,0.0,0.0,0.0,0.0,0.0,0.0,0.0,0.0,0.0,0.0,0.0,0.0,0.0,0.0,0.0,0.0,0.0,0.0,0.0,0.0,0.0,0.0,0.0,0.0,0.0,0.0,0.0,0.0,0.0,0.0,0.0,0.0,0.0,0.0,1.5008,1.5471,1.5808,1.5808,1.5808,1.5808,1.5808,1.5484,1.4986,1.4255,0.0,0.0,0.0,0.0,0.0,0.0,0.0,0.0,0.0,0.0,0.0,0.0,0.0,0.0,0.0,0.0,0.0,0.0,0.0,0.0,0.0,0.0,0.0,0.0,0.0,0.0,0.0,0.0,0.0,0.0,0.0,0.0,0.0,0.0,0.0,0.0,0.0,0.0,0.0,0.0,0.0,0.0,0.0,0.0,0.0,0.0,0.0,0.0,0.0,0.0,0.0,0.0,0.0,0.0,0.0,0.0,0.0,0.0,0.0,0.0,0.0,0.0,0.0,0.0,0.0,0.0,0.0,0.0,0.0,0.0,0.0,0.0,0.0,0.0,0.0,0.0,0.0,0.0,0.0,0.0,0.0,0.0,0.0,0.0,0.0,0.0,0.0,0.0,0.0,0.0,0.0,0.0,0.0,0.0,0.0,0.0,0.0,0.0,0.0,0.0,0.0,0.0,1.5008,1.5471,1.5808,1.5808,1.5808,1.5808,1.5808,1.5458,1.495,1.4295,0.0,0.0,0.0,0.0,0.0,0.0,0.0,0.0,0.0,0.0,0.0,0.0,0.0,0.0,0.0,0.0,0.0,0.0,0.0,0.0,0.0,0.0,0.0,0.0,0.0,0.0,0.0,0.0,0.0,0.0,0.0,0.0,0.0,0.0,0.0,0.0,0.0,0.0,0.0,0.0,0.0,0.0,0.0,0.0,0.0,0.0,0.0,0.0,0.0,0.0,0.0,0.0,0.0,0.0,0.0,0.0,0.0,0.0,0.0,0.0,0.0,0.0,0.0,0.0,0.0,0.0,0.0,0.0,0.0,0.0,0.0,0.0,0.0,0.0,0.0,0.0,0.0,0.0,0.0,0.0,0.0,0.0,0.0,0.0,0.0,0.0,0.0,0.0,0.0,0.0,0.0,0.0,0.0,0.0,0.0,0.0,0.0,0.0,0.0,0.0,0.0,0.0,1.5008,1.5471,1.5808,1.5808,1.5808,1.5808,1.5808,1.5324,1.4892,1.4514,0.0,0.0,0.0,0.0,0.0,0.0,0.0,0.0,0.0,0.0,0.0,0.0,0.0,0.0,0.0,0.0,0.0,0.0,0.0,0.0,0.0,0.0,0.0,0.0,0.0,0.0,0.0,0.0,0.0,0.0,0.0,0.0,0.0,0.0,0.0,0.0,0.0,0.0,0.0,0.0,0.0,0.0,0.0,0.0,0.0,0.0,0.0,0.0,0.0,0.0,0.0,0.0,0.0,0.0,0.0,0.0,0.0,0.0,0.0,0.0,1.5965,0.0,0.0,0.0,0.0,0.0,0.0,0.0,0.0,0.0,0.0,0.0,0.0,0.0,0.0,0.0,0.0,0.0,0.0,0.0,0.0,0.0,0.0,0.0,0.0,0.0,0.0,0.0,0.0,0.0,0.0,0.0,0.0,0.0,0.0,0.0,0.0,0.0,0.0,0.0,0.0,0.0,1.5008,1.5471,1.5808,1.5808,1.5808,1.5808,1.5808,1.5511,1.5084,1.4527,1.4135,0.0,0.0,0.0,0.0,0.0,0.0,0.0,0.0,0.0,0.0,0.0,0.0,0.0,0.0,0.0,0.0,0.0,0.0,0.0,0.0,0.0,0.0,0.0,0.0,0.0,0.0,0.0,0.0,0.0,0.0,0.0,0.0,0.0,0.0,0.0,0.0,0.0,0.0,0.0,0.0,0.0,0.0,0.0,0.0,0.0,0.0,0.0,0.0,0.0,0.0,0.0,0.0,0.0,0.0,0.0,0.0,0.0,0.0,0.0,0.0,1.5939,0.0,0.0,0.0,0.0,0.0,0.0,0.0,0.0,0.0,0.0,0.0,0.0,0.0,0.0,0.0,0.0,0.0,0.0,0.0,0.0,0.0,0.0,0.0,0.0,0.0,0.0,0.0,0.0,0.0,0.0,0.0,0.0,0.0,0.0,0.0,0.0,0.0,0.0,0.0,0.0,1.5364,1.5621,1.5861,1.6032,1.5888,1.5808,1.5808,1.5541,1.5271,1.4941,1.4402,0.0,0.0,0.0,0.0,0.0,0.0,0.0,0.0,0.0,0.0,0.0,0.0,0.0,0.0,0.0,0.0,0.0,0.0,0.0,0.0,0.0,0.0,0.0,0.0,0.0,0.0,0.0,0.0,0.0,0.0,0.0,0.0,0.0,0.0,0.0,0.0,0.0,0.0,0.0,0.0,0.0,0.0,0.0,0.0,0.0,0.0,0.0,0.0,0.0,0.0,0.0,0.0,0.0,1.2108,1.258,1.2524,1.2524,1.2395,1.2367,1.5071,1.6125,1.5922,1.5821,0.0,0.0,0.0,0.0,0.0,0.0,0.0,0.0,0.0,0.0,0.0,0.0,0.0,0.0,0.0,0.0,0.0,0.0,0.0,0.0,0.0,0.0,0.0,0.0,1.5992,1.5682,1.5548,0.0,0.0,0.0,0.0,0.0,0.0,0.0,0.0,0.0,0.0,0.0,1.5635,1.5781,1.6005,1.627,1.6005,1.5808,1.5808,1.5605,1.5471,1.5471,1.475,1.4376,0.0,0.0,0.0,0.0,0.0,0.0,0.0,0.0,0.0,0.0,0.0,0.0,0.0,0.0,0.0,0.0,0.0,0.0,0.0,0.0,0.0,0.0,0.0,0.0,0.0,0.0,0.0,0.0,0.0,0.0,0.0,0.0,0.7746,0.8165,0.0,0.0,0.0,0.0,0.0,0.0,0.0,0.0,0.0,0.0,0.0,0.0,0.0,1.0831,1.0968,1.3033,1.324,1.1683,1.2818,1.3222,1.3005,1.3005,1.3738,1.4976,1.466,0.0,1.2842,1.3464,0.0,0.0,0.0,0.0,0.0,0.0,0.0,0.0,0.0,0.0,0.0,0.0,0.0,0.0,0.0,0.0,0.0,0.0,0.0,0.0,0.0,0.0,1.8383,1.8196,1.7541,1.7073,0.0,1.5968,1.4554,1.4772,1.4464,0.0,0.0,0.0,0.0,0.0,0.0,0.0,1.516,1.5775,1.6257,1.6297,1.6005,1.5808,1.5808,1.5768,1.5741,1.5741,1.5431,1.5017,1.4514,1.4977,0.0,0.0,0.0,0.0,0.0,0.0,0.0,0.0,0.0,0.0,0.0,0.0,0.0,0.0,0.0,0.0,0.0,0.0,0.0,0.0,0.0,0.0,0.0,0.0,0.0,0.0,0.0,0.0,0.0,0.8065,0.8365,0.8506,0.8594,0.8432,0.0,0.0,0.0,0.0,0.0,0.0,0.0,0.0,0.0,1.552,1.5624,1.507,1.3796,1.4512,1.3781,1.1599,1.2177,1.2291,1.2045,1.2204,1.2559,1.3058,1.2762,1.2178,1.1569,1.287,1.3373,1.3163,0.0,0.0,0.0,0.0,1.0291,1.1444,1.1934,1.3347,1.4888,1.4649,0.0,0.0,0.0,0.0,0.0,0.0,0.0,0.0,0.0,0.0,1.9185,1.9212,1.9052,1.8958,1.9183,1.7782,1.6315,0.0,1.5387,1.4897,1.4376,0.0,0.0,0.0,0.0,1.6136,1.6228,1.6404,1.6513,1.6513,1.6246,1.6005,1.5821,1.5808,1.5808,1.5808,1.5688,1.5501,1.5248,1.5475,1.4805,0.0,0.0,0.0,0.0,0.0,0.0,0.0,0.0,0.0,0.0,0.0,0.0,0.0,0.0,0.0,0.0,0.0,0.0,0.0,0.0,0.0,0.0,0.0,0.0,0.0,0.0,0.0,0.0,0.8831,0.9109,0.9034,0.9325,0.9472,0.0,0.0,0.0,0.0,0.0,0.0,1.6646,1.7642,1.8573,1.9435,1.9398,1.8246,1.5992,1.5498,1.4075,1.1674,1.1789,1.1708,1.1492,1.1687,1.1647,1.1466,1.2073,1.2178,1.1989,1.2545,1.2828,1.2837,1.1861,1.139,1.1161,1.0374,1.0861,1.1869,1.1712,1.2888,1.4449,1.4646,1.5079,1.5483,1.5367,0.0,0.0,0.0,0.0,1.7505,1.8913,1.9508,1.9803,2.0067,2.0307,2.041,2.033,1.9343,1.8156,0.0,1.646,1.5795,1.5133,0.0,0.0,0.0,0.0,1.6832,1.7033,1.6993,1.6901,1.6834,1.6511,1.6203,1.5941,1.5848,1.5808,1.5808,1.5808,1.5808,1.5808,1.5486,1.4979,1.4248,0.0,0.0,0.0,0.0,0.0,0.0,0.0,0.0,0.0,0.0,0.0,0.0,0.0,0.0,0.0,0.0,0.0,0.0,0.0,0.0,0.0,0.0,0.0,0.0,0.0,0.0,0.0,0.0,0.0,0.9934,1.0744,0.0,0.0,0.0,0.0,1.5905,1.6504,1.7846,2.0316,1.9084,1.9444,2.2031,2.0208,1.8222,1.6211,1.5927,1.4665,1.2447,1.2454,1.2379,1.2237,1.225,1.2207,1.2162,1.4072,1.4838,1.4513,1.191,1.0828,1.0813,1.0296,1.0214,1.0395,1.0724,1.1624,1.271,1.3058,1.3965,1.5306,1.7371,1.9104,2.013,1.9008,1.8878,0.0,0.0,1.8539,1.9524,1.905,1.9773,2.0712,2.0975,2.1056,2.0989,2.0739,2.016,1.9533,0.0,1.7609,1.682,1.7341,0.0,1.7261,1.67,1.7355,1.7636,1.6834,1.7208,1.7461,1.7206,1.6645,1.6284,1.627,1.5992,1.5808,1.5808,1.5808,1.5808,1.5808,1.4639,1.4531,1.5663,1.2765,0.0,0.0,0.0,0.0,0.0,0.0,0.0,0.0,0.0,0.0,0.0,0.0,0.0,0.0,0.0,0.0,0.0,0.0,0.0,0.0,0.0,0.0,0.0,0.0,0.0,0.0,0.0,0.0,1.1097,1.2871,0.0,1.4482,1.603,1.7701,1.9458,2.0356,2.1752,2.3983,2.3871,2.4313,2.5474,2.4788,2.3325,2.1119,2.0993,1.9659,1.7144,1.7232,1.7011,1.6622,1.68,1.6737,1.6588,1.7398,1.7679,1.7447,1.645,1.4928,1.3189,1.3048,1.2206,1.1152,1.1298,1.1625,1.2194,1.3645,1.4412,1.5096,1.7219,1.8736,1.9665,1.9315,1.9811,2.0441,2.0231,2.0552,2.0953,2.0895,2.1203,2.155,2.1657,2.1569,2.1395,2.1301,2.0806,2.0338,2.0094,1.8865,1.7862,1.7849,1.7849,1.7675,1.7113,1.7595,1.7876,1.7582,1.7729,1.7689,1.7259,1.7018,1.6712,1.6324,1.6203,1.5682,1.4639,1.4579,1.4196,1.3331,1.2837,1.2837,1.3282,1.2196,1.1465,0.0,0.0,0.0,0.0,0.0,0.0,0.0,0.0,0.0,0.0,0.0,0.0,0.0,0.0,0.0,0.0,0.0,0.0,0.0,0.0,0.0,0.0,0.0,0.0,0.0,0.0,1.3295,1.4469,1.6415,1.7846,1.8275,1.9709,2.1389,2.324,2.4021,2.5018,2.648,2.6907,2.7255,2.759,2.751,2.6352,2.4074,2.3938,2.2576,2.0055,2.0159,1.9993,1.9528,1.9626,1.9483,1.9225,2.0081,2.0358,2.0266,2.1119,1.9962,1.7396,1.5675,1.4201,1.2934,1.2169,1.1918,1.2199,1.4156,1.5741,1.7086,1.8368,1.9658,2.0729,2.0637,2.1119,2.1697,2.1729,2.1729,2.1783,2.1937,2.1991,2.1991,2.1991,2.1877,2.1729,2.1729,2.1194,2.0766,2.0967,1.9947,1.8958,1.8529,1.8383,1.8143,1.7702,1.7769,1.7862,1.7862,1.7929,1.7796,1.7259,1.7286,1.7086,1.6498,1.6233,1.549,1.398,1.379,1.3181,1.194,1.1487,1.1463,1.1901,1.1366,1.0665,0.9779,0.0,0.0,0.0,0.0,0.0,0.0,0.0,0.0,0.0,0.0,0.0,0.0,0.0,0.0,0.0,0.0,0.0,0.0,0.0,0.0,0.0,0.0,0.0,1.4212,1.5938,1.7943,1.9948,2.1292,2.2629,2.4143,2.4315,2.5215,2.7212,2.7362,2.7483,2.7709,2.7722,2.7843,2.8165,2.7856,2.6713,2.4639,2.4306,2.3098,2.1034,2.1034,2.0962,2.0806,2.0466,2.0125,1.9868,2.2081,2.2882,2.2847,2.5374,2.5276,2.3018,1.799,1.5995,1.5659,1.3513,1.274,1.3067,1.4884,1.8137,2.1459,2.1161,2.2289,2.3723,2.3121,2.2934,2.28,2.2238,2.2077,2.2077,2.2077,2.2064,2.2031,2.2031,2.2017,2.2004,2.2004,2.1355,2.09,2.1475,2.0855,2.005,1.9535,1.9158,1.8823,1.8571,1.805,0.0,1.7648,1.7862,1.7822,1.7326,1.7461,1.7381,1.6794,1.6144,1.5213,1.3932,1.3496,1.2835,1.1828,1.0592,1.0527,1.1775,1.0254,0.891,0.7828,0.0,0.0,0.0,0.0,0.0,0.0,0.0,0.0,0.0,0.0,0.0,0.0,0.0,0.0,0.0,0.0,0.0,0.0,0.0,0.0,0.0,1.7822,1.8919,1.8727,1.9499,2.0578,2.2033,2.3964,2.5381,2.595,2.7228,2.8295,2.8871,2.8671,2.8497,2.8364,2.8179,2.8005,2.7829,2.7749,2.7405,2.6851,2.6981,2.6636,2.5795,2.5795,2.5699,2.5464,2.5348,2.5276,2.5178,2.5833,2.6062,2.605,2.6745,2.6731,2.5884,2.2319,2.0074,1.8681,1.7822,1.8465,1.9769,1.9822,2.1843,2.4324,2.4039,2.4151,2.4292,2.3955,2.3723,2.3522,2.3362,2.3308,2.3308,2.3308,2.3113,2.2953,2.2953,2.2619,2.2298,2.2298,2.181,2.1395,2.1588,2.1208,2.0748,2.0418,1.9893,1.9533,1.9452,1.9147,0.0,1.8584,1.8596,1.8596,1.845,1.7929,1.7609,1.7649,1.5834,1.4154,1.2876,1.1629,1.0444,0.9324,0.8961,0.8987,0.9425,0.8898,0.8475,0.0,0.0,0.0,0.0,0.0,0.0,0.0,0.0,0.0,0.0,0.0,0.0,0.0,0.0,0.0,0.0,0.0,0.0,0.0,0.0,0.0,0.0,2.1817,2.3565,2.4987,2.4488,2.4584,2.6248,2.7743,2.8628,2.8585,2.9352,2.9891,2.9891,2.9579,2.9295,2.9165,2.8871,2.8607,2.827,2.8257,2.8203,2.8083,2.8257,2.8257,2.8083,2.7949,2.7844,2.767,2.755,2.7416,2.7309,2.7443,2.7416,2.7322,2.7576,2.767,0.0,0.0,0.0,0.0,0.0,2.113,2.2855,2.2259,2.3653,2.5651,2.5358,2.5064,2.477,2.4476,2.4008,2.3554,2.3469,2.3255,2.3108,2.3362,2.326,2.3166,2.3265,2.3025,2.2766,2.2632,2.1984,2.1475,2.1716,2.1203,0.0,2.0842,2.0267,1.972,1.9466,1.9078,1.8744,1.8543,1.8636,1.8691,1.8529,1.8303,1.7819,1.6991,1.5492,0.0,0.0,0.0,0.9526,0.8427,0.8383,0.0,0.0,0.0,0.8808,0.9639,0.0,0.0,0.0,0.987,1.0272,0.0,0.0,0.0,0.0,0.0,0.0,0.0,0.0,0.0,0.0,0.0,0.0,0.0,0.0,0.0,0.0,2.5935,2.801,3.1354,2.9836,2.9138,3.1134,3.161,3.1664,3.1396,3.0849,3.056,3.056,3.0207,3.0007,2.9967,0.0,0.0,0.0,0.0,2.8921,2.8711,2.8711,2.8711,2.8698,2.8433,2.8286,2.8272,2.7963,2.7709,2.7523,2.7736,2.7682,2.7496,2.8018,2.8219,2.7957,2.5413,2.4394,2.4075,2.1782,2.2207,2.3863,2.3222,0.0,0.0,2.5665,2.5384,2.5117,2.4786,2.4132,2.346,2.3228,2.2746,2.2405,2.296,2.3081,2.3108,2.3313,2.3319,2.3247,2.296,2.2017,2.1403,2.1884,2.1122,2.0504,2.1029,2.0441,1.972,1.917,1.8623,1.8249,1.8223,1.8504,1.8571,1.825,0.0,0.0,1.6037,1.5217,1.366,1.0932,1.0226,0.9509,0.8627,0.8807,0.8871,0.8758,0.9063,1.01,1.189,1.2078,1.3279,1.5283,1.2849,1.2782,0.0,0.0,0.0,0.0,0.0,0.0,0.0,0.0,0.0,0.0,0.0,0.0,0.0,0.0,0.0,2.7539,2.9504,3.112,3.2572,3.2323,3.2093,3.2318,3.2393,3.2407,3.234,3.1805,3.1457,3.1457,3.0929,3.0515,3.0333,2.9993,2.97,2.9406,2.9392,2.9366,2.9312,2.9312,2.9312,2.9312,0.0,0.0,2.8815,2.8761,2.8708,2.8655,2.8708,2.8617,2.8364,2.847,2.8406,2.811,2.7278,2.6837,2.6496,2.5343,2.5448,2.6053,2.5244,2.5556,2.6305,2.5998,2.5877,2.577,2.5438,2.5064,0.0,2.47,2.4396,2.4119,2.4226,2.4115,2.3901,2.3728,2.35,2.3247,2.296,2.2498,2.2124,2.2004,2.1649,2.1288,2.1136,2.0775,2.0498,2.0361,2.004,1.9703,1.9492,1.972,1.9757,1.9492,1.9103,1.8831,1.8641,1.5555,1.347,1.3096,1.0717,0.9321,0.9233,1.0685,1.1525,1.1595,1.3017,1.3916,1.4326,1.446,1.5544,1.7451,1.5296,1.513,0.0,0.0,0.0,0.0,0.0,0.0,0.0,0.0,0.0,0.0,0.0,2.1563,0.0,0.0,2.7464,2.9925,3.1209,3.2185,3.3066,3.32,3.3093,3.2848,3.2808,3.2755,3.2607,3.2326,3.2152,3.2152,3.1885,3.1657,3.151,3.1169,3.0875,3.0581,3.0627,3.0434,3.014,3.014,3.006,2.9958,2.9619,2.9428,2.9428,2.9428,2.9428,2.9428,2.9325,2.9179,2.9018,2.8724,2.843,2.8165,2.8018,2.7871,2.767,2.7081,2.7014,2.7148,2.6426,2.636,2.656,2.6305,2.6118,2.5971,2.5824,2.5331,2.4823,2.4676,2.4436,2.4209,2.4209,2.4209,2.4168,2.4022,2.3768,2.346,2.3166,2.2739,2.2338,2.2044,2.1783,2.1489,2.1162,2.0989,2.0842,2.0726,2.0548,2.0347,2.0054,2.0117,2.0144,1.9997,1.973,1.9279,1.8559,1.5845,1.42,1.4341,1.2943,1.2119,1.2194,1.3105,1.3669,1.3818,1.4771,1.5703,1.6644,1.6808,1.7808,1.9586,1.8545,1.8453,0.0,0.0,0.0,0.0,0.0,0.0,0.0,0.0,2.0407,2.3173,2.4153,2.5354,2.8124,2.9085,3.0034,3.1858,3.2345,3.2772,3.3494,3.3587,3.348,3.3187,3.3106,3.2973,3.2781,3.2714,3.2674,3.2674,3.2621,3.2594,3.2594,3.2318,3.2078,3.1898,3.1885,3.1657,3.1142,3.1076,3.0902,3.0654,3.0314,3.014,3.0087,3.0087,3.0087,3.006,2.9713,2.9566,2.9526,2.8871,2.8457,2.8272,2.8205,2.8179,2.8152,2.7802,2.7696,2.7615,2.7094,2.6867,2.6747,2.6547,2.6319,2.6078,2.6078,2.5504,2.4836,2.4609,2.4289,2.4058,2.4058,2.4155,2.4275,2.4222,2.4022,2.3754,2.3372,2.2905,2.2485,2.2138,2.1917,2.1662,2.1323,2.1283,2.1162,2.0846,2.0793,2.0655,2.033,2.0344,2.033,2.021,2.025,1.9581,1.7829,1.6354,1.5428,1.5129,1.5099,1.512,1.5131,1.5461,1.5698,1.5852,1.6322,1.7329,1.8823,1.9007,1.9788,2.1109,2.1229,2.1216,1.0647,1.1915,1.4112,1.6607,1.7939,1.9655,0.0,0.0,2.6013,2.916,3.0074,3.065,3.1824,3.2313,3.2746,3.3507,3.3881,3.4108,3.4202,3.4215,3.4108,3.3828,3.3534,3.3347,3.332,3.308,3.2982,3.2982,3.2741,3.2594,3.2594,3.2567,3.2527,3.25,3.25,3.246,3.2393,3.2091,3.181,3.1564,3.1223,3.0942,3.0688,3.0688,3.0688,3.0662,3.0114,2.9873,2.9806,2.8951,2.8591,2.8524,2.8286,2.8179,2.8152,2.7802,2.7696,2.7655,2.7335,2.7041,2.6814,2.6787,2.6573,2.6346,2.6346,2.6131,2.5837,2.581,2.5396,2.493,2.493,2.4756,2.4492,2.4262,2.4182,2.4008,2.3412,2.3238,2.3025,2.2485,2.2338,2.2231,2.1937,2.1884,2.1697,2.1149,2.1069,2.0962,2.0668,2.0855,2.0784,2.0264,2.0468,1.9897,1.802,1.7697,1.697,1.5525,1.5432,1.5484,1.5616,1.7099,1.7976,1.8117,1.9669,2.0574,2.0803,2.1093,2.1203,2.1122,2.1643,2.1603,1.4393,1.5638,1.727,2.0135,2.1896,2.3748,2.7008,2.8149,2.9209,3.1409,3.2038,3.2519,3.3414,3.34,3.344,0.0,3.3948,3.3884,3.4269,3.4175,3.3961,3.3668,3.3347,3.316,3.316,3.32,3.316,3.2986,3.3026,3.3053,3.3053,3.3053,3.3053,3.3053,3.3053,3.2973,3.2848,3.2679,3.2465,3.2219,3.2099,3.1979,3.1858,3.1637,3.137,3.1022,3.0608,3.0234,2.986,2.9152,2.8764,2.8577,2.8312,2.8179,2.8165,2.8045,2.8005,2.7951,2.7615,2.7442,2.7281,2.6894,2.6734,2.664,2.664,2.644,2.6252,2.6252,2.6065,2.5718,2.5248,2.5117,2.4999,2.4532,2.4329,2.4142,2.3888,2.3532,2.3193,2.2766,2.2672,2.2525,2.2071,2.2124,2.2098,2.1683,2.1617,2.1577,2.1456,2.155,2.1456,2.1042,2.1141,2.0835,1.9831,1.9743,1.9493,1.8792,1.8761,1.8778,1.8855,1.9531,2.0049,2.031,2.084,2.1283,2.1617,2.1609,2.1609,2.163,2.1871,2.1857,1.7681,1.9016,2.0441,2.3564,2.5714,2.7601,2.9832,3.0828,3.1617,3.2942,3.337,3.3694,3.4429,3.4215,3.4017,3.4496,3.4202,3.3991,3.4389,3.4255,3.3921,3.3387,3.304,3.2848,3.2688,3.3093,3.336,3.324,3.3494,3.3668,3.3668,3.3587,3.3547,3.3547,3.3454,3.3307,3.3106,3.3093,3.3009,3.2714,3.2714,3.2674,3.2581,3.2238,3.1864,3.1436,3.0982,3.0555,3.01,2.9308,2.8868,2.8684,2.8339,2.8179,2.8179,2.8179,2.8179,2.8152,2.7938,2.7762,2.7629,2.7201,2.6947,2.6787,2.6787,2.6613,2.6386,2.6386,2.6333,2.6119,2.5529,2.5358,2.5291,2.4826,2.4543,2.4302,2.4222,2.3875,2.3474,2.3215,2.3148,2.3014,2.2586,2.2645,2.2726,2.2546,2.2505,2.2385,2.2031,2.1991,2.1943,2.1729,2.1703,2.1582,2.1256,2.1309,2.1323,2.1229,2.1309,2.1309,2.1229,2.1309,2.1416,2.1614,2.1416,2.1563,2.1991,2.189,2.189,2.1991,2.2151,2.2211,1.9346,2.1196,2.3202,2.6684,2.9118,3.0989,3.2233,3.2906,3.3574,3.4561,3.4748,3.4855,3.511,3.5151,3.5151,3.5164,3.5151,3.5057,3.4842,3.4788,3.436,3.3133,3.2781,3.238,0.0,3.2746,3.3534,3.3841,3.4122,3.4295,3.4295,3.4028,3.3868,3.3868,3.3574,3.3414,3.34,3.34,3.3253,3.3009,3.3009,3.2862,3.2581,3.2238,3.2091,3.2024,3.1169,3.0782,3.0675,2.9468,2.8988,2.8921,2.8419,2.8179,2.8179,2.8179,2.8179,2.8179,2.8179,2.7978,2.7696,2.7682,2.7281,2.6787,2.6787,2.6613,2.6386,2.6386,2.6225,2.5998,2.5971,2.5556,2.5128,2.5077,2.4836,2.4506,2.4262,2.4195,2.4088,2.383,2.3777,2.3777,2.375,2.3763,2.3763,2.375,2.375,2.3335,2.2138,2.1991,2.201,2.1977,2.201,2.189,2.1596,2.1836,2.1877,2.1582,2.1836,2.1863,2.1582,2.1836,2.1863,2.1582,2.185,2.1964,2.1991,2.2258,2.2258,2.2004,2.2599,2.2719,2.2749,2.4778,2.7106,2.9415,3.1142,3.2505,3.3494,3.3868,3.4108,3.4402,3.3892,3.337,3.3477,3.328,3.3213,3.345,3.3935,3.4362,3.4456,3.4309,3.3881,3.3129,3.2942,0.0,0.0,0.0,0.0,3.3253,3.3748,3.4122,3.4309,3.4229,3.4175,3.4175,3.3881,3.3721,3.3721,3.3521,3.336,3.3267,3.3267,3.3013,3.2594,3.2487,3.2233,3.1784,3.1089,3.0795,3.0715,2.974,2.9219,2.8961,2.8604,2.8366,2.8179,2.8179,2.8179,2.8179,2.8179,2.8125,2.8005,2.7762,2.7562,2.7402,2.7402,2.7201,2.7015,2.7015,2.676,2.644,2.6091,2.585,2.565,2.5411,2.5291,2.5144,2.485,2.4783,2.4636,2.4155,2.4209,2.4222,2.387,2.3964,2.3995,2.383,2.3607,2.3327,2.2892,2.2699,2.2532,2.2298,2.2271,2.2151,2.189,2.1957,2.197,2.1877,2.197,2.197,2.1877,2.1937,2.2031,2.2124,2.2031,2.2211,2.2599,2.2472,2.2472,2.2612,2.28,2.284,2.5813,2.7762,2.9806,3.1536,3.2746,3.3641,3.4322,3.4402,3.4322,3.4322,3.3374,3.2567,3.246,3.1971,3.177,3.2219,3.2768,3.3307,3.3908,3.3748,3.3414,3.3026,3.2786,3.2688,0.0,0.0,0.0,3.324,3.3761,3.4175,3.4469,3.4376,3.4362,3.4469,3.4202,3.3988,3.3881,3.3681,3.3521,3.3414,3.3414,3.316,3.2741,3.2648,3.2273,3.1684,3.1049,3.0742,3.0581,2.9806,2.9312,2.8975,2.8788,2.8511,2.8205,2.8312,2.8286,2.8179,2.8179,2.8179,2.8152,2.7965,2.7789,2.7696,2.7696,2.7495,2.7282,2.7175,2.6974,2.6707,2.6279,2.6078,2.5944,2.5718,2.5585,2.5464,2.5277,2.5237,2.5117,2.4743,2.4786,2.4796,2.4352,2.4302,2.4289,2.4115,2.3834,2.3607,2.35,2.322,2.2953,2.2732,2.2645,2.2458,2.2164,2.2231,2.2291,2.2151,2.2278,2.2291,2.2151,2.2278,2.2338,2.2385,2.2338,2.2519,2.2893,2.2672,2.2672,2.2893,2.2893,2.2893,2.8348,2.9993,3.1356,3.303,3.3884,3.4416,3.4748,3.4523,3.4269,3.4175,3.32,3.23,0.0,0.0,3.0875,3.1537,3.1711,3.2131,3.3293,3.324,3.3053,0.0,0.0,0.0,0.0,0.0,0.0,3.3841,3.4175,3.4456,3.4829,3.4523,3.4496,3.4829,3.4496,3.4202,3.3935,3.3908,3.3721,3.3414,3.3414,3.3253,3.2973,3.2728,3.2286,3.1711,3.1076,3.0648,3.0386,2.9811,2.9339,2.9015,2.9001,2.8684,2.8245,2.8484,2.8433,2.8179,2.8179,2.8179,2.8179,2.8179,2.7991,2.7722,2.7722,2.7535,2.7296,2.6947,2.6854,2.6774,2.6493,2.6238,2.6011,2.6011,2.5758,2.5558,2.5545,2.5545,2.5545,2.5518,2.5518,2.5424,2.5168,2.485,2.4613,2.4599,2.4359,2.4115,2.387,2.3527,2.3319,2.3319,2.3073,2.28,2.2451,2.2746,2.2773,2.2458,2.2712,2.2773,2.2458,2.2746,2.276,2.2411,2.2746,2.2893,2.2893,2.2893,2.2893,2.2893,2.292,2.292,2.9446,3.1356,3.3307,3.4202,3.4536,3.467,3.4802,3.4362,3.3614,3.2291,3.0902,2.9566,2.839,2.8711,2.9432,3.0234,3.165,0.0,3.3948,3.4215,0.0,3.3708,0.0,3.4175,3.3601,3.3919,0.0,0.0,3.4351,3.4549,3.5057,3.5017,3.5004,3.5084,3.4803,3.4616,3.4588,3.4108,3.3721,3.3414,3.3414,3.3253,3.2973,3.2728,3.2393,3.1957,3.137,3.0955,3.0662,3.0333,2.9878,2.9352,2.9081,2.8775,2.847,2.8366,2.8259,2.8179,2.8179,2.8179,2.8179,2.8179,2.8138,2.8072,2.8072,2.8018,2.7898,2.7562,2.7321,2.7081,2.6787,2.6493,2.6319,2.6319,2.6226,2.6106,2.5931,2.6012,2.6039,2.5598,2.5518,2.5424,2.5168,2.5024,2.489,2.4639,2.4532,2.4386,2.4128,2.3834,2.3661,2.3661,2.3394,2.3145,2.3065,2.2953,2.2867,2.2786,2.2853,2.2867,2.2786,2.2853,2.2853,2.2786,2.2853,2.2893,2.2893,2.2893,2.2893,2.2907,2.31,2.3207,3.4875,3.662,3.7664,3.6956,3.6674,3.6028,3.3903,3.3053,3.2104,2.9927,2.8631,2.7549,2.6453,2.7108,2.815,2.9179,0.0,0.0,3.3948,3.4269,3.4402,0.0,3.479,0.0,3.467,3.483,3.5057,0.0,3.483,3.4776,3.5351,3.5271,3.5257,3.5378,3.4977,3.4695,3.4427,3.3908,3.3587,3.3414,3.3414,3.3253,3.2973,3.2728,3.2367,3.1891,0.0,3.1062,3.0782,3.0667,3.0333,2.9891,2.9686,2.9285,2.8778,2.8604,2.8406,2.8179,2.8179,2.8179,2.8179,2.8179,2.8179,2.8179,2.8179,2.8179,2.8125,2.7789,2.7575,2.7429,2.7094,2.6894,2.6774,2.6774,2.6774,2.6774,2.6613,2.6693,2.664,2.6172,2.5985,2.5812,2.5556,2.5358,2.5211,2.5013,2.4879,2.477,2.4609,2.4222,2.3968,2.3968,2.3581,2.3345,2.3514,2.3148,2.296,2.306,2.2974,2.296,2.306,2.3073,2.3126,2.3295,2.3295,2.3295,2.3295,2.3295,2.3228,2.3073,2.338,2.3447,4.1424,4.2443,4.1915,3.9753,3.867,3.7048,3.2735,3.1316,3.0207,2.7657,2.656,2.5932,2.5384,2.6092,2.7215,2.8564,3.0221,3.1971,3.3748,3.4068,3.4402,3.5164,3.5137,3.5231,3.5698,3.5525,3.5591,3.6153,3.5444,3.5177,3.5551,3.5391,3.5351,3.5565,3.5044,3.4548,3.3948,3.3627,3.3454,3.3414,3.3414,3.328,3.3026,3.2781,3.2353,3.1818,3.1476,3.1156,3.0849,3.0849,3.0662,3.04,3.036,2.9806,2.9041,2.8961,2.8657,2.8245,2.8205,2.8179,2.8179,2.8179,2.8179,2.8179,2.8179,2.8179,2.8125,2.7829,2.7722,2.7642,2.7429,2.7336,2.7309,2.7309,2.7309,2.7309,2.7309,2.7309,2.7229,2.6934,2.664,2.636,2.6105,2.5772,2.5558,2.5518,2.5304,2.5117,2.5077,2.4596,2.4262,2.4262,2.3732,2.3554,2.3843,2.3348,2.3134,2.3332,2.3161,2.31,2.338,2.338,2.3514,2.3803,2.3803,2.3803,2.3803,2.3803,2.3634,2.3359,2.3688,2.3688,4.2343,4.1269,3.9738,3.9065,3.6822,3.4272,3.2428,3.0675,2.8761,2.6667,2.5331,2.4476,2.4178,2.5384,2.7175,2.9339,3.0955,3.2572,3.4414,3.503,3.5378,0.0,3.6153,3.65,3.6366,3.6313,0.0,0.0,3.6433,3.6032,3.5591,3.5578,3.5471,3.5271,3.4937,3.4603,3.4242,3.3948,3.3668,3.3414,3.3414,3.3387,3.332,3.304,3.2768,3.2433,3.2078,0.0,3.1156,3.1156,3.0835,3.0386,3.0087,2.9753,2.9352,2.8858,2.8617,2.8484,2.8272,2.8179,2.8179,2.8179,2.8179,2.8179,2.8179,2.8179,2.8179,2.8125,2.7924,2.7682,2.7642,2.7483,2.7309,2.7309,2.7309,2.7309,2.7309,2.7309,2.7296,2.7242,2.6947,2.6653,2.636,2.6105,2.5837,2.5545,2.5464,2.5344,2.5117,2.4783,2.4519,2.4519,2.4262,2.4075,2.4128,2.3808,2.3669,2.3723,2.3683,2.3669,2.3688,2.3688,2.375,2.3803,2.3803,2.3803,2.3803,2.3803,2.3777,2.3736,2.3995,2.4102,4.4702,4.402,4.2551,3.9572,3.7191,3.4583,3.0907,2.8925,2.7121,2.4449,2.3482,2.3006,2.2907,2.4289,2.6092,2.8003,2.9806,3.169,3.3761,3.4576,3.5177,3.5792,3.6366,3.6647,3.6513,3.65,3.658,3.6687,3.658,3.6433,3.6258,3.6019,3.5591,3.499,3.4882,3.4549,3.4095,3.3961,3.3721,3.3414,3.3414,3.3414,3.34,3.3106,3.2955,3.2808,3.2514,3.1998,3.1463,3.1623,3.1249,3.0568,3.0434,3.01,2.9633,2.9045,2.8738,2.8564,2.8286,2.8179,2.8179,2.8179,2.8179,2.8179,2.8179,2.8179,2.8179,2.8179,2.8085,2.7965,2.7965,2.7871,2.7764,2.7764,2.7764,2.7764,2.7764,2.7764,2.7724,2.7522,2.7375,2.7134,2.6694,2.6493,2.6306,2.6012,2.5838,2.5692,2.5596,2.5277,2.4933,2.4626,2.4382,2.4262,2.4422,2.4022,2.387,2.3981,2.3884,2.387,2.3995,2.3995,2.4062,2.4222,2.4222,2.4222,2.4222,2.4222,2.4142,2.3995,2.4289,2.4342,4.6811,4.6059,4.4205,3.9805,3.7437,3.4791,2.9583,2.7402,2.5693,2.2859,2.2071,2.1984,2.2171,2.342,2.4959,2.6653,2.8337,3.0354,3.2959,3.3788,3.4616,3.5925,3.638,0.0,3.6687,3.6647,0.0,3.6687,3.658,3.658,3.6699,3.6206,3.5565,3.4936,3.4788,3.4442,3.3988,3.3855,3.3654,3.3414,3.3414,3.3414,3.34,3.3173,3.304,3.3009,3.2728,3.226,3.1738,3.1917,3.153,3.0795,3.0795,3.0474,2.9927,2.9242,2.8855,2.8644,2.8312,2.8179,2.8179,2.8179,2.8179,2.8179,2.8179,2.8179,2.8179,2.8179,2.8179,2.8179,2.8179,2.8179,2.8179,2.8179,2.8179,2.8179,2.8179,2.8179,2.8112,2.7843,2.7749,2.7549,2.7094,2.6961,2.6841,2.6613,2.6372,2.6158,2.6091,2.5824,2.5411,2.4839,2.4569,2.4462,2.4586,2.4222,2.4048,2.4289,2.4075,2.4062,2.4289,2.4302,2.4359,2.4599,2.4599,2.4599,2.4599,2.4599,2.4479,2.4302,2.4596,2.4572,4.7131,4.3724,3.9743,3.868,3.5692,3.2327,2.9557,2.7187,2.517,2.3505,2.2352,2.1863,2.2666,2.3402,2.4633,2.6894,2.7602,2.9098,3.2532,3.3307,3.4111,3.5872,0.0,0.0,3.7275,3.7048,3.7008,3.7275,3.6794,3.6393,3.6166,3.5591,3.5244,3.5164,3.4643,3.4336,3.4282,3.3734,3.344,3.3414,3.3414,3.3414,3.3414,3.3387,3.3227,3.3009,3.2728,3.226,0.0,3.1751,3.1343,3.0795,3.0795,3.0595,3.0266,2.9308,2.8975,2.8868,2.8379,2.8179,2.8179,2.8179,2.8179,2.8179,2.8179,2.8179,2.8179,2.8179,2.8179,2.8179,2.8179,2.8179,2.8179,2.8179,2.8179,2.8179,2.8179,2.8179,2.8179,2.8152,2.7924,2.7682,2.7629,2.7443,2.7255,2.7229,2.6934,2.6653,2.6386,2.6131,2.5824,2.5464,2.517,2.4903,2.4626,2.4546,2.4532,2.4559,2.4532,2.4532,2.4559,2.4559,2.4572,2.4599,2.4599,2.4599,2.4599,2.4599,2.4586,2.4572,2.4903,2.5024,4.1735,4.0315,3.8508,3.6465,3.3976,3.1457,2.9058,2.6961,2.505,2.3394,2.2425,2.201,2.2498,2.2792,2.3554,2.5384,2.5932,2.7228,3.0421,3.1129,3.2238,3.4723,3.5378,3.5898,0.0,0.0,3.6647,3.6635,3.6206,3.5925,3.5805,3.5578,3.5297,3.495,3.471,3.4416,3.4068,3.3814,3.3601,3.3414,3.3414,3.3414,3.3414,3.3414,3.3253,3.2973,3.2902,3.2219,0.0,3.1717,3.1276,3.0301,3.0648,3.0501,3.0007,2.9255,2.8881,2.8724,2.8326,2.8179,2.8179,2.8179,2.8179,2.8179,2.8179,2.8179,2.8179,2.8179,2.8179,2.8179,2.8179,2.8179,2.8179,2.8179,2.8179,2.8179,2.8179,2.8179,2.8179,2.8179,2.8085,2.7951,2.7722,2.7602,2.751,2.7336,2.7014,2.6774,2.6667,2.64,2.6145,2.5812,2.5518,2.5291,2.5133,2.5119,2.5119,2.5119,2.5119,2.5119,2.5119,2.5119,2.5119,2.5119,2.4997,2.4983,2.5119,2.4773,2.4786,2.5119,2.5104,2.5115,3.726,3.7251,3.6951,3.4703,3.2786,3.0881,2.87,2.6653,2.4796,2.3228,2.2492,2.2178,2.2378,2.2485,2.2979,2.4252,2.4836,2.6052,2.8831,2.9553,3.0715,3.324,3.3788,3.4496,3.5859,3.638,3.6473,3.6153,3.5885,3.5685,3.5511,3.5418,3.5191,3.4829,3.4683,3.4389,3.3895,3.3788,3.3627,3.3414,3.3414,3.3374,3.328,3.3374,3.32,3.2902,3.2902,3.2171,0.0,3.1717,3.1316,3.0341,3.0662,3.0541,3.0087,2.9282,2.8868,2.8684,2.8326,2.8245,2.8326,2.8326,2.8326,2.8339,2.8419,2.8326,2.8179,2.8179,2.8179,2.8179,2.8179,2.8179,2.8179,2.8179,2.8179,2.8179,2.8179,2.8179,2.8179,2.8179,2.8179,2.8125,2.7911,2.7871,2.7804,2.7603,2.7268,2.7081,2.7081,2.6747,2.6466,2.6399,2.6079,2.5798,2.5531,2.5518,2.5518,2.5518,2.5518,2.5518,2.5518,2.5518,2.5518,2.5518,2.5304,2.5304,2.5518,2.5053,2.5066,2.5504,2.5398,2.5382,3.5269,3.4934,3.4307,3.3961,3.2332,3.0341,2.8593,2.6333,2.4266,2.3148,2.2619,2.2418,2.2385,2.2659,2.3188,2.4062,2.4703,2.5905,2.8283,2.9125,3.0034,3.1564,3.1957,3.2826,3.4668,3.6086,3.6687,3.6112,3.6126,3.5819,3.5231,3.4923,3.4829,3.4815,3.4482,3.4189,3.3895,3.3574,3.3414,3.3414,3.3414,3.3253,3.2986,3.328,3.3093,3.2594,3.2594,3.226,0.0,3.1711,3.149,3.1136,3.0902,3.0795,3.0648,2.9428,2.8988,2.8908,2.8393,2.8379,2.8604,2.8604,2.8604,2.8657,2.8895,2.8617,2.8179,2.8179,2.8179,2.8179,2.8179,2.8179,2.8179,2.8179,2.8179,2.8179,2.8179,2.8179,2.8179,2.8179,2.8179,2.8179,2.8179,2.8179,2.8179,2.8179,2.7924,2.7696,2.7696,2.7175,2.6934,2.7269,2.6987,2.6453,2.5585,2.5518,2.5518,2.5518,2.5518,2.5518,2.5518,2.5518,2.5518,2.5518,2.5504,2.5504,2.5518,2.5504,2.5504,2.5518,2.585,2.5984,2.9927,3.0567,3.0849,3.0186,2.9356,2.827,2.6707,2.5304,2.4062,2.3094,2.2619,2.2485,2.2686,2.2632,2.3113,2.4823,2.509,2.5864,2.8031,2.9152,3.0394,3.2112,3.4122,3.5631,3.6193,3.6313,3.6273,3.6086,3.5698,3.5391,3.5204,3.4976,3.467,3.4469,3.4175,3.3881,3.3561,3.3467,3.3414,3.3414,3.3414,3.3253,3.2986,3.328,3.2986,3.2251,3.25,3.2032,3.1102,3.155,3.131,3.0648,3.0755,3.0555,3.0127,2.9553,2.9219,2.8961,2.8818,2.8818,2.8855,2.8855,2.8855,2.8881,2.8961,2.8764,2.8457,2.8457,2.8353,2.8179,2.8179,2.8179,2.8179,2.8179,2.8179,2.8179,2.8179,2.8179,2.8179,2.8179,2.8179,2.8179,2.8179,2.8179,2.8179,2.8179,2.7896,2.7696,2.7696,2.7362,2.7161,2.7296,2.7229,2.7014,2.6734,2.652,2.6413,2.6413,2.6226,2.6106,2.6106,2.6106,2.6106,2.6106,2.5957,2.5919,2.6106,2.5705,2.5611,2.5864,2.5957,2.5998,2.6426,2.7816,2.8698,2.8299,2.763,2.6747,2.5611,2.4489,2.35,2.2832,2.2726,2.2779,2.288,2.2993,2.3447,2.4516,2.509,2.5931,2.7322,2.8698,3.0194,3.1851,3.4362,3.5898,3.5898,3.6126,3.6139,3.5925,3.5565,3.5271,3.5044,3.475,3.4456,3.4162,3.3975,3.3734,3.3414,3.3414,3.3414,3.3414,3.3414,3.3253,3.2986,3.328,3.2933,3.2118,3.246,3.2059,0.0,3.1564,3.139,3.0895,3.0808,3.0568,3.0181,2.9673,2.9366,2.9192,2.9041,2.9068,2.9205,2.9205,2.9242,2.9308,2.9245,2.8925,2.8604,2.8604,2.8419,2.8179,2.8179,2.8179,2.8179,2.8179,2.8179,2.8179,2.8179,2.8179,2.8179,2.8179,2.8179,2.8179,2.8179,2.8179,2.8179,2.8179,2.8031,2.7911,2.7911,2.7615,2.751,2.763,2.7536,2.7523,2.763,2.7228,2.6987,2.6987,2.672,2.6547,2.6547,2.6453,2.6386,2.6386,2.6252,2.6252,2.6386,2.6026,2.5932,2.6158,2.6051,2.6051,0.0,2.6213,2.7348,2.7657,2.672,2.5596,2.5021,2.383,0.0,2.2498,2.2865,2.322,2.3014,2.3643,2.4008,2.3492,2.4836,2.6078,2.6373,2.8056,2.9762,3.1276,3.324,3.4456,3.4389,3.5631,3.6219,3.5618,3.5538,3.5338,3.4842,3.4456,3.4162,3.3895,3.3868,3.3708,3.3414,3.3414,3.34,3.3387,3.34,3.3253,3.2959,3.3267,3.2933,0.0,3.246,3.226,3.1711,3.1711,3.1684,3.1604,3.1009,3.0768,3.0635,2.9833,2.9526,2.9486,2.9175,2.9299,2.9513,2.9513,2.97,2.986,2.9593,2.9112,2.8671,2.8671,2.843,2.8219,2.8219,2.8205,2.8179,2.8179,2.8179,2.8179,2.8179,2.8179,2.8179,2.8179,2.8179,2.8179,2.8179,2.8179,2.8179,2.8179,2.8179,2.8179,2.8179,2.7938,2.7829,2.8152,2.7938,2.7843,2.8165,2.767,2.7336,2.7336,2.7014,2.6854,2.6854,2.66,2.6453,2.6453,2.6453,2.6453,2.6453,2.6426,2.6426,2.6413,2.6158,2.6172,2.1563,0.0,2.3287,2.3174,2.3215,2.3153,0.0,2.2479,2.2331,2.2706,2.2907,2.3121,2.3522,2.3763,2.4084,2.4583,2.5197,2.5879,2.6613,2.9406,3.1931,3.3414,3.5017,3.5725,3.5057,3.5498,3.5725,3.5591,3.5217,3.491,3.4829,3.4269,3.3961,3.3895,3.3654,3.3494,3.3414,3.3414,3.3293,3.308,3.3307,3.3146,3.2714,3.3173,3.2933,3.2118,3.246,3.226,3.1711,3.1711,3.1457,3.0982,3.0849,3.0515,3.0127,3.0186,3.0007,2.9833,2.9993,2.994,2.982,2.982,2.986,2.99,2.9833,2.9566,2.9285,2.9285,2.8898,2.8497,2.8497,2.8366,2.8179,2.8179,2.8179,2.8179,2.8179,2.8179,2.8179,2.8179,2.8179,2.8179,2.8179,2.8179,2.8179,2.8179,2.8179,2.8179,2.8179,2.8125,2.8112,2.8179,2.8125,2.8112,2.8179,2.7844,2.7602,2.7602,2.7321,2.7161,2.7161,2.7135,2.7108,2.7108,2.7108,2.7108,2.7095,2.6827,2.672,2.6707,2.6426,2.6319,2.0187,2.1047,2.1877,2.2117,2.2224,2.2245,2.2398,2.1964,2.179,2.2512,2.2659,2.2846,2.346,2.3781,2.4128,2.4596,2.5371,2.6507,2.8203,3.0434,3.2452,3.3948,3.5057,3.5578,3.5231,3.5458,3.5578,3.5444,3.5017,3.471,3.4563,3.4135,3.3828,3.3681,3.3507,3.3414,3.3414,3.3414,3.3267,3.2986,3.328,3.3173,3.2808,3.32,3.308,3.2492,3.23,3.2086,3.1837,3.1436,3.1156,3.0982,3.0849,3.0595,3.0327,3.04,3.0306,3.014,3.0346,3.0167,2.9913,2.9913,2.9913,2.9913,2.9913,2.9806,2.9659,2.9526,2.9152,2.8778,2.8644,2.8484,2.8366,2.8219,2.8179,2.8179,2.8179,2.8179,2.8179,2.8179,2.8179,2.8179,2.8179,2.8179,2.8179,2.8179,2.8179,2.8179,2.8179,2.8179,2.8179,2.8179,2.8179,2.8179,2.8179,2.8031,2.7938,2.7938,2.767,2.7468,2.7468,2.7376,2.7309,2.7309,2.7309,2.7309,2.7309,2.6961,2.6787,2.6774,2.652,2.6386,1.9813,2.0753,2.1789,2.2452,2.2251,2.201,2.2519,2.179,2.1309,2.2198,2.2491,2.2772,2.3385,2.4088,2.4516,2.4422,2.5678,2.763,3.0293,3.139,3.242,3.3721,3.4482,3.4923,3.499,3.5297,3.5391,3.5151,3.4817,3.4536,3.4336,3.4002,3.3694,3.3414,3.3414,3.3414,3.3414,3.3414,3.3267,3.2986,3.328,3.3253,3.2986,3.328,3.3227,3.2929,0.0,0.0,3.1984,3.1276,3.1089,3.1196,3.0955,3.0835,3.0768,3.0614,3.048,3.04,3.036,3.0127,2.9913,2.9913,2.9913,2.9913,2.9913,2.9913,2.986,2.9566,2.9299,2.9001,2.8751,2.8644,2.8524,2.8259,2.8179,2.8179,2.8179,2.8179,2.8179,2.8179,2.8179,2.8179,2.8179,2.8179,2.8179,2.8179,2.8179,2.8179,2.8179,2.8179,2.8179,2.8179,2.8179,2.8179,2.8179,2.8179,2.8179,2.8179,2.7951,2.7762,2.7762,2.7576,2.7443,2.7443,2.7443,2.7443,2.7443,2.7094,2.6934,2.6881,2.6587,2.6426,2.0254,2.1074,2.1555,2.1403,2.1309,2.1269,2.1363,2.1056,2.1056,2.2191,2.3033,2.3741,2.4292,2.5317,2.5892,2.5398,2.6787,2.8848,3.1463,3.2372,3.3053,3.3801,3.4843,3.5124,3.4175,3.4576,3.4936,3.4882,3.4322,3.4108,3.4309,3.3788,3.3467,3.3414,3.3414,3.3414,3.3414,3.3414,3.3267,3.2986,3.328,3.3253,3.2986,3.328,3.312,3.2661,0.0,3.2433,3.1791,3.1851,3.1637,3.1223,3.1122,3.1009,3.0822,3.1022,3.0782,3.0373,3.0074,2.9953,2.9913,2.9913,2.9913,2.9913,2.9913,2.9913,2.986,2.9566,2.9446,2.9352,2.9001,2.8791,2.8524,2.8259,2.8179,2.8179,2.8179,2.8179,2.8179,2.8179,2.8179,2.8179,2.8179,2.8179,2.8179,2.8179,2.8179,2.8179,2.8179,2.8179,2.8179,2.8179,2.8179,2.8179,2.8179,2.8179,2.8179,2.8179,2.8138,2.8112,2.8112,2.8072,2.8045,2.8045,2.8045,2.8045,2.8045,2.775,2.7442,2.7229,2.6894,2.6627,1.9586,2.0418,2.1234,2.1697,2.1784,2.2071,2.3033,2.2198,2.1689,2.3487,2.3589,2.3736,2.509,2.5919,2.6774,2.7949,2.9072,3.0341,3.1891,3.2332,3.2732,3.332,3.4002,3.4282,3.3921,3.4269,3.4523,3.4523,3.4122,3.3948,3.4082,3.3654,3.3414,3.3414,3.3414,3.3414,3.3414,3.3414,3.3267,3.2986,3.328,3.3253,3.2986,3.328,3.3267,3.2986,0.0,3.2372,3.2152,3.1597,3.1236,3.0996,3.0996,3.0915,3.0808,3.0942,3.0822,3.0528,3.0074,2.9913,2.9913,2.9913,2.9913,2.9913,2.9913,2.9913,2.986,2.9566,2.9486,2.9379,2.8925,2.8711,2.8524,2.8259,2.8179,2.8179,2.8179,2.8179,2.8179,2.8179,2.8179,2.8179,2.8179,2.8179,2.8179,2.8179,2.8179,2.8179,2.8179,2.8179,2.8179,2.8179,2.8179,2.8179,2.8179,2.8179,2.8179,2.8179,2.8179,2.8179,2.8179,2.8179,2.8179,2.8179,2.8179,2.8179,2.8179,2.7843,2.7629,2.7495,2.7201,2.6987,1.9236,2.004,2.1042,2.2138,2.2218,2.2552,2.4646,2.3335,2.2385,2.482,2.4472,2.4231,2.5891,2.6613,2.7682,3.0119,3.1062,3.1784,3.2519,3.2625,3.2786,3.324,3.3494,3.3694,3.3868,3.4095,3.4215,3.4215,3.3948,3.3801,3.3881,3.3587,3.3414,3.3414,3.3414,3.3414,3.3414,3.3414,3.3293,3.308,3.3307,3.3293,3.3093,3.324,3.328,3.3173,3.2492,3.2251,3.2326,3.137,3.0955,3.0889,3.0889,3.0889,3.0889,3.0822,3.0755,3.0621,3.01,2.9913,2.9913,2.9913,2.9913,2.9913,2.9913,2.9913,2.9847,2.9486,2.9379,2.9259,2.8738,2.8604,2.8524,2.8259,2.8179,2.8179,2.8179,2.8179,2.8179,2.8179,2.8179,2.8179,2.8179,2.8179,2.8179,2.8179,2.8179,2.8179,2.8179,2.8179,2.8179,2.8179,2.8179,2.8179,2.8179,2.8179,2.8179,2.8179,2.8179,2.8179,2.8179,2.8179,2.8179,2.8179,2.8179,2.8179,2.8179,2.7951,2.7762,2.7696,2.7468,2.7376,2.0284,2.0815,2.1296,2.2191,2.1603,2.1582,2.4459,2.3496,2.2733,2.5382,2.6065,2.6266,2.668,2.7682,2.8951,3.0515,3.1764,3.2902,3.4002,3.4162,3.4175,3.4215,3.4242,3.4162,3.3908,3.3908,3.3921,3.3921,3.3627,3.3574,3.3868,3.3587,3.3414,3.3414,3.3414,3.3414,3.3414,3.3414,3.34,3.3374,3.34,3.34,3.3374,3.312,3.2915,3.2648,3.2594,3.226,3.1778,3.1684,3.145,3.1196,3.1196,3.1196,3.1156,3.0889,3.0621,3.0386,3.002,2.9913,2.9913,2.9913,2.9913,2.9913,2.9913,2.9913,2.9793,2.9188,2.9028,2.8961,2.8684,2.8604,2.8524,2.8259,2.8179,2.8179,2.8179,2.8179,2.8179,2.8179,2.8179,2.8179,2.8179,2.8179,2.8179,2.8179,2.8179,2.8179,2.8179,2.8179,2.8179,2.8179,2.8179,2.8179,2.8179,2.8179,2.8179,2.8179,2.8179,2.8179,2.8179,2.8179,2.8179,2.8179,2.8179,2.8179,2.8179,2.8165,2.8005,2.7696,2.7682,2.7522,1.9466,2.0334,2.1363,2.2432,2.2398,2.2693,2.5115,2.4877,2.493,2.7602,2.7949,2.7909,2.839,2.9285,3.0327,3.1423,3.2599,3.3534,3.3988,3.4202,3.4175,3.3801,3.3761,3.3708,3.3601,3.3587,3.3587,3.3587,3.348,3.3467,3.3587,3.348,3.3414,3.3414,3.3414,3.332,3.3146,3.3146,3.3146,3.3146,3.332,3.3414,3.34,3.3106,3.2919,3.2848,3.2674,3.226,3.1698,3.1476,3.1116,3.0688,3.0688,3.0795,3.0929,3.0635,3.0493,3.036,3.002,2.9913,2.9913,2.9913,2.9913,2.9913,2.9913,2.9913,2.9833,2.9432,2.9312,2.9165,2.854,2.8457,2.8524,2.8259,2.8326,2.8419,2.8232,2.8179,2.8179,2.8179,2.8179,2.8179,2.8179,2.8179,2.8179,2.8179,2.8179,2.8179,2.8179,2.8179,2.8179,2.8179,2.8179,2.8179,2.8179,2.8179,2.8179,2.8179,2.8179,2.8179,2.8179,2.8179,2.8179,2.8179,2.8179,2.8179,2.8179,2.8179,2.8125,2.8018,2.8018,2.7951,1.9092,1.9933,2.1096,2.2211,2.2546,2.3308,2.5944,2.6213,2.6653,2.9232,2.9366,2.9138,2.9553,3.0194,3.0915,3.1704,3.2906,3.3774,3.3868,3.4055,3.3988,3.3467,3.3414,3.3414,3.3414,3.3414,3.3414,3.3414,3.3414,3.3374,3.328,3.336,3.3374,3.328,3.328,3.3187,3.2986,3.2942,3.2888,3.2888,3.304,3.3187,3.3267,3.2879,3.2706,3.2679,3.234,3.1904,3.1503,3.1116,3.0715,3.04,3.04,3.0533,3.0635,3.048,3.0346,3.0194,2.998,2.9913,2.9913,2.9913,2.9913,2.9913,2.9913,2.9913,2.986,2.9566,2.9486,2.9325,2.8604,2.8577,2.8684,2.8513,2.8524,2.8551,2.8379,2.8259,2.8179,2.8179,2.8179,2.8179,2.8179,2.8179,2.8179,2.8179,2.8179,2.8179,2.8179,2.8179,2.8179,2.8179,2.8179,2.8179,2.8179,2.8179,2.8179,2.8179,2.8179,2.8179,2.8179,2.8179,2.8179,2.8179,2.8179,2.8179,2.8179,2.8179,2.8179,2.8179,2.8179,2.8179,1.9481,1.98,2.0424,2.1368,2.1823,2.302,2.6827,2.7241,2.7509,2.9931,3.014,2.9927,2.9927,3.0181,3.0614,3.1129,3.243,3.3497,3.3841,3.3881,3.3774,3.3454,3.3414,3.3414,3.3414,3.3414,3.3414,3.3414,3.3414,3.328,3.2986,3.3253,3.328,3.2986,3.2973,3.2973,3.2973,3.2741,3.2594,3.2594,3.2581,3.2741,3.3009,3.2372,3.2104,3.2064,3.1476,3.1176,3.1122,3.0641,3.04,3.04,3.04,3.04,3.04,3.04,3.0167,2.9913,2.9913,2.9913,2.9913,2.9913,2.9913,2.9913,2.9913,2.9913,2.986,2.9566,2.9486,2.9419,2.9081,2.9001,2.9001,2.9001,2.8818,2.8604,2.8604,2.8406,2.8179,2.8192,2.8192,2.8192,2.8192,2.8192,2.8192,2.8179,2.8179,2.8179,2.8179,2.8179,2.8179,2.8179,2.8179,2.8179,2.8179,2.8179,2.8179,2.8179,2.8179,2.8179,2.8179,2.8179,2.8179,2.8179,2.8179,2.8179,2.8179,2.8179,2.8179,2.8179,2.8179,2.8179,1.9813,2.0254,2.1015,2.1716,2.3362,2.5222,2.6734,2.7428,2.858,3.1376,3.155,3.1089,3.0875,3.1249,3.157,3.1543,3.2599,3.3454,3.3534,3.3748,3.3774,3.3454,3.3414,3.3414,3.3414,3.3414,3.3414,3.3414,3.3414,3.328,3.2986,3.3066,3.2973,3.2728,3.2728,3.2621,3.2358,3.2278,3.2238,3.2238,3.2072,3.2233,3.2714,3.2278,3.2104,3.2064,3.1476,3.1116,3.0875,3.0287,2.9927,2.9784,2.9784,2.9619,2.9459,2.9659,2.9686,2.9646,2.9847,2.9913,2.9913,2.9913,2.9913,2.9913,2.9913,2.9913,2.99,2.9806,2.978,2.9766,2.9673,2.9615,2.9553,2.9095,2.8935,2.8815,2.8644,2.8406,2.8245,2.843,2.847,2.847,2.847,2.847,2.8433,2.8219,2.8179,2.8179,2.8179,2.8179,2.8179,2.8179,2.8179,2.8179,2.8179,2.8179,2.8179,2.8179,2.8179,2.8179,2.8179,2.8179,2.8179,2.8179,2.8179,2.8179,2.8179,2.8179,2.8179,2.8179,2.8179,2.8179,2.0668,2.1056,2.183,2.3354,2.477,2.6172,2.7709,2.8738,3.0034,3.2447,3.2332,3.1824,3.1757,3.1944,3.2091,3.2072,3.2799,3.3414,3.3414,3.3574,3.3587,3.328,3.324,3.32,3.308,3.3066,3.3066,3.3066,3.3066,3.2946,3.2652,3.2795,3.2714,3.2433,3.242,3.2278,3.2104,3.1877,3.1757,3.1757,3.1463,3.157,3.2024,3.1957,3.1931,3.1891,3.1303,3.0755,3.0247,2.9887,2.9566,2.9312,2.9312,2.9205,2.9028,2.9379,2.9486,2.9526,2.982,2.9913,2.9913,2.9913,2.9913,2.9913,2.9913,2.9913,2.9913,2.9913,2.9913,2.9913,2.9913,2.9913,2.9833,2.9428,2.9161,2.8975,2.8965,2.8567,2.8312,2.8698,2.8684,2.8644,2.8764,2.8684,2.8537,2.8393,2.8259,2.8179,2.8179,2.8179,2.8179,2.8179,2.8179,2.8179,2.8179,2.8179,2.8179,2.8179,2.8179,2.8179,2.8179,2.8179,2.8179,2.8179,2.8179,2.8179,2.8179,2.8179,2.8179,2.8179,2.8179,2.8179,2.1877,2.2111,2.2819,2.5651,2.6106,2.664,2.9539,3.0795,3.173,3.3093,3.2732,3.2265,3.2581,3.2407,3.2265,3.2594,3.3026,3.3374,3.3374,3.3387,3.3293,3.2973,3.3009,3.2915,3.2621,3.2594,3.2594,3.2594,3.2594,3.246,3.2118,3.2407,3.2407,3.2038,3.2024,3.2011,3.1984,3.145,3.1136,3.1183,3.0915,3.0929,3.1149,3.149,3.1657,3.1604,3.0996,3.0274,2.9486,2.9486,2.9285,2.8961,2.8961,2.8961,2.8988,2.9325,2.9459,2.9526,2.982,2.9913,2.9913,2.9913,2.9913,2.9913,2.9913,2.9913,2.9913,2.9913,2.9913,2.9913,2.9913,2.9913,2.9913,2.9887,2.9402,2.9068,2.9379,2.8821,2.8406,2.8921,2.8871,2.8764,2.8988,2.8858,2.8671,2.8617,2.8406,2.8232,2.8232,2.8232,2.8232,2.8232,2.8232,2.8219,2.8192,2.8179,2.8179,2.8179,2.8179,2.8179,2.8179,2.8179,2.8179,2.8179,2.8179,2.8179,2.8179,2.8179,2.8179,2.8179,2.8179,2.8179,2.2586,2.3054,2.3843,2.5636,2.7348,2.9285,3.1757,3.234,3.246,3.2959,3.2919,3.2812,3.2929,3.2888,3.2812,3.2929,3.2986,3.3066,3.3066,3.3267,3.3213,3.2755,3.2888,3.2915,3.2621,3.2594,3.2594,3.2594,3.2594,3.246,3.2118,3.2158,3.1957,3.1436,3.1363,3.1303,3.1076,3.0942,3.0889,3.0889,3.0822,3.0822,3.0902,3.1183,3.1196,3.0955,3.0654,3.0132,2.9486,2.9486,2.9179,2.8698,2.8698,2.8698,2.8738,2.8988,2.9285,2.9526,2.982,2.9913,2.9913,2.9913,2.9913,2.9913,2.9913,2.9913,2.9913,2.9913,2.9913,2.9913,2.9913,2.9913,2.986,2.9633,2.9299,2.9015,2.9081,2.8804,2.8684,2.9272,2.9339,2.9312,2.9379,2.9339,2.9138,2.8671,2.8551,2.8511,2.8511,2.8511,2.8511,2.8511,2.8511,2.8446,2.8205,2.8179,2.8179,2.8179,2.8179,2.8179,2.8179,2.8179,2.8179,2.8179,2.8179,2.8179,2.8179,2.8179,2.8179,2.8179,2.8179,2.8179,2.2846,2.3834,2.5197,2.7697,2.9771,3.1436,3.2581,3.2808,3.2848,3.2946,3.2973,3.2973,3.2973,3.2915,3.2822,3.2822,3.2822,3.2822,3.2822,3.2955,3.2835,3.2246,3.2313,3.2233,3.1791,3.1837,3.1864,3.1764,3.2019,3.1998,3.1704,3.1677,3.1543,3.1189,3.0955,3.0742,3.0581,3.0448,3.0368,3.0368,3.0368,3.0448,3.0641,3.0889,3.0942,3.0782,3.0533,3.0079,2.9472,2.9325,2.9005,2.8591,2.8444,2.847,2.8644,2.8895,2.9232,2.9526,2.982,2.9913,2.99,2.9753,2.9713,2.9686,2.9539,2.9455,2.9455,2.9455,2.9455,2.9526,2.9673,2.9713,2.9673,2.9526,2.9259,2.9041,2.9219,2.8911,2.8818,2.9553,2.9579,2.9526,2.9673,2.9579,2.9285,2.8698,2.8724,2.8764,2.8631,2.8724,2.8721,2.8617,2.8604,2.8484,2.8205,2.8179,2.8179,2.8179,2.8179,2.8179,2.8179,2.8179,2.8179,2.8179,2.8179,2.8179,2.8179,2.8179,2.8179,2.8179,2.8179,2.8179,2.2905,2.4623,2.6747,2.998,3.1744,3.2666,3.2674,3.2781,3.2839,3.2942,3.2955,3.2929,3.2772,3.2607,3.2433,3.238,3.2367,3.2367,3.2367,3.2407,3.2219,3.1631,3.1617,3.1383,3.0849,3.1009,3.1049,3.0808,3.1236,3.141,3.1169,3.1156,3.1056,3.0962,3.0541,3.0279,3.0172,2.994,2.9847,2.9847,2.9847,2.9993,3.0333,3.0421,3.0568,3.0702,3.0453,2.9953,2.9392,2.9095,2.8788,2.8497,2.8286,2.8406,2.8711,2.8908,2.9259,2.9593,2.9833,2.9887,2.9806,2.9566,2.9446,2.9366,2.9068,2.9001,2.9001,2.9001,2.9028,2.9121,2.9352,2.9486,2.9539,2.9432,2.9219,2.9081,2.9419,2.9058,2.8925,2.9753,2.9686,2.9579,2.986,2.9673,2.9325,2.8831,2.8921,2.9032,2.8791,2.8965,2.8975,2.8791,2.8711,2.8564,2.8286,2.8259,2.8245,2.8192,2.8232,2.8245,2.8192,2.8179,2.8179,2.8179,2.8179,2.8179,2.8179,2.8179,2.8179,2.8179,2.8179,2.7968,2.2993,2.5518,2.8312,3.0287,3.1129,3.1717,3.2692,3.2559,3.2291,3.2594,3.2648,3.25,3.1992,3.1858,3.1751,3.1436,3.1396,3.1396,3.1396,3.1623,3.1617,3.0982,3.1129,3.1156,3.0822,3.0822,3.0835,3.0795,3.0862,3.0889,3.0849,3.0849,3.0621,3.01,3.002,2.9726,2.9175,2.9432,2.9539,2.9539,2.9539,2.97,2.9967,2.9442,2.9686,3.0453,3.01,2.9602,2.9055,2.9015,2.8711,2.8245,2.8205,2.8526,2.8948,2.8988,2.9348,2.986,2.99,2.9753,2.9539,2.9499,2.9312,2.9041,2.9001,2.9001,2.9001,2.9001,2.9219,2.9379,2.9108,2.9428,2.9726,2.9175,2.9028,2.9081,2.9419,2.9219,2.9121,2.9793,2.9686,2.9579,2.986,2.9673,2.9459,2.9379,2.9406,2.9406,2.9366,2.9406,2.9406,2.9366,2.9138,2.8815,2.8577,2.8551,2.843,2.8205,2.8433,2.843,2.8192,2.8179,2.8179,2.8179,2.8179,2.8179,2.8179,2.8179,2.8179,2.8179,2.8179,2.7109,2.4315,2.5959,2.7657,3.06,3.1009,3.1049,3.2225,3.2038,3.165,3.1784,3.1724,3.1631,3.1698,3.1396,3.1142,3.1009,3.0702,3.0555,3.0715,3.0895,3.0828,3.0354,3.0568,3.0555,3.01,3.0354,3.0453,3.0087,3.0515,3.0715,3.0555,3.0394,3.0181,2.9927,2.9446,2.9058,2.8804,2.8925,2.9072,2.9232,2.9232,2.9299,2.9375,2.9108,2.9339,2.9891,2.9553,2.9228,2.8988,2.8815,2.8644,2.8433,2.8259,2.8511,2.9001,2.9001,2.9362,2.9913,2.9913,2.9726,2.9459,2.9285,2.9032,2.8764,2.8591,2.8537,2.8577,2.8751,2.8764,2.8861,2.9192,2.9352,2.9402,2.9468,2.9406,2.9366,2.9659,2.9322,2.9175,2.9762,2.9686,2.9579,2.986,2.9806,2.9673,2.9513,2.9619,2.9673,2.9499,2.9619,2.9606,2.9272,2.9272,2.9032,2.8446,2.8511,2.8551,2.8417,2.8406,2.8406,2.8404,2.8272,2.8179,2.8179,2.8179,2.8179,2.8179,2.8179,2.8179,2.8179,2.6842,2.5683,2.4516,2.5491,2.6439,2.9633,3.0234,3.0287,3.1316,3.1263,3.1022,3.1102,3.0942,3.0875,3.1169,3.0862,3.0528,3.0368,2.998,2.9766,2.9993,3.002,2.994,2.9713,2.9887,2.9847,2.9419,2.9766,2.9847,2.9406,2.998,3.0247,3.0034,2.982,2.9659,2.9579,2.8951,2.8564,2.8484,2.8564,2.8751,2.9001,2.8921,2.8895,2.8881,2.8845,2.8938,2.9138,2.9072,2.8948,2.8868,2.8698,2.8564,2.847,2.8272,2.8513,2.8895,2.8895,2.9299,2.9806,2.9806,2.9619,2.9339,2.9068,2.8791,2.8444,2.8259,2.8179,2.8232,2.843,2.843,2.8553,2.9098,2.9205,2.9215,2.97,2.9579,2.9446,2.974,2.9513,2.9348,2.9833,2.9686,2.9579,2.986,2.986,2.9753,2.9619,2.978,2.9833,2.9619,2.978,2.9713,2.9161,2.9352,2.9179,2.8473,2.8657,2.8764,2.8617,2.85,2.8446,2.8484,2.8312,2.8179,2.8179,2.8259,2.8259,2.8179,2.8179,2.7883,2.7279,2.5513,2.4081,2.2271,2.3612,2.5053,2.668,2.8054,2.9228,2.9887,3.0221,3.0533,3.0755,3.0808,3.0635,3.01,2.998,2.978,2.9175,2.9068,2.9041,2.9068,2.9068,2.9055,2.9041,2.9055,2.9055,2.9028,2.9041,2.9055,2.9028,2.9068,2.9081,2.9068,2.9055,2.8921,2.8684,2.8631,2.847,2.8219,2.8457,2.8751,2.8988,2.8721,2.8631,2.8617,2.8366,2.8232,2.8286,2.8804,2.8841,2.8631,2.8617,2.843,2.8205,2.8192,2.8379,2.8631,2.8631,2.9005,2.9499,2.9499,2.9312,2.9015,2.9001,2.8644,2.8205,2.8192,2.8179,2.8192,2.8205,2.8564,2.8895,2.8711,2.9058,2.9472,2.9499,2.9285,2.9095,2.9446,2.97,2.9873,2.9913,2.9686,2.9579,2.986,2.9686,2.9593,2.986,2.99,2.9913,2.99,2.99,2.9806,2.9499,2.9472,2.9352,2.8975,2.9272,2.9205,2.8644,2.8845,2.8751,2.8232,2.8192,2.8179,2.8179,2.843,2.8444,2.8179,2.8179,2.7067,2.4861,2.4776,2.2353,2.1777,2.2525,2.3474,2.5705,2.6386,2.68,2.7949,2.8634,2.8955,2.8818,2.9272,2.9486,2.8928,2.9245,2.9513,2.9068,2.8711,2.8537,2.8738,2.8721,2.8721,2.8721,2.8881,2.8921,2.8778,2.8895,2.8921,2.8778,2.8577,2.8631,2.8975,2.8454,2.831,2.8604,2.8417,2.8299,2.8179,2.8299,2.8406,2.85,2.8406,2.8353,2.8353,2.8232,2.8179,2.8192,2.8406,2.8446,2.8353,2.8353,2.8286,2.8179,2.8179,2.8379,2.8604,2.8604,2.8858,2.9219,2.9419,2.9165,2.8791,2.8935,2.8631,2.8179,2.8179,2.8179,2.8259,2.8604,2.8591,2.8617,2.9272,2.9325,2.889,2.7658,2.8488,2.9175,2.772,2.8546,2.9686,2.9887,2.9686,2.9579,2.986,2.9833,2.9793,2.99,2.9913,2.9913,2.9913,2.9753,2.9606,2.9499,2.9312,2.9108,2.9001,2.9095,2.9192,2.9165,2.9085,2.8895,2.8724,2.8711,2.8631,2.8444,2.7218,2.7086,2.8179,2.6942,2.5839,2.4753,2.1849,1.9631,2.0962,2.147,2.2191,2.4249,2.474,2.5061,2.6533,2.7403,2.7884,2.7884,2.8484,2.8841,2.8433,2.8834,2.9085,2.8791,2.8446,2.8259,2.8417,2.8457,2.8457,2.8457,2.8617,2.8657,2.847,2.8631,2.8657,2.847,2.8299,2.8366,2.8711,2.8177,2.803,2.8444,2.8286,2.8179,2.8179,2.8179,2.8179,2.8179,2.8179,2.8179,2.8179,2.8179,2.8179,2.8179,2.8179,2.8179,2.8179,2.8179,2.8179,2.8179,2.8179,2.8312,2.8457,2.8457,2.8644,2.8881,2.9125,2.8938,2.8644,2.8831,2.8551,2.8179,2.8179,2.8179,2.8272,2.8631,2.8591,2.8631,2.9419,2.884,2.7732,2.6357,2.6771,2.7431,2.7431,2.861,2.945,2.8771,2.852,2.8456,2.8636,2.8674,2.8944,2.9779,2.9913,2.9913,2.9913,2.9659,2.9446,2.9352,2.9108,2.8961,2.8855,2.9028,2.9232,2.9325,2.9245,2.8745,2.7841,2.7785,2.7346,2.6308,2.4946,2.4866,2.6026,2.4709,2.3589,2.2591,1.9598,1.7788,0.0,0.0,0.0,2.2151,2.3033,2.4111,2.5556,2.6546,2.7336,2.7965,2.8524,2.8815,2.8631,2.8591,2.8497,2.8232,2.8179,2.8179,2.8179,2.8179,2.8179,2.8179,2.8179,2.8179,2.8179,2.8179,2.8179,2.8179,2.8165,2.8165,2.8179,2.8179,2.8179,2.8179,2.8179,2.8179,2.8179,2.8179,2.8179,2.8179,2.8179,2.8179,2.8179,2.8179,2.8179,2.8179,2.8179,2.8179,2.8179,2.8179,2.8179,2.8179,2.8179,2.8179,2.8179,2.8179,2.8379,2.8591,2.8604,2.8604,2.8591,2.8604,2.8433,2.8179,2.8179,2.8179,2.8192,2.8192,2.8577,2.8988,2.8914,2.7572,2.6125,2.5688,2.3996,2.3793,2.8526,2.9644,2.8989,2.6649,2.6139,2.6093,2.6093,2.6139,2.7012,2.9407,2.9869,2.9913,2.9913,2.9659,2.9366,2.9041,2.8988,2.8868,2.8558,2.9038,2.9207,2.884,2.9092,2.8092,2.5401,2.5313,2.4185,2.1755,2.1921,2.1886,2.1631,2.1631,2.0424,1.8203,1.8158,1.6907,1.9428,0.0,0.0,0.0,0.0,0.0,2.2899,2.3434,2.4168,2.5663,2.6226,2.6787,2.7776,2.8165,2.8286,2.8205,2.8179,2.8179,2.8179,2.8179,2.8179,2.8179,2.8179,2.8179,2.8179,2.8179,2.8179,2.8179,2.7791,2.7737,2.8165,2.8179,2.8179,2.8179,2.8179,2.8179,2.8179,2.8179,2.8179,2.8179,2.8179,2.8179,2.8179,2.8179,2.8179,2.8179,2.8179,2.8179,2.8179,2.8179,2.8179,2.8179,2.8179,2.8179,2.8179,2.8179,2.8232,2.8353,2.8524,2.8457,2.8353,2.8537,2.8433,2.8179,2.8179,2.8179,2.8232,2.8417,2.8604,2.8386,2.7038,2.6444,2.5298,2.165,2.1679,2.2418,2.204,2.3335,2.4945,2.6003,2.4763,2.3518,2.3518,2.499,2.6411,2.7102,2.8764,2.9913,2.9913,2.9428,2.9219,2.9352,2.8821,2.7869,2.653,2.6374,2.5683,2.423,2.4217,2.3903,2.3065,2.3188,2.2882,2.2031,2.0565,1.9775,1.9676,1.9676,1.9238,1.8296,1.6742,1.5646,0.0,0.0,0.0,0.0,0.0,0.0,2.1951,2.2485,2.3233,2.477,2.5598,2.6319,2.7175,2.7468,2.767,2.7791,2.7817,2.7898,2.8152,2.8179,2.8179,2.8179,2.8179,2.8179,2.8179,2.8179,2.8179,2.8179,2.7871,2.7817,2.8165,2.8179,2.8179,2.8179,2.8179,2.8179,2.8179,2.8179,2.8179,2.8179,2.8179,2.8179,2.8179,2.8179,2.8179,2.8179,2.8179,2.8179,2.8179,2.8179,2.8179,2.8179,2.8179,2.8179,2.8179,2.8179,2.8179,2.8205,2.8393,2.8339,2.8219,2.8393,2.8326,2.8179,2.8179,2.8179,2.8219,2.8406,2.7891,2.6829,2.4924,2.3777,2.2454,1.9558,1.9196,1.9613,2.0252,1.9937,2.0215,2.2683,2.2004,2.0991,2.0991,2.2178,2.3838,2.5912,2.6559,2.7193,2.8211,2.6997,2.6098,2.6298,2.5697,2.4882,2.3828,2.3786,2.3313,2.2205,2.2308,2.1898,2.0803,2.0925,2.0428,1.9253,1.7986,1.7351,1.7351,1.7351,1.725,1.7019,1.5788,1.514,0.0,0.0,0.0,0.0,0.0,0.0,2.1851,2.2505,2.3212,2.4516,2.5504,2.6226,2.648,2.6613,2.6694,2.6934,2.7108,2.7416,2.8005,2.8138,2.8165,2.8098,2.8138,2.8179,2.8179,2.8179,2.8179,2.8179,2.8179,2.8179,2.8179,2.8179,2.8179,2.8179,2.8179,2.8179,2.8179,2.8179,2.8179,2.8179,2.8179,2.8179,2.8179,2.8179,2.8179,2.8179,2.8179,2.8179,2.8179,2.8179,2.8179,2.8179,2.8179,2.8179,2.8179,2.8179,2.8179,2.8179,2.8179,2.8179,2.8179,2.8179,2.8179,2.8179,2.8179,2.8179,2.815,2.792,2.6685,2.4874,2.2673,2.0529,1.8824,1.8546,1.6799,1.6385,2.076,1.8275,1.583,1.8042,1.8499,1.8499,1.8499,1.8731,2.0381,2.4718,2.3736,2.3279,2.5502,2.3501,2.1888,2.1888,2.1484,2.1091,2.0832,2.1209,2.1378,2.113,2.1475,2.0695,1.8592,1.8499,1.7445,1.5228,1.5181,1.5181,1.5181,1.5181,1.5181,1.5181,1.5181,1.5181,0.0,0.0,0.0,0.0,0.0,0.0,2.0624,2.0388,2.0699,2.2552,2.2365,2.2525,2.4639,2.5264,2.5277,2.4863,2.5798,2.68,2.7389,2.7884,2.8005,2.7536,2.7898,2.8179,2.8179,2.8179,2.8179,2.8179,2.8179,2.8179,2.8179,2.8179,2.8179,2.8179,2.8179,2.8179,2.8179,2.8179,2.8179,2.8179,2.8179,2.8179,2.8179,2.8179,2.8179,2.8179,2.8179,2.8179,2.8179,2.8179,2.8179,2.8179,2.8179,2.8179,2.8179,2.8179,2.8179,2.8179,2.8179,2.8179,2.8179,2.8179,2.8179,2.8179,2.8179,2.8179,2.7891,2.6295,2.5659,2.4508,2.0602,1.9233,1.8406,1.6385,1.5549,1.5462,1.6432,1.5877,1.5321,1.583,1.5917,1.5917,1.5917,1.7584,1.919,1.9952,2.1484,2.2632,2.2994,2.2364,2.1888,2.1888,2.1484,2.0443,1.8627,1.8673,1.7982,1.6212,1.6314,1.63,1.5964,1.5917,1.569,1.5228,1.5181,1.5181,1.5181,1.5181,1.5181,1.5181,1.5181,1.5181,0.0,0.0,0.0,2.013,0.0,0.0,0.0,2.0013,2.0418,2.171,2.175,2.2004,2.3474,2.3634,2.3688,2.4128,2.4703,2.5291,2.5865,2.7001,2.775,2.775,2.8005,2.8179,2.8179,2.8179,2.8179,2.8179,2.8179,2.8179,2.8179,2.8179,2.8179,2.8179,2.8045,2.8031,2.8179,2.8031,2.8031,2.8179,2.8179,2.8179,2.8179,2.8179,2.8179,2.8179,2.8179,2.8179,2.8179,2.8179,2.8179,2.8179,2.8179,2.8179,2.8179,2.8179,2.8179,2.8179,2.8179,2.8179,2.8179,2.8179,2.8179,2.7968,2.68,2.5629,2.4535,2.3742,2.2694,2.1343,1.9302,1.7931,1.6752,1.5509,1.5181,1.5181,1.5181,1.5181,1.5181,1.5181,1.5181,1.5181,1.5181,1.6179,1.7366,1.8551,1.8659,1.9058,2.0317,1.9158,1.8222,1.8222,1.8008,1.7381,1.6174,1.6339,1.6,1.4785,1.495,1.5106,1.5181,1.5181,1.5181,1.5181,1.5181,1.5181,1.5181,1.5181,1.5181,1.5181,1.5181,1.5181,0.0,0.0,0.0,0.0,0.0,2.008,0.0,0.0,0.0,2.1141,2.1496,2.1871,2.2318,2.2017,2.2071,2.31,2.3447,2.375,2.4039,2.5598,2.6894,2.7376,2.763,2.7737,2.7684,2.767,2.7817,2.8165,2.8031,2.8005,2.8179,2.8179,2.8179,2.8179,2.7951,2.7938,2.8179,2.7951,2.7951,2.8179,2.8179,2.8179,2.8179,2.8179,2.8179,2.8179,2.8179,2.8179,2.8179,2.8179,2.8179,2.8179,2.8179,2.8179,2.8179,2.8179,2.8179,2.8179,2.8179,2.8179,2.8136,2.7659,2.7236,2.6491,2.4594,2.2697,2.1175,2.1012,1.9614,1.8096,1.7956,1.6517,1.5147,1.5174,1.5181,1.5181,1.5181,1.5181,1.5181,1.5181,1.5181,1.5181,1.5181,1.5112,1.5686,1.779,1.6162,1.5444,1.7534,1.5866,1.4523,1.455,1.4529,1.4468,1.4353,1.4726,1.4903,1.4708,1.5018,1.5181,1.5181,1.5181,1.5181,1.5181,1.5181,1.5181,1.5181,1.5181,1.5181,1.5181,1.5181,1.5181,0.0,0.0,0.0,0.0,2.0802,0.0,0.0,0.0,1.9642,1.9933,0.0,1.9543,2.0357,0.0,0.0,2.0043,2.1662,2.284,2.2352,2.3594,2.4569,2.4649,2.561,2.6145,2.5838,2.5812,2.6453,2.8072,2.7415,2.7308,2.8138,2.8179,2.8179,2.8179,2.8152,2.8152,2.8179,2.8152,2.8152,2.8179,2.8179,2.8179,2.8179,2.8179,2.8179,2.8179,2.8179,2.8179,2.8179,2.8179,2.8179,2.8179,2.8179,2.8179,2.8179,2.8179,2.8179,2.8179,2.8179,2.8179,2.7841,2.5768,2.3684,2.1954,2.1696,2.1394,2.0795,1.8955,1.8237,1.7624,1.5848,1.5209,1.5025,1.5153,1.5181,1.5181,1.5181,1.5181,1.5181,1.5181,1.5181,1.5181,1.5181,1.5112,1.5022,1.5167,1.4897,1.4738,1.4931,1.4709,1.4563,1.4654,1.459,1.4502,1.4489,1.4787,1.4903,1.4708,1.5018,1.5181,1.5181,1.5181,1.5181,1.5181,1.5181,1.5181,1.5181,1.5181,1.5181,1.5181,1.5181,1.5181,0.0,0.0,0.0,0.0,0.0,0.0,1.9987,0.0,1.9199,0.0,0.0,0.0,0.0,0.0,0.0,0.0,2.0548,2.1056,2.0975,2.2098,2.33,2.4292,2.4596,2.4874,2.5224,2.5264,2.5772,2.7068,2.6667,2.66,2.7135,2.7643,2.7924,2.7924,2.7924,2.8005,2.8179,2.8018,2.8018,2.8179,2.8179,2.8179,2.8179,2.8179,2.8179,2.8179,2.8179,2.8179,2.8179,2.8179,2.7405,2.6151,2.6151,2.7012,2.8052,2.6673,2.6151,2.5981,2.4594,2.4155,2.3984,2.2998,2.1091,1.9228,1.9228,1.8287,1.7008,1.6118,1.5898,1.5779,1.4937,1.4835,1.503,1.5091,1.512,1.5208,1.5296,1.5316,1.5343,1.5432,1.5445,1.5418,1.533,1.5126,1.5023,1.4997,1.4802,1.4674,1.4606,1.4563,1.4502,1.4489,1.4577,1.4566,1.4516,1.4869,1.5031,1.4882,1.5065,1.5181,1.5181,1.5181,1.5221,1.5309,1.5316,1.5357,1.5445,1.5357,1.5269,1.5181,1.5181,1.5181,2.2158,0.0,0.0,0.0,0.0,0.0,0.0,0.0,0.0,0.0,0.0,0.0,0.0,0.0,0.0,0.0,0.0,1.9877,1.985,2.0748,2.1897,2.3225,2.342,2.3781,2.4743,2.4543,2.4823,2.5945,2.565,2.5663,2.6279,2.7028,2.7495,2.7575,2.7655,2.7802,2.8058,2.7924,2.7965,2.8179,2.8179,2.8179,2.8179,2.8179,2.8179,2.8179,2.8179,2.8179,2.8136,2.749,2.6236,2.4648,2.3995,2.4764,2.6054,2.438,2.3738,2.3512,2.1782,2.0789,2.0269,2.0269,1.8714,1.6852,1.6852,1.5646,1.4299,1.4299,1.4373,1.4475,1.4557,1.474,1.493,1.5011,1.514,1.5276,1.5384,1.5445,1.5458,1.5566,1.556,1.5492,1.5432,1.5201,1.5085,1.5059,1.4875,1.4681,1.4633,1.4572,1.4536,1.4434,1.4566,1.4633,1.4523,1.4848,1.5038,1.5023,1.5153,1.5181,1.5181,1.5181,1.5255,1.5404,1.5411,1.5486,1.5593,1.5486,1.533,1.5181,1.514,1.5099,0.0,0.0,0.0,2.1355,0.0,0.0,0.0,0.0,1.9997,0.0,0.0,0.0,0.0,0.0,0.0,0.0,0.0,0.0,0.0,1.9492,2.0,2.0304,2.1571,2.2892,2.4115,2.318,2.3233,2.5021,2.4365,2.4499,2.5931,2.6533,2.6987,2.7309,2.7549,2.7709,2.7709,2.8031,2.8179,2.8179,2.8179,2.8179,2.8179,2.8179,2.8179,2.8179,2.8179,2.8179,2.801,2.5768,2.4776,2.4477,2.2213,2.1351,2.1437,2.1351,2.1307,2.1307,2.1221,1.9749,1.7886,1.7886,1.6334,1.4431,1.4431,1.4343,1.4299,1.4299,1.4306,1.4373,1.4613,1.4694,1.4775,1.5106,1.5296,1.5404,1.5411,1.5479,1.5587,1.5587,1.552,1.5418,1.5411,1.5282,1.5079,1.4748,1.4701,1.464,1.4536,1.4599,1.4687,1.4681,1.4687,1.4633,1.4523,1.4613,1.4814,1.501,1.5153,1.5181,1.5181,1.5181,1.5255,1.5404,1.5411,1.5486,1.5593,1.5486,1.533,1.5181,1.5085,1.4896,0.0,0.0,2.4529,2.2846,0.0,0.0,0.0,0.0,0.0,0.0,0.0,0.0,0.0,0.0,0.0,0.0,0.0,0.0,0.0,1.837,1.8878,1.9573,2.0441,0.0,2.1804,2.1683,2.2044,2.3233,2.2873,2.3014,2.3897,2.5211,2.6092,2.6426,2.7241,2.7789,2.8031,2.8138,2.8179,2.8179,2.8179,2.8179,2.8179,2.8179,2.8179,2.8179,2.8179,2.8179,2.801,2.5683,2.3781,2.217,1.9836,1.7982,1.6817,1.8366,1.8932,1.8714,1.7159,1.6122,1.5469,1.5469,1.4955,1.4299,1.4299,1.4299,1.4299,1.4299,1.4299,1.4346,1.4536,1.462,1.4748,1.4991,1.5228,1.5438,1.5492,1.5676,1.5811,1.5913,1.5805,1.5676,1.5581,1.5438,1.5262,1.5065,1.5031,1.4984,1.4835,1.4862,1.4855,1.4708,1.4835,1.4828,1.4626,1.4808,1.4916,1.5017,1.5201,1.5337,1.5337,1.5432,1.5554,1.5751,1.5751,1.573,1.5778,1.5635,1.5432,1.5174,1.493,1.4787,2.4877,2.517,0.0,2.3808,2.3126,0.0,2.1288,0.0,0.0,0.0,0.0,0.0,0.0,0.0,0.0,0.0,0.0,0.0,0.0,1.7742,1.8116,1.8811,1.9663,0.0,0.0,2.0748,2.1069,2.175,2.163,2.185,2.2546,2.4235,2.5344,2.5677,2.6881,2.7684,2.7871,2.8085,2.8179,2.8179,2.8179,2.8179,2.8179,2.8179,2.8179,2.8136,2.7321,2.6969,2.6715,2.3555,2.1351,1.9749,1.7457,1.5646,1.4476,1.599,1.6553,1.6334,1.4822,1.4299,1.4299,1.4299,1.4299,1.4299,1.4299,1.4299,1.4319,1.4428,1.438,1.4367,1.4672,1.4701,1.4762,1.5065,1.5316,1.5533,1.5683,1.5784,1.5949,1.6049,1.5922,1.5683,1.56,1.5466,1.5276,1.5126,1.5153,1.5133,1.5037,1.5064,1.4991,1.4835,1.4909,1.4889,1.4633,1.4848,1.5017,1.5017,1.5248,1.5438,1.5493,1.5539,1.5757,1.6058,1.5956,1.5983,1.609,1.5784,1.5506,1.5255,1.4957,1.4748]},{"header":{"parameterUnit":"m.s-1","parameterCategory":1,"la1":30.6,"la2":29.2853,"lo1":-89.7004,"lo2":-87.6739,"dy":0.0162,"dx":0.0183,"nx":112,"ny":82,"refTime":"2023-09-30T12:00:00:Z","depth":0,"parameterNumber":3,"parameterNumberName":"V-component_of_WINDS"},"data":[0.0,0.0,0.0,0.0,0.0,0.0,0.0,0.0,0.0,0.0,0.0,0.0,0.0,0.0,0.0,0.0,0.0,0.0,0.0,0.0,0.0,0.0,0.0,0.0,0.0,0.0,0.0,0.0,0.0,0.0,0.0,0.0,0.0,0.0,0.0,0.0,0.0,0.0,0.0,0.0,0.0,0.0,0.0,0.0,0.0,0.0,0.0,0.0,0.0,0.0,0.0,0.0,0.0,0.0,0.0,0.0,0.0,0.0,0.0,0.0,0.0,0.0,0.0,0.0,0.0,0.0,0.0,0.0,0.0,0.0,0.0,0.0,0.0,0.0,0.0,0.0,0.0,0.0,0.0,0.0,0.0,0.0,0.0,0.0,0.0,0.0,0.0,0.0,0.0,0.0,0.0,4.2249,4.3102,4.3506,4.3506,4.4121,4.324,4.0267,0.0,0.0,0.0,0.0,0.0,0.0,0.0,0.0,0.0,0.0,0.0,0.0,0.0,0.0,0.0,0.0,0.0,0.0,0.0,0.0,0.0,0.0,0.0,0.0,0.0,0.0,0.0,0.0,0.0,0.0,0.0,0.0,0.0,0.0,0.0,0.0,0.0,0.0,0.0,0.0,0.0,0.0,0.0,0.0,0.0,0.0,0.0,0.0,0.0,0.0,0.0,0.0,0.0,0.0,0.0,0.0,0.0,0.0,0.0,0.0,0.0,0.0,0.0,0.0,0.0,0.0,0.0,0.0,0.0,0.0,0.0,0.0,0.0,0.0,0.0,0.0,0.0,0.0,0.0,0.0,0.0,0.0,0.0,0.0,0.0,0.0,0.0,0.0,0.0,0.0,0.0,0.0,0.0,0.0,0.0,0.0,0.0,0.0,0.0,0.0,0.0,0.0,0.0,0.0,4.1397,4.3139,4.3433,4.3506,4.3506,4.3616,4.2873,4.103,0.0,0.0,0.0,0.0,0.0,0.0,0.0,0.0,0.0,0.0,0.0,0.0,0.0,0.0,0.0,0.0,0.0,0.0,0.0,0.0,0.0,0.0,0.0,0.0,0.0,0.0,0.0,0.0,0.0,0.0,0.0,0.0,0.0,0.0,0.0,0.0,0.0,0.0,0.0,0.0,0.0,0.0,0.0,0.0,0.0,0.0,0.0,0.0,0.0,0.0,0.0,0.0,0.0,0.0,0.0,0.0,0.0,0.0,0.0,0.0,0.0,0.0,0.0,0.0,0.0,0.0,0.0,0.0,0.0,0.0,0.0,0.0,0.0,0.0,0.0,0.0,0.0,0.0,0.0,0.0,0.0,0.0,0.0,0.0,0.0,0.0,0.0,0.0,0.0,0.0,0.0,0.0,0.0,0.0,0.0,0.0,0.0,0.0,0.0,0.0,0.0,0.0,0.0,4.1185,4.269,4.3433,4.3506,4.3506,4.3506,4.3506,4.2625,4.0598,4.1354,0.0,0.0,0.0,0.0,0.0,0.0,0.0,0.0,0.0,0.0,0.0,0.0,0.0,0.0,0.0,0.0,0.0,0.0,0.0,0.0,0.0,0.0,0.0,0.0,0.0,0.0,0.0,0.0,0.0,0.0,0.0,0.0,0.0,0.0,0.0,0.0,0.0,0.0,0.0,0.0,0.0,0.0,0.0,0.0,0.0,0.0,0.0,0.0,0.0,0.0,0.0,0.0,0.0,0.0,0.0,0.0,0.0,0.0,0.0,0.0,0.0,0.0,0.0,0.0,0.0,0.0,0.0,0.0,0.0,0.0,0.0,0.0,0.0,0.0,0.0,0.0,0.0,0.0,0.0,0.0,0.0,0.0,0.0,0.0,0.0,0.0,0.0,0.0,0.0,0.0,0.0,0.0,0.0,0.0,0.0,0.0,0.0,0.0,0.0,0.0,0.0,0.0,4.2176,4.3065,4.3469,4.3506,4.3506,4.3506,4.3322,4.2368,4.0304,4.0598,0.0,0.0,0.0,0.0,0.0,0.0,0.0,0.0,0.0,0.0,0.0,0.0,0.0,0.0,0.0,0.0,0.0,0.0,0.0,0.0,0.0,0.0,0.0,0.0,0.0,0.0,0.0,0.0,0.0,0.0,0.0,0.0,0.0,0.0,0.0,0.0,0.0,0.0,0.0,0.0,0.0,0.0,0.0,0.0,0.0,0.0,0.0,0.0,0.0,0.0,0.0,0.0,0.0,0.0,0.0,0.0,0.0,0.0,0.0,0.0,0.0,0.0,0.0,0.0,0.0,0.0,0.0,0.0,0.0,0.0,0.0,0.0,0.0,0.0,0.0,0.0,0.0,0.0,0.0,0.0,0.0,0.0,0.0,0.0,0.0,0.0,0.0,0.0,0.0,0.0,0.0,0.0,0.0,0.0,0.0,0.0,0.0,0.0,0.0,0.0,0.0,0.0,4.1213,4.1837,4.3322,4.3506,4.3506,4.3506,4.28,4.1984,4.1067,4.0377,0.0,0.0,0.0,0.0,0.0,0.0,0.0,0.0,0.0,0.0,0.0,0.0,0.0,0.0,0.0,0.0,0.0,0.0,0.0,0.0,0.0,0.0,0.0,0.0,0.0,0.0,0.0,0.0,0.0,0.0,0.0,0.0,0.0,0.0,0.0,0.0,0.0,0.0,0.0,0.0,0.0,0.0,0.0,0.0,0.0,0.0,0.0,0.0,0.0,0.0,0.0,0.0,0.0,0.0,0.0,0.0,0.0,0.0,0.0,0.0,0.0,0.0,0.0,0.0,0.0,0.0,0.0,0.0,0.0,0.0,0.0,0.0,0.0,0.0,0.0,0.0,0.0,0.0,0.0,0.0,0.0,0.0,0.0,0.0,0.0,0.0,0.0,0.0,0.0,0.0,0.0,0.0,0.0,0.0,0.0,0.0,0.0,0.0,0.0,0.0,0.0,0.0,4.1992,4.2837,0.0,4.3506,4.3506,4.3506,4.3212,4.2506,4.1168,0.0,0.0,0.0,0.0,0.0,0.0,0.0,0.0,0.0,0.0,0.0,0.0,0.0,0.0,0.0,0.0,0.0,0.0,0.0,0.0,0.0,0.0,0.0,0.0,0.0,0.0,0.0,0.0,0.0,0.0,0.0,0.0,0.0,0.0,0.0,0.0,0.0,0.0,0.0,0.0,0.0,0.0,0.0,0.0,0.0,0.0,0.0,0.0,0.0,0.0,0.0,0.0,0.0,0.0,0.0,0.0,0.0,0.0,0.0,0.0,0.0,0.0,0.0,0.0,0.0,0.0,0.0,0.0,0.0,0.0,0.0,0.0,0.0,0.0,0.0,0.0,0.0,0.0,0.0,0.0,0.0,0.0,0.0,0.0,0.0,0.0,0.0,0.0,0.0,0.0,0.0,0.0,0.0,0.0,0.0,0.0,0.0,0.0,0.0,0.0,0.0,0.0,4.1095,4.2506,4.3506,0.0,4.3506,4.3506,4.3506,4.3029,4.2176,4.081,0.0,0.0,0.0,0.0,0.0,0.0,0.0,0.0,0.0,0.0,0.0,0.0,0.0,0.0,0.0,0.0,0.0,0.0,0.0,0.0,0.0,0.0,0.0,0.0,0.0,0.0,0.0,0.0,0.0,0.0,0.0,0.0,0.0,0.0,0.0,0.0,0.0,0.0,0.0,0.0,0.0,0.0,0.0,0.0,0.0,0.0,0.0,0.0,0.0,0.0,0.0,0.0,0.0,0.0,0.0,0.0,0.0,0.0,0.0,0.0,0.0,0.0,0.0,0.0,0.0,0.0,0.0,0.0,0.0,0.0,0.0,0.0,0.0,0.0,0.0,0.0,0.0,0.0,0.0,0.0,0.0,0.0,0.0,0.0,0.0,0.0,0.0,0.0,0.0,0.0,0.0,0.0,0.0,0.0,0.0,0.0,0.0,0.0,0.0,0.0,0.0,0.0,4.1095,4.2506,4.3506,4.3506,4.3506,4.3506,4.3506,4.2029,4.0773,0.0,0.0,0.0,0.0,0.0,0.0,0.0,0.0,0.0,0.0,0.0,0.0,0.0,0.0,0.0,0.0,0.0,0.0,0.0,0.0,0.0,0.0,0.0,0.0,0.0,0.0,0.0,0.0,0.0,0.0,0.0,0.0,0.0,0.0,0.0,0.0,0.0,0.0,0.0,0.0,0.0,0.0,0.0,0.0,0.0,0.0,0.0,0.0,0.0,0.0,0.0,0.0,0.0,0.0,0.0,0.0,0.0,0.0,0.0,0.0,0.0,0.0,0.0,0.0,0.0,0.0,0.0,0.0,0.0,0.0,0.0,0.0,0.0,0.0,0.0,0.0,0.0,0.0,0.0,0.0,0.0,0.0,0.0,0.0,0.0,0.0,0.0,0.0,0.0,0.0,0.0,0.0,0.0,0.0,0.0,0.0,0.0,0.0,0.0,0.0,0.0,0.0,0.0,4.1095,4.2506,4.3506,4.3506,4.3506,4.3506,4.3506,4.2543,4.1103,3.9166,0.0,0.0,0.0,0.0,0.0,0.0,0.0,0.0,0.0,0.0,0.0,0.0,0.0,0.0,0.0,0.0,0.0,0.0,0.0,0.0,0.0,0.0,0.0,0.0,0.0,0.0,0.0,0.0,0.0,0.0,0.0,0.0,0.0,0.0,0.0,0.0,0.0,0.0,0.0,0.0,0.0,0.0,0.0,0.0,0.0,0.0,0.0,0.0,0.0,0.0,0.0,0.0,0.0,0.0,0.0,0.0,0.0,0.0,0.0,0.0,0.0,0.0,0.0,0.0,0.0,0.0,0.0,0.0,0.0,0.0,0.0,0.0,0.0,0.0,0.0,0.0,0.0,0.0,0.0,0.0,0.0,0.0,0.0,0.0,0.0,0.0,0.0,0.0,0.0,0.0,0.0,0.0,0.0,0.0,0.0,0.0,0.0,0.0,0.0,0.0,0.0,0.0,4.1095,4.2506,4.3506,4.3506,4.3506,4.3506,4.3506,4.247,4.1075,3.9276,0.0,0.0,0.0,0.0,0.0,0.0,0.0,0.0,0.0,0.0,0.0,0.0,0.0,0.0,0.0,0.0,0.0,0.0,0.0,0.0,0.0,0.0,0.0,0.0,0.0,0.0,0.0,0.0,0.0,0.0,0.0,0.0,0.0,0.0,0.0,0.0,0.0,0.0,0.0,0.0,0.0,0.0,0.0,0.0,0.0,0.0,0.0,0.0,0.0,0.0,0.0,0.0,0.0,0.0,0.0,0.0,0.0,0.0,0.0,0.0,0.0,0.0,0.0,0.0,0.0,0.0,0.0,0.0,0.0,0.0,0.0,0.0,0.0,0.0,0.0,0.0,0.0,0.0,0.0,0.0,0.0,0.0,0.0,0.0,0.0,0.0,0.0,0.0,0.0,0.0,0.0,0.0,0.0,0.0,0.0,0.0,0.0,0.0,0.0,0.0,0.0,0.0,4.1095,4.2506,4.3506,4.3506,4.3506,4.3506,4.3506,4.2103,4.0846,3.9945,0.0,0.0,0.0,0.0,0.0,0.0,0.0,0.0,0.0,0.0,0.0,0.0,0.0,0.0,0.0,0.0,0.0,0.0,0.0,0.0,0.0,0.0,0.0,0.0,0.0,0.0,0.0,0.0,0.0,0.0,0.0,0.0,0.0,0.0,0.0,0.0,0.0,0.0,0.0,0.0,0.0,0.0,0.0,0.0,0.0,0.0,0.0,0.0,0.0,0.0,0.0,0.0,0.0,0.0,0.0,0.0,0.0,0.0,0.0,0.0,4.3864,0.0,0.0,0.0,0.0,0.0,0.0,0.0,0.0,0.0,0.0,0.0,0.0,0.0,0.0,0.0,0.0,0.0,0.0,0.0,0.0,0.0,0.0,0.0,0.0,0.0,0.0,0.0,0.0,0.0,0.0,0.0,0.0,0.0,0.0,0.0,0.0,0.0,0.0,0.0,0.0,0.0,4.1095,4.2506,4.3506,4.3506,4.3506,4.3506,4.3506,4.2616,4.1442,3.9981,3.8836,0.0,0.0,0.0,0.0,0.0,0.0,0.0,0.0,0.0,0.0,0.0,0.0,0.0,0.0,0.0,0.0,0.0,0.0,0.0,0.0,0.0,0.0,0.0,0.0,0.0,0.0,0.0,0.0,0.0,0.0,0.0,0.0,0.0,0.0,0.0,0.0,0.0,0.0,0.0,0.0,0.0,0.0,0.0,0.0,0.0,0.0,0.0,0.0,0.0,0.0,0.0,0.0,0.0,0.0,0.0,0.0,0.0,0.0,0.0,0.0,4.3791,0.0,0.0,0.0,0.0,0.0,0.0,0.0,0.0,0.0,0.0,0.0,0.0,0.0,0.0,0.0,0.0,0.0,0.0,0.0,0.0,0.0,0.0,0.0,0.0,0.0,0.0,0.0,0.0,0.0,0.0,0.0,0.0,0.0,0.0,0.0,0.0,0.0,0.0,0.0,0.0,4.2213,4.2992,4.3653,4.4048,4.3726,4.3506,4.3506,4.2772,4.1956,4.112,3.957,0.0,0.0,0.0,0.0,0.0,0.0,0.0,0.0,0.0,0.0,0.0,0.0,0.0,0.0,0.0,0.0,0.0,0.0,0.0,0.0,0.0,0.0,0.0,0.0,0.0,0.0,0.0,0.0,0.0,0.0,0.0,0.0,0.0,0.0,0.0,0.0,0.0,0.0,0.0,0.0,0.0,0.0,0.0,0.0,0.0,0.0,0.0,0.0,0.0,0.0,0.0,0.0,0.0,5.1927,5.1654,5.1547,5.1547,5.0774,4.9373,4.8166,4.7163,4.6324,4.5946,0.0,0.0,0.0,0.0,0.0,0.0,0.0,0.0,0.0,0.0,0.0,0.0,0.0,0.0,0.0,0.0,0.0,0.0,0.0,0.0,0.0,0.0,0.0,0.0,4.3938,4.3012,4.2645,0.0,0.0,0.0,0.0,0.0,0.0,0.0,0.0,0.0,0.0,0.0,4.3029,4.3433,4.3975,4.4626,4.3975,4.3506,4.3506,4.2873,4.2506,4.2506,4.0524,3.9496,0.0,0.0,0.0,0.0,0.0,0.0,0.0,0.0,0.0,0.0,0.0,0.0,0.0,0.0,0.0,0.0,0.0,0.0,0.0,0.0,0.0,0.0,0.0,0.0,0.0,0.0,0.0,0.0,0.0,0.0,0.0,0.0,4.3932,4.6158,0.0,0.0,0.0,0.0,0.0,0.0,0.0,0.0,0.0,0.0,0.0,0.0,0.0,5.1091,5.202,5.4679,5.5955,5.5862,5.8575,5.9486,5.8814,5.8814,5.8486,5.7778,5.5559,0.0,4.8242,4.949,0.0,0.0,0.0,0.0,0.0,0.0,0.0,0.0,0.0,0.0,0.0,0.0,0.0,0.0,0.0,0.0,0.0,0.0,0.0,0.0,0.0,0.0,5.0592,4.9994,4.8113,4.6828,0.0,4.3947,4.0055,4.0516,3.9672,0.0,0.0,0.0,0.0,0.0,0.0,0.0,4.158,4.3269,4.459,4.47,4.3975,4.3506,4.3506,4.3396,4.3322,4.3322,4.2396,4.1258,3.9945,4.1148,0.0,0.0,0.0,0.0,0.0,0.0,0.0,0.0,0.0,0.0,0.0,0.0,0.0,0.0,0.0,0.0,0.0,0.0,0.0,0.0,0.0,0.0,0.0,0.0,0.0,0.0,0.0,0.0,0.0,4.574,4.7591,4.824,4.874,4.7975,0.0,0.0,0.0,0.0,0.0,0.0,0.0,0.0,0.0,5.3904,5.5864,5.6986,5.7188,6.0591,6.1842,6.1096,6.3014,6.323,6.1965,6.2969,6.2779,6.16,6.1023,5.903,5.5925,5.3352,5.206,5.171,0.0,0.0,0.0,0.0,5.0724,5.1357,4.9118,5.025,5.2459,5.1512,0.0,0.0,0.0,0.0,0.0,0.0,0.0,0.0,0.0,0.0,5.2711,5.2784,5.2344,5.2087,5.2795,4.894,4.4901,0.0,4.2204,4.0928,3.9496,0.0,0.0,0.0,0.0,4.4259,4.4434,4.4993,4.5369,4.5369,4.4635,4.3975,4.3543,4.3506,4.3506,4.3506,4.3176,4.2662,4.1964,4.2588,4.2247,0.0,0.0,0.0,0.0,0.0,0.0,0.0,0.0,0.0,0.0,0.0,0.0,0.0,0.0,0.0,0.0,0.0,0.0,0.0,0.0,0.0,0.0,0.0,0.0,0.0,0.0,0.0,0.0,5.0245,5.1823,5.1399,5.3054,5.271,0.0,0.0,0.0,0.0,0.0,0.0,5.5201,5.6489,5.7915,5.9483,6.1874,6.3241,6.3405,6.5978,6.6934,6.6205,6.6859,6.6397,6.4968,6.6282,6.6051,6.4615,6.514,6.4525,6.2772,5.7475,5.5289,5.5327,5.5504,5.5364,5.5012,5.4967,5.4913,5.4664,5.3379,5.4071,5.5372,5.4188,5.4029,5.3996,5.2403,0.0,0.0,0.0,0.0,5.2222,5.2768,5.3508,5.4315,5.5133,5.5794,5.6172,5.5952,5.3235,4.9968,0.0,4.5223,4.3469,4.1507,0.0,0.0,0.0,0.0,4.6168,4.6718,4.6608,4.6434,4.625,4.5287,4.4443,4.3873,4.3616,4.3506,4.3506,4.3506,4.3506,4.3506,4.358,4.3426,4.2973,0.0,0.0,0.0,0.0,0.0,0.0,0.0,0.0,0.0,0.0,0.0,0.0,0.0,0.0,0.0,0.0,0.0,0.0,0.0,0.0,0.0,0.0,0.0,0.0,0.0,0.0,0.0,0.0,0.0,5.6516,6.0935,0.0,0.0,0.0,0.0,5.5013,5.6506,5.8715,6.1497,6.2911,6.525,6.8825,6.8772,6.9365,7.0744,7.0208,7.0123,7.0591,7.0629,7.0206,6.9398,6.9475,6.9007,6.8102,6.7653,6.693,6.5801,6.1991,6.0444,6.0169,5.7841,5.7379,5.7664,5.4223,5.4836,5.7038,5.4392,5.5496,5.8136,5.8409,5.7618,5.6066,5.2941,5.249,0.0,0.0,5.1283,5.3917,5.2428,5.4326,5.6811,5.7629,5.785,5.7666,5.6884,5.539,5.3665,0.0,4.8462,4.6214,4.7562,0.0,4.7425,4.5883,4.7765,4.8536,4.625,4.7278,4.7893,4.7113,4.5654,4.4663,4.4626,4.3938,4.3506,4.3506,4.3506,4.3506,4.3506,4.3831,4.3826,4.3475,4.2581,0.0,0.0,0.0,0.0,0.0,0.0,0.0,0.0,0.0,0.0,0.0,0.0,0.0,0.0,0.0,0.0,0.0,0.0,0.0,0.0,0.0,0.0,0.0,0.0,0.0,0.0,0.0,0.0,6.3134,6.5266,0.0,6.2885,6.2831,6.2503,6.1364,6.4316,6.6699,6.7963,6.9449,7.1115,7.2945,7.2893,7.3005,7.3348,7.3059,7.2418,7.1408,7.1949,7.1199,6.9404,7.0486,7.022,6.893,6.9295,6.8981,6.8073,6.6753,6.5147,6.3408,6.256,6.261,6.3045,6.1709,6.1966,6.2732,6.1392,6.1658,6.258,6.2354,6.0689,5.8667,5.8042,5.7131,5.6161,5.5489,5.637,5.7471,5.7409,5.8253,5.9208,5.9501,5.9159,5.8682,5.8425,5.7068,5.5783,5.5207,5.183,4.9077,4.9123,4.9123,4.8563,4.6938,4.8343,4.928,4.8389,4.8793,4.86,4.7259,4.6599,4.5838,4.4773,4.4443,4.4132,4.3831,4.381,4.3935,4.4205,4.4311,4.4311,4.422,4.3884,4.307,0.0,0.0,0.0,0.0,0.0,0.0,0.0,0.0,0.0,0.0,0.0,0.0,0.0,0.0,0.0,0.0,0.0,0.0,0.0,0.0,0.0,0.0,0.0,0.0,0.0,0.0,6.5899,6.7889,7.0055,7.0753,6.9109,6.8876,6.8619,6.8096,7.0637,7.2401,7.2877,7.3927,7.4882,7.5674,7.5454,7.5328,7.5349,7.5064,7.4424,7.3403,7.3942,7.3177,7.132,7.2143,7.1616,7.0066,7.076,7.0559,6.9813,7.0172,6.9332,6.7723,6.7059,6.6988,6.7323,6.7506,6.759,6.746,6.6598,6.604,6.5624,6.4993,6.343,6.1729,6.1678,6.0688,5.9612,5.96,5.96,5.9747,6.0272,6.0419,6.0419,6.0419,6.0003,5.96,5.96,5.8132,5.6957,5.7508,5.4803,5.2087,5.0996,5.0592,4.9931,4.8553,4.882,4.916,4.916,4.9427,4.8976,4.7259,4.7333,4.6865,4.525,4.4599,4.42,4.4004,4.3737,4.3883,4.4561,4.472,4.4726,4.4612,4.4146,4.3276,4.2042,0.0,0.0,0.0,0.0,0.0,0.0,0.0,0.0,0.0,0.0,0.0,0.0,0.0,0.0,0.0,0.0,0.0,0.0,0.0,0.0,0.0,0.0,0.0,5.9056,6.7519,7.2983,7.0879,7.5654,7.7954,7.4999,7.5395,7.5634,7.5146,7.505,7.538,7.613,7.6166,7.6497,7.7252,7.6533,7.6361,7.6973,7.6218,7.6144,7.6659,7.6659,7.6233,7.5344,7.4587,7.3344,7.1794,7.2084,7.1752,7.1107,7.2153,7.289,7.3143,7.0998,7.0153,7.0268,7.0752,7.0895,7.0717,6.9278,6.8135,6.7163,6.6356,6.5779,6.5068,6.3417,6.2903,6.2536,6.0994,6.0554,6.0554,6.0554,6.0517,6.0529,6.0529,6.0493,6.0456,6.0456,5.8572,5.7324,5.8902,5.7299,5.5181,5.3581,5.2637,5.1803,5.1022,4.9507,0.0,4.8406,4.916,4.905,4.7443,4.7893,4.7672,4.614,4.4506,4.3718,4.402,4.3297,4.3416,4.4631,4.4981,4.5036,4.4726,4.3335,4.3192,4.4393,0.0,0.0,0.0,0.0,0.0,0.0,0.0,0.0,0.0,0.0,0.0,0.0,0.0,0.0,0.0,0.0,0.0,0.0,0.0,0.0,0.0,6.551,6.9543,6.8988,7.2299,7.6135,7.9787,8.1226,8.1899,8.168,8.0356,7.9489,7.9323,7.8772,7.8295,7.7928,7.7289,7.6812,7.646,7.624,7.6198,7.6354,7.6722,7.6677,7.6263,7.6263,7.5842,7.5014,7.4806,7.446,7.4039,7.4103,7.3981,7.3819,7.4111,7.4323,7.425,7.2297,7.1777,7.2071,7.1645,7.1239,7.0686,6.9128,6.8885,6.9168,6.8357,6.7613,6.6856,6.5815,6.5068,6.4517,6.4077,6.393,6.393,6.393,6.3503,6.3062,6.3062,6.2144,6.1263,6.1263,5.982,5.8682,5.9111,5.8168,5.7005,5.6003,5.4656,5.3665,5.3445,5.2517,0.0,5.1059,5.1179,5.1179,5.0692,4.926,4.8379,4.8573,4.6231,4.4892,4.5275,4.4764,4.5015,4.6217,4.6369,4.6642,4.7113,4.6182,4.5864,0.0,0.0,0.0,0.0,0.0,0.0,0.0,0.0,0.0,0.0,0.0,0.0,0.0,0.0,0.0,0.0,0.0,0.0,0.0,0.0,0.0,0.0,7.192,7.6777,7.8502,7.9477,8.1204,8.437,8.4754,8.479,8.4969,8.3176,8.1986,8.1986,8.1269,8.0624,8.0131,7.9323,7.8463,7.7671,7.7635,7.7488,7.7157,7.7635,7.7635,7.7157,7.679,7.6371,7.5894,7.5564,7.5197,7.4903,7.527,7.5197,7.494,7.5637,7.5894,0.0,0.0,0.0,0.0,0.0,7.2938,7.2212,7.0597,7.0308,7.0477,6.9669,6.8862,6.8054,6.7247,6.5962,6.4714,6.4371,6.3783,6.338,6.4077,6.3906,6.3649,6.4029,6.3368,6.2548,6.2181,6.0297,5.8902,5.9563,5.8253,0.0,5.7262,5.5684,5.4179,5.3482,5.2417,5.1499,5.1032,5.1289,5.1353,5.0996,5.0288,4.9715,4.9344,4.7416,0.0,0.0,0.0,4.6176,4.7342,4.7389,0.0,0.0,0.0,4.767,4.8186,0.0,0.0,0.0,4.7581,4.6816,0.0,0.0,0.0,0.0,0.0,0.0,0.0,0.0,0.0,0.0,0.0,0.0,0.0,0.0,0.0,0.0,7.737,8.1781,8.6733,8.7267,8.6926,8.6272,8.6848,8.6995,8.6261,8.4756,8.3821,8.3821,8.2994,8.2443,8.2333,0.0,0.0,0.0,0.0,7.9596,7.8883,7.8883,7.8883,7.8846,7.7986,7.7582,7.7546,7.6827,7.613,7.5491,7.6203,7.6056,7.5417,7.6848,7.7399,7.7203,7.6227,7.578,7.5636,7.5189,7.4821,7.4268,7.2546,0.0,0.0,7.0513,6.9743,6.9009,6.8214,6.6416,6.4457,6.371,6.2389,6.1557,6.2976,6.3306,6.338,6.4053,6.4176,6.387,6.2976,6.0493,5.8804,6.0126,5.8033,5.6429,5.7776,5.6161,5.4179,5.2758,5.1253,5.0225,5.0151,5.0839,5.1022,5.0141,0.0,0.0,4.9539,4.8447,4.7935,4.7949,4.7346,4.7535,4.8615,4.8702,4.8452,4.7838,4.8457,4.9368,5.0494,5.1292,5.2648,5.4418,5.0943,4.9872,0.0,0.0,0.0,0.0,0.0,0.0,0.0,0.0,0.0,0.0,0.0,0.0,0.0,0.0,0.0,7.7768,8.2458,8.6527,8.9491,8.9872,8.9539,8.8793,8.8849,8.8886,8.8702,8.7234,8.628,8.628,8.4976,8.3838,8.3197,8.2406,8.1599,8.0791,8.0755,8.0681,8.0534,8.0534,8.0534,8.0534,0.0,0.0,7.9302,7.9155,7.9008,7.8862,7.9008,7.8626,7.7928,7.8222,7.7913,7.7231,7.6368,7.5654,7.4822,7.2826,7.2872,7.357,7.1287,7.1301,7.2151,7.1307,7.0977,7.0683,6.9889,6.8862,0.0,6.7747,6.7026,6.6379,6.6673,6.6256,6.5668,6.5191,6.4567,6.387,6.2976,6.1814,6.0786,6.0456,5.938,5.8389,5.807,5.7079,5.6223,5.5941,5.506,5.4226,5.3555,5.4179,5.4373,5.3555,5.2574,5.2091,5.2367,5.0388,4.9408,5.0074,5.0556,5.1229,5.2197,5.2518,5.294,5.3404,5.3196,5.321,5.3465,5.4319,5.5115,5.5771,5.4009,5.3203,0.0,0.0,0.0,0.0,0.0,0.0,0.0,0.0,0.0,0.0,0.0,6.7745,0.0,0.0,7.796,8.2639,8.5747,8.8426,9.0849,9.1216,9.0922,9.0097,8.9987,8.984,8.9436,8.8666,8.8189,8.8189,8.7455,8.6831,8.6427,8.5637,8.4829,8.4022,8.4005,8.3618,8.281,8.281,8.259,8.217,8.1379,8.0991,8.0991,8.0991,8.0991,8.0991,8.0571,8.0167,7.9727,7.8919,7.8112,7.7252,7.6848,7.6445,7.5894,7.428,7.4221,7.4588,7.2606,7.2422,7.2973,7.2151,7.1637,7.1233,7.083,6.9596,6.8201,6.7797,6.7136,6.6512,6.6512,6.6512,6.6402,6.5999,6.5301,6.4457,6.3649,6.2475,6.1374,6.0566,5.9747,5.8939,5.8143,5.7666,5.7262,5.6847,5.6455,5.5904,5.5097,5.5365,5.5438,5.5034,5.43,5.3881,5.4092,5.275,5.2083,5.249,5.2892,5.3288,5.3751,5.3938,5.4443,5.5292,5.5489,5.5679,5.5854,5.6743,5.7132,5.7085,5.6446,5.6064,0.0,0.0,0.0,0.0,0.0,0.0,0.0,0.0,6.6878,6.9891,7.1664,7.3896,7.7932,7.991,8.2517,8.7381,8.8867,9.0041,9.2024,9.2281,9.1987,9.1179,9.0959,9.0592,8.9913,8.973,8.962,8.962,8.9473,8.94,8.94,8.8793,8.8133,8.7491,8.7455,8.6831,8.5563,8.538,8.4903,8.4078,8.3287,8.281,8.2663,8.2663,8.2663,8.259,8.1636,8.1232,8.1122,7.9323,7.8185,7.7546,7.7362,7.7289,7.7215,7.6387,7.6093,7.5873,7.4441,7.3817,7.3611,7.2936,7.2188,7.1527,7.1527,7.0073,6.8238,6.7614,6.6733,6.5985,6.5985,6.6366,6.6696,6.6549,6.5999,6.5264,6.4323,6.3038,6.1777,6.0823,6.0114,5.9416,5.8584,5.8474,5.8143,5.7178,5.7031,5.6748,5.5952,5.5989,5.5952,5.5622,5.5732,5.5681,5.5282,5.4881,5.4702,5.4785,5.4793,5.4869,5.5028,5.4936,5.5315,5.6206,5.6803,5.7239,5.7505,5.839,5.8502,5.7997,5.8327,5.829,6.0,5.9562,6.1126,6.4215,6.6085,6.8973,0.0,0.0,7.8456,8.1918,8.3333,8.4786,8.7435,8.8629,8.9968,9.206,9.3088,9.3712,9.3969,9.4006,9.3712,9.2941,9.2134,9.162,9.1546,9.0886,9.0464,9.0464,8.9803,8.94,8.94,8.9326,8.9216,8.9143,8.9143,8.9033,8.8849,8.8169,8.7399,8.6574,8.5783,8.5013,8.4315,8.4315,8.4315,8.4242,8.2737,8.2076,8.1893,7.9543,7.8552,7.8369,7.7582,7.7289,7.7215,7.6387,7.6093,7.5983,7.5102,7.4294,7.367,7.3597,7.301,7.2386,7.2386,7.1674,7.0866,7.0793,6.9655,6.8495,6.8495,6.8017,6.7407,6.6659,6.6439,6.5962,6.4433,6.3956,6.3368,6.1777,6.1374,6.108,6.0272,6.0126,5.9612,5.8107,5.7886,5.7593,5.6785,5.7299,5.72,5.5768,5.6235,5.6481,5.6082,5.6021,5.6164,5.658,5.6606,5.6916,5.7649,5.7267,5.7449,5.8346,5.8047,5.7898,5.7941,5.875,5.8752,5.8033,5.9465,5.9355,6.4588,6.4981,6.6182,6.9363,7.2753,7.6189,7.9564,8.1031,8.2771,8.6589,8.8023,8.9344,9.1803,9.1767,9.1877,0.0,9.3272,9.3253,9.4153,9.3896,9.3308,9.2501,9.162,9.1106,9.1106,9.1216,9.1106,9.0629,9.0739,9.0812,9.0812,9.0812,9.0812,9.0812,9.0812,9.0592,9.0097,8.9784,8.9197,8.8372,8.8042,8.7711,8.7381,8.6921,8.6187,8.5233,8.4095,8.3067,8.2039,8.0094,7.9029,7.8516,7.7656,7.7289,7.7252,7.6922,7.6812,7.6665,7.5873,7.5395,7.4955,7.4015,7.345,7.3193,7.3193,7.2642,7.2004,7.2004,7.149,7.066,6.9252,6.9009,6.8802,6.7517,6.6843,6.6329,6.5632,6.4763,6.3723,6.2548,6.2291,6.1887,6.0639,6.0786,6.0713,5.9575,5.9391,5.9281,5.8951,5.9208,5.8951,5.7813,5.7985,5.793,5.729,5.7237,5.7323,5.7516,5.7526,5.7685,5.8029,5.7846,5.8124,5.8984,5.8343,5.8474,5.9391,5.9269,5.9269,5.9428,6.0089,6.0052,6.6276,6.8138,7.0128,7.3338,7.7979,8.2044,8.3088,8.4555,8.6721,9.0354,9.1528,9.2574,9.4593,9.4006,9.3621,9.4777,9.3969,9.3547,9.4483,9.4116,9.3198,9.173,9.0776,9.0097,8.9657,9.0922,9.1657,9.1326,9.2024,9.2501,9.2501,9.2281,9.217,9.217,9.1913,9.151,9.0959,9.0922,9.0537,8.973,8.973,8.962,8.9363,8.8573,8.7545,8.6371,8.5123,8.3948,8.27,8.0661,7.9449,7.8809,7.7729,7.7289,7.7289,7.7289,7.7289,7.7215,7.6628,7.6276,7.5909,7.4735,7.4037,7.3722,7.3722,7.312,7.2496,7.2496,7.2349,7.1762,7.0022,6.9669,6.9486,6.8325,6.743,6.6769,6.6549,6.5595,6.4494,6.3673,6.349,6.3123,6.1949,6.2218,6.2438,6.1838,6.1728,6.1398,6.0529,6.0419,6.0187,5.96,5.9526,5.9196,5.84,5.8547,5.8584,5.8327,5.8547,5.8547,5.8327,5.8547,5.8841,5.9184,5.8841,5.9245,6.0419,6.004,6.004,6.0419,6.086,6.0921,6.3403,6.6591,7.0622,7.4963,8.0273,8.5286,8.8409,9.0408,9.2244,9.4794,9.5308,9.5602,9.6465,9.6575,9.6575,9.6612,9.6575,9.6318,9.5565,9.5418,9.4244,9.1033,8.9913,8.8812,0.0,8.9968,9.2134,9.2978,9.3749,9.4226,9.4226,9.3492,9.3051,9.3051,9.2244,9.1803,9.1767,9.1767,9.1363,9.0537,9.0537,9.0134,8.9363,8.8573,8.8169,8.7986,8.5637,8.4572,8.4278,8.1101,7.9779,7.9596,7.7949,7.7289,7.7289,7.7289,7.7289,7.7289,7.7289,7.6738,7.6093,7.6056,7.4955,7.3722,7.3722,7.312,7.2496,7.2496,7.1931,7.1307,7.1233,7.0096,6.8921,6.8898,6.8238,6.7444,6.6659,6.6476,6.6182,6.5362,6.5215,6.5215,6.5141,6.5178,6.5178,6.5141,6.5141,6.4004,6.0823,6.0419,6.037,6.0382,6.037,6.004,5.9233,5.9893,6.0003,5.9196,5.9893,5.9967,5.9196,5.9893,5.9967,5.9196,5.993,6.0346,6.0419,6.1153,6.1153,6.0456,6.1985,6.2316,6.5952,7.083,7.6678,8.137,8.5563,8.9307,9.2024,9.3051,9.3712,9.452,9.2959,9.1528,9.1822,9.1436,9.1253,9.1748,9.3235,9.441,9.4666,9.4263,9.3088,9.0868,9.0354,0.0,0.0,0.0,0.0,9.1363,9.2721,9.3749,9.4263,9.4042,9.3896,9.3896,9.3088,9.2648,9.2648,9.2097,9.1657,9.14,9.14,9.0702,8.94,8.9106,8.8409,8.7325,8.5416,8.4609,8.4389,8.1709,8.0277,7.9706,7.8589,7.7803,7.7289,7.7289,7.7289,7.7289,7.7289,7.7142,7.6812,7.6276,7.5726,7.5285,7.5285,7.4735,7.4096,7.4096,7.3523,7.2642,7.1564,7.0903,7.0353,6.9816,6.9486,6.9082,6.8274,6.8091,6.7687,6.6366,6.6512,6.6549,6.5472,6.5729,6.5925,6.5362,6.4861,6.409,6.3001,6.2365,6.1802,6.1263,6.119,6.086,6.004,6.0224,6.026,6.0003,6.026,6.026,6.0003,6.0272,6.0529,6.0786,6.0529,6.0921,6.1985,6.1741,6.1741,6.2022,6.2536,6.2646,7.1041,7.6276,8.1893,8.6792,8.9968,9.2427,9.4299,9.452,9.4299,9.4299,9.1693,8.9326,8.9033,8.7839,8.7288,8.8372,8.9877,9.151,9.3161,9.2721,9.1803,9.0739,9.0078,8.9657,0.0,0.0,0.0,9.1326,9.2758,9.3896,9.4703,9.4446,9.441,9.4703,9.3969,9.3382,9.3088,9.2537,9.2097,9.1803,9.1803,9.1106,8.9803,8.9546,8.8519,8.6904,8.5306,8.4462,8.4022,8.1893,8.0534,7.9743,7.9229,7.8332,7.7362,7.7656,7.7582,7.7289,7.7289,7.7289,7.7215,7.6702,7.635,7.6093,7.6093,7.5542,7.483,7.4536,7.4111,7.3377,7.2078,7.1527,7.116,7.066,7.0293,6.9963,6.9449,6.9339,6.9009,6.7981,6.8214,6.8128,6.6793,6.6769,6.6733,6.6256,6.5485,6.4861,6.4567,6.3796,6.3062,6.2561,6.2218,6.1704,6.0896,6.108,6.1141,6.086,6.1104,6.1141,6.086,6.1104,6.1374,6.1606,6.1374,6.1765,6.2793,6.2291,6.2291,6.2793,6.2793,6.2793,7.8017,8.2406,8.6151,9.0904,9.3253,9.4556,9.5308,9.485,9.4153,9.3896,9.1216,8.8592,0.0,0.0,8.4829,8.65,8.6978,8.828,9.1473,9.1326,9.0812,0.0,0.0,0.0,0.0,0.0,0.0,9.2978,9.3896,9.4666,9.5528,9.485,9.4777,9.5528,9.4777,9.3969,9.3235,9.3161,9.2648,9.1803,9.1803,9.1363,9.0592,8.9767,8.8556,8.6978,8.538,8.4205,8.3344,8.1766,8.0608,7.9853,7.9816,7.8809,7.7472,7.8259,7.7986,7.7289,7.7289,7.7289,7.7289,7.7289,7.6775,7.6166,7.6166,7.5652,7.4867,7.4037,7.378,7.356,7.2789,7.1967,7.1344,7.1344,7.077,7.022,7.0183,7.0183,7.0183,7.011,7.011,6.9853,6.9032,6.8274,6.7737,6.77,6.704,6.6256,6.5472,6.464,6.4176,6.4176,6.3392,6.2536,6.179,6.2389,6.2462,6.1704,6.2401,6.2462,6.1704,6.2389,6.2426,6.1679,6.2389,6.2793,6.2793,6.2793,6.2793,6.2793,6.2866,6.2866,8.0901,8.6151,9.151,9.3969,9.4887,9.5254,9.5455,9.441,9.2354,8.872,8.4903,8.1232,7.8002,7.8883,8.0865,8.3067,8.6958,0.0,9.3272,9.4006,0.0,9.2611,0.0,9.3896,9.2317,9.3033,0.0,0.0,9.4538,9.4923,9.6318,9.6208,9.6171,9.6392,9.5621,9.5107,9.4868,9.3712,9.2648,9.1803,9.1803,9.1363,9.0592,8.9767,8.8849,8.7802,8.6187,8.5049,8.4242,8.3197,8.195,8.0645,8.0036,7.9192,7.8222,7.7803,7.7509,7.7289,7.7289,7.7289,7.7289,7.7289,7.7179,7.6995,7.6995,7.6848,7.6518,7.5726,7.5065,7.4404,7.3597,7.2789,7.2188,7.2188,7.2055,7.1725,7.1123,7.1468,7.1541,7.033,7.011,6.9853,6.9032,6.8752,6.8385,6.7811,6.7517,6.7113,6.6292,6.5485,6.5007,6.5007,6.4273,6.3699,6.3478,6.3062,6.2719,6.2499,6.2683,6.2719,6.2499,6.2683,6.2683,6.2499,6.2683,6.2793,6.2793,6.2793,6.2793,6.2829,6.3466,6.3759,8.5378,8.9096,9.2931,9.4726,9.4919,9.4163,9.2207,9.0812,8.8206,8.2223,7.8662,7.5689,7.2679,7.4478,7.7341,8.0167,0.0,0.0,9.3272,9.4153,9.452,0.0,9.5584,0.0,9.5254,9.5694,9.6318,0.0,9.5694,9.5547,9.7126,9.6906,9.6869,9.7199,9.6098,9.5161,9.4427,9.3161,9.2281,9.1803,9.1803,9.1363,9.0592,8.9767,8.8776,8.7619,0.0,8.5343,8.4572,8.4115,8.3197,8.1986,8.1562,8.0461,7.9066,7.8589,7.7913,7.7289,7.7289,7.7289,7.7289,7.7289,7.7289,7.7289,7.7289,7.7289,7.7142,7.635,7.5763,7.5234,7.4441,7.3891,7.356,7.356,7.356,7.3435,7.2995,7.3215,7.3193,7.1908,7.1394,7.0917,7.0096,6.9669,6.9265,6.8839,6.8471,6.8054,6.7614,6.6549,6.5852,6.5852,6.4787,6.4249,6.4604,6.349,6.2976,6.3356,6.3013,6.2976,6.3356,6.3392,6.3539,6.3894,6.3894,6.3894,6.3894,6.3894,6.371,6.3392,6.4237,6.442,8.9856,9.1279,9.2509,9.4223,9.4081,9.2421,8.8141,8.604,8.2994,7.5858,7.2973,7.1248,6.9743,7.1688,7.4771,7.8479,8.303,8.7839,9.2721,9.3602,9.452,9.6612,9.6539,9.6795,9.808,9.7603,9.7787,9.9328,9.7383,9.6649,9.7843,9.7236,9.7126,9.7713,9.6282,9.4758,9.3272,9.2391,9.1913,9.1803,9.1803,9.1436,9.0739,8.9913,8.8739,8.7271,8.6481,8.56,8.4756,8.4756,8.4242,8.3381,8.3271,8.1893,7.9926,7.9706,7.8736,7.7472,7.7362,7.7289,7.7289,7.7289,7.7289,7.7289,7.7289,7.7289,7.7142,7.646,7.6166,7.5946,7.5234,7.4977,7.4903,7.4903,7.4903,7.4903,7.4903,7.4903,7.4683,7.4001,7.3193,7.2422,7.16,7.0807,7.022,7.011,6.9522,6.9009,6.8898,6.7577,6.6659,6.6659,6.5314,6.4714,6.5398,6.404,6.3453,6.4213,6.3527,6.3466,6.4237,6.4237,6.4604,6.5288,6.5288,6.5288,6.5288,6.5288,6.4934,6.4286,6.5081,6.5081,9.0291,9.2286,9.4187,9.3876,9.3478,9.2278,8.8795,8.4278,7.9155,7.3142,6.9596,6.7247,6.6316,6.9743,7.4661,8.0608,8.5049,8.9491,9.4391,9.6245,9.7199,0.0,9.9328,10.0283,9.9916,9.9769,0.0,0.0,10.0099,9.8998,9.7953,9.775,9.7456,9.6906,9.5988,9.507,9.4079,9.3272,9.2501,9.1803,9.1803,9.173,9.1546,9.0776,8.9877,8.8959,8.8133,0.0,8.56,8.56,8.4719,8.3344,8.2663,8.1746,8.0645,7.9286,7.8626,7.8259,7.7546,7.7289,7.7289,7.7289,7.7289,7.7289,7.7289,7.7289,7.7289,7.7142,7.6592,7.6056,7.5946,7.538,7.4903,7.4903,7.4903,7.4903,7.4903,7.4903,7.4867,7.472,7.4037,7.323,7.2422,7.16,7.0866,7.0183,6.9963,6.9633,6.9009,6.8091,6.748,6.748,6.6659,6.6145,6.6292,6.5411,6.4921,6.5068,6.4958,6.4921,6.5081,6.5081,6.5141,6.5288,6.5288,6.5288,6.5288,6.5288,6.5215,6.5105,6.5925,6.6219,9.015,9.1136,9.2434,9.3366,9.2195,8.9362,8.3777,7.947,7.4515,6.7173,6.4407,6.3209,6.2829,6.6733,7.1688,7.6937,8.1893,8.7068,9.2758,9.4997,9.6649,9.8337,9.9916,10.0686,10.0319,10.0283,10.0503,10.0796,10.0503,10.0099,9.9788,9.8961,9.7787,9.6135,9.5675,9.4923,9.3675,9.3308,9.2648,9.1803,9.1803,9.1803,9.1767,9.0959,9.0391,8.9987,8.9179,8.7912,8.6444,8.6885,8.5857,8.3985,8.3618,8.27,8.1415,7.98,7.8956,7.8479,7.7582,7.7289,7.7289,7.7289,7.7289,7.7289,7.7289,7.7289,7.7289,7.7289,7.7032,7.6702,7.6702,7.6445,7.6151,7.6151,7.6151,7.6151,7.6151,7.6151,7.6041,7.5616,7.5212,7.4551,7.334,7.2789,7.2275,7.1468,7.0991,7.0587,7.0206,6.9449,6.8618,6.7774,6.699,6.6659,6.71,6.5999,6.5472,6.5888,6.5508,6.5472,6.5925,6.5925,6.6109,6.6549,6.6549,6.6549,6.6549,6.6549,6.6329,6.5925,6.6733,6.688,9.0043,9.0518,9.1264,9.2927,9.1083,8.6929,7.9519,7.5285,7.0711,6.2805,6.0639,6.0297,6.0811,6.4347,6.8692,7.323,7.7855,8.3398,9.0555,9.2831,9.5107,9.8704,9.9952,0.0,10.0796,10.0686,0.0,10.0796,10.0503,10.0503,10.1,9.9475,9.7713,9.5822,9.5418,9.463,9.3382,9.3015,9.2464,9.1803,9.1803,9.1803,9.1767,9.1143,9.0776,9.0537,8.9767,8.8482,8.7051,8.7692,8.6628,8.4609,8.4609,8.3728,8.2223,8.0477,7.9412,7.8699,7.7656,7.7289,7.7289,7.7289,7.7289,7.7289,7.7289,7.7289,7.7289,7.7289,7.7289,7.7289,7.7289,7.7289,7.7289,7.7289,7.7289,7.7289,7.7289,7.7289,7.7105,7.6497,7.624,7.5689,7.4441,7.4074,7.3744,7.312,7.2334,7.1747,7.1564,7.083,6.9816,6.8361,6.7504,6.721,6.7664,6.6549,6.6072,6.6733,6.6145,6.6109,6.6733,6.6769,6.704,6.77,6.77,6.77,6.77,6.77,6.737,6.6769,6.7577,6.7627,9.0537,9.2577,9.4057,9.2809,9.09,8.7625,8.1069,7.4823,6.9155,6.469,6.141,5.9967,6.2169,6.4187,6.7564,7.3766,7.5836,7.9947,8.9381,9.151,9.3878,9.8557,0.0,0.0,10.2412,10.1788,10.1677,10.2412,10.109,9.9989,9.9365,9.7787,9.6832,9.6612,9.518,9.4336,9.4189,9.2684,9.1877,9.1803,9.1803,9.1803,9.1803,9.173,9.1289,9.0537,8.9767,8.8482,0.0,8.7088,8.6114,8.4609,8.4609,8.4058,8.3014,8.0661,7.9743,7.9449,7.7839,7.7289,7.7289,7.7289,7.7289,7.7289,7.7289,7.7289,7.7289,7.7289,7.7289,7.7289,7.7289,7.7289,7.7289,7.7289,7.7289,7.7289,7.7289,7.7289,7.7289,7.7215,7.6592,7.6056,7.5909,7.527,7.4757,7.4683,7.4001,7.323,7.2496,7.1674,7.083,6.9963,6.9155,6.8421,6.7774,6.7554,6.7517,6.759,6.7517,6.7517,6.759,6.759,6.7627,6.77,6.77,6.77,6.77,6.77,6.7664,6.7627,6.8421,6.8752,9.0272,9.2579,9.3979,9.3618,9.0721,8.628,7.9837,7.4074,6.8825,6.4273,6.1508,6.037,6.1814,6.2622,6.4714,6.9743,7.1248,7.4808,8.3581,8.5527,8.8573,9.5401,9.7199,9.8797,0.0,0.0,10.0686,10.0483,9.9475,9.8704,9.8374,9.775,9.6979,9.6025,9.5364,9.4556,9.3602,9.2905,9.2317,9.1803,9.1803,9.1803,9.1803,9.1803,9.1363,9.0592,9.0244,8.8372,0.0,8.7142,8.593,8.3251,8.4205,8.3801,8.2443,8.0514,7.9486,7.8919,7.7693,7.7289,7.7289,7.7289,7.7289,7.7289,7.7289,7.7289,7.7289,7.7289,7.7289,7.7289,7.7289,7.7289,7.7289,7.7289,7.7289,7.7289,7.7289,7.7289,7.7289,7.7289,7.7032,7.6665,7.6166,7.5836,7.5454,7.4977,7.4221,7.356,7.3266,7.2532,7.1711,7.0917,7.011,6.9486,6.9169,6.9132,6.9132,6.9132,6.9132,6.9132,6.9132,6.9132,6.9132,6.9132,6.8678,6.8641,6.9132,6.8178,6.8214,6.9132,6.8972,6.8885,8.8449,9.1623,9.3805,9.391,9.0078,8.4702,7.872,7.323,6.8128,6.371,6.1692,6.0933,6.1484,6.1777,6.3135,6.6746,6.8238,7.1578,7.9213,8.1195,8.4389,9.1326,9.2831,9.4777,9.8521,9.9952,10.0209,9.9162,9.8594,9.8043,9.7566,9.7309,9.6685,9.5528,9.529,9.4483,9.3125,9.2831,9.2391,9.1803,9.1803,9.1693,9.1436,9.1693,9.1216,9.0244,9.0244,8.839,0.0,8.7142,8.604,8.3361,8.4242,8.3911,8.2663,8.0587,7.9449,7.8809,7.7693,7.7472,7.7693,7.7693,7.7693,7.7729,7.7949,7.7693,7.7289,7.7289,7.7289,7.7289,7.7289,7.7289,7.7289,7.7289,7.7289,7.7289,7.7289,7.7289,7.7289,7.7289,7.7289,7.7142,7.6555,7.6445,7.6261,7.5711,7.4918,7.4404,7.4404,7.3487,7.2716,7.2408,7.1651,7.0881,7.0146,7.011,7.011,7.011,7.011,7.011,7.011,7.011,7.011,7.011,6.9522,6.9522,7.011,6.8949,6.8985,7.0073,6.9779,6.9619,8.4624,8.9687,9.4097,9.3308,8.883,8.3361,7.8427,7.2349,6.6783,6.349,6.2144,6.1594,6.1606,6.2254,6.36,6.6109,6.7871,7.1174,7.7708,8.0021,8.2517,8.6574,8.7802,9.0188,9.5088,9.9145,10.0796,9.9218,9.9088,9.8411,9.6795,9.5951,9.5528,9.5492,9.474,9.3932,9.3125,9.2244,9.1803,9.1803,9.1803,9.1363,9.0629,9.1436,9.0922,8.94,8.94,8.8482,0.0,8.6978,8.6518,8.569,8.4903,8.4609,8.4205,8.0991,7.9779,7.9559,7.7876,7.7839,7.8589,7.8589,7.8589,7.8736,7.9522,7.8626,7.7289,7.7289,7.7289,7.7289,7.7289,7.7289,7.7289,7.7289,7.7289,7.7289,7.7289,7.7289,7.7289,7.7289,7.7289,7.7289,7.7289,7.7289,7.7289,7.7289,7.6592,7.6093,7.6093,7.4661,7.4001,7.4793,7.4147,7.2679,7.0293,7.011,7.011,7.011,7.011,7.011,7.011,7.011,7.011,7.011,7.0073,7.0073,7.011,7.0073,7.0073,7.011,7.0903,7.127,7.8346,8.2029,8.4756,8.2794,8.0518,7.7671,7.3377,6.9522,6.6109,6.3343,6.2144,6.1777,6.2328,6.2181,6.3503,6.8201,6.8935,7.094,7.6885,8.0094,8.3508,8.8078,9.3749,9.7897,9.9438,9.9769,9.9659,9.9145,9.808,9.7236,9.6722,9.5932,9.5254,9.4703,9.3896,9.3088,9.2207,9.195,9.1803,9.1803,9.1803,9.1363,9.0629,9.1436,9.0629,8.861,8.9143,8.7858,8.5453,8.6537,8.5877,8.4205,8.4499,8.3948,8.2774,8.1195,8.0277,7.9706,7.9176,7.9176,7.9412,7.9412,7.9412,7.9486,7.9706,7.9029,7.8185,7.8185,7.7766,7.7289,7.7289,7.7289,7.7289,7.7289,7.7289,7.7289,7.7289,7.7289,7.7289,7.7289,7.7289,7.7289,7.7289,7.7289,7.7289,7.7289,7.6644,7.6093,7.6093,7.5175,7.4625,7.4867,7.4683,7.4221,7.345,7.2863,7.2569,7.2569,7.2055,7.1725,7.1725,7.1725,7.1725,7.1725,7.1197,7.1211,7.1725,7.0624,7.0367,7.094,7.1197,7.1307,7.2606,7.6423,7.8846,7.7619,7.5784,7.3487,7.0367,6.7283,6.4567,6.2732,6.2438,6.2585,6.2756,6.3172,6.442,6.7357,6.8935,7.1123,7.494,7.8846,8.2957,8.7509,9.441,9.8797,9.8797,9.9255,9.9292,9.8704,9.7713,9.6906,9.6282,9.5474,9.4666,9.3859,9.3345,9.2684,9.1803,9.1803,9.1803,9.1803,9.1803,9.1363,9.0629,9.1436,9.0482,8.8243,8.9033,8.7932,0.0,8.6574,8.6097,8.4739,8.4646,8.3985,8.292,8.1525,8.0681,8.0204,7.9926,8.0,8.0241,8.0241,8.0477,8.0661,8.0351,7.947,7.8589,7.8589,7.7949,7.7289,7.7289,7.7289,7.7289,7.7289,7.7289,7.7289,7.7289,7.7289,7.7289,7.7289,7.7289,7.7289,7.7289,7.7289,7.7289,7.7289,7.6885,7.6555,7.6555,7.5873,7.5454,7.5784,7.5527,7.5491,7.5784,7.4808,7.4147,7.4147,7.3413,7.2936,7.2936,7.2679,7.2496,7.2496,7.2004,7.2004,7.2496,7.1505,7.1248,7.1747,7.1454,7.1454,0.0,7.2018,7.5139,7.5858,7.3289,7.0206,6.8628,6.5362,0.0,6.1814,6.2928,6.3796,6.3123,6.4848,6.5962,6.4653,6.8238,7.1527,7.2459,7.7084,8.1909,8.593,9.1326,9.4666,9.4483,9.7897,9.9512,9.8026,9.7806,9.7089,9.5565,9.4666,9.3859,9.3125,9.3051,9.2611,9.1803,9.1803,9.1767,9.173,9.1767,9.1363,9.0555,9.14,9.0482,0.0,8.9033,8.8482,8.6978,8.6978,8.6904,8.6684,8.5196,8.4535,8.4168,8.1966,8.1122,8.1012,8.0293,8.0498,8.1085,8.1085,8.1599,8.2039,8.1305,7.9984,7.8772,7.8772,7.8112,7.7399,7.7399,7.7362,7.7289,7.7289,7.7289,7.7289,7.7289,7.7289,7.7289,7.7289,7.7289,7.7289,7.7289,7.7289,7.7289,7.7289,7.7289,7.7289,7.7289,7.6628,7.646,7.7215,7.6628,7.6497,7.7252,7.5894,7.4977,7.4977,7.4221,7.378,7.378,7.3083,7.2679,7.2679,7.2679,7.2679,7.2679,7.2606,7.2606,7.2569,7.1747,7.1784,5.9245,0.0,6.398,6.3563,6.3673,6.3613,0.0,6.1655,6.1251,6.2279,6.2829,6.3417,6.4517,6.5178,6.6059,6.754,6.9229,7.1101,7.312,8.0791,8.7729,9.1803,9.6208,9.8154,9.6318,9.753,9.832,9.7953,9.6759,9.5914,9.5528,9.4153,9.3308,9.3125,9.2464,9.2024,9.1803,9.1803,9.1473,9.0886,9.151,9.1069,8.973,9.1143,9.0482,8.8243,8.9033,8.8482,8.6978,8.6978,8.628,8.5123,8.4756,8.3838,8.2774,8.2794,8.2443,8.1966,8.2406,8.226,8.1929,8.1929,8.2039,8.215,8.1966,8.1232,8.0461,8.0461,7.9396,7.8295,7.8295,7.7803,7.7289,7.7289,7.7289,7.7289,7.7289,7.7289,7.7289,7.7289,7.7289,7.7289,7.7289,7.7289,7.7289,7.7289,7.7289,7.7289,7.7289,7.7142,7.7105,7.7289,7.7142,7.7105,7.7289,7.6371,7.5836,7.5836,7.5065,7.4625,7.4625,7.4426,7.4353,7.4353,7.4353,7.4353,7.4316,7.3707,7.3413,7.3377,7.2606,7.2312,5.5464,5.7728,6.0003,6.0664,6.0958,6.1117,6.1435,6.0346,5.9869,6.1851,6.2254,6.2768,6.4457,6.5338,6.6292,6.7577,6.9706,7.2826,7.7488,8.3618,8.916,9.3272,9.6318,9.775,9.6795,9.7419,9.775,9.7383,9.6208,9.5364,9.496,9.3786,9.2941,9.2537,9.206,9.1803,9.1803,9.1803,9.14,9.0629,9.1436,9.1143,8.9987,9.1216,9.0886,8.9271,8.8592,8.8005,8.7472,8.6371,8.56,8.5123,8.4756,8.4058,8.3324,8.3381,8.3124,8.281,8.3234,8.2884,8.2186,8.2186,8.2186,8.2186,8.2186,8.1893,8.1489,8.1122,8.0094,7.9066,7.8699,7.8259,7.7803,7.7399,7.7289,7.7289,7.7289,7.7289,7.7289,7.7289,7.7289,7.7289,7.7289,7.7289,7.7289,7.7289,7.7289,7.7289,7.7289,7.7289,7.7289,7.7289,7.7289,7.7289,7.7289,7.6885,7.6628,7.6628,7.5894,7.5469,7.5469,7.5087,7.4903,7.4903,7.4903,7.4903,7.4903,7.4074,7.3722,7.3685,7.2863,7.2496,5.4436,5.6921,5.9661,6.1582,6.1031,6.037,6.1765,5.9869,5.8547,6.1092,6.19,6.2671,6.436,6.6182,6.7357,6.71,7.055,7.5784,8.3087,8.6097,8.8923,9.2648,9.474,9.5951,9.6135,9.6979,9.7236,9.6575,9.5658,9.4887,9.4336,9.3418,9.2574,9.1803,9.1803,9.1803,9.1803,9.1803,9.14,9.0629,9.1436,9.1363,9.0629,9.1436,9.1289,9.0317,0.0,0.0,8.7876,8.593,8.5416,8.571,8.5049,8.4719,8.4535,8.3968,8.3601,8.3381,8.3271,8.2774,8.2186,8.2186,8.2186,8.2186,8.2186,8.2186,8.2039,8.1232,8.0498,7.9816,7.8993,7.8699,7.8369,7.7509,7.7289,7.7289,7.7289,7.7289,7.7289,7.7289,7.7289,7.7289,7.7289,7.7289,7.7289,7.7289,7.7289,7.7289,7.7289,7.7289,7.7289,7.7289,7.7289,7.7289,7.7289,7.7289,7.7289,7.7289,7.6665,7.6276,7.6276,7.5637,7.527,7.527,7.527,7.527,7.527,7.4441,7.4001,7.3854,7.3046,7.2606,5.5647,5.7802,5.9123,5.8804,5.8547,5.8437,5.8694,5.785,5.785,6.097,6.3282,6.5228,6.6856,6.9559,7.1138,6.9779,7.3472,7.9124,8.6444,8.894,9.0812,9.2868,9.5731,9.6502,9.3896,9.4997,9.5822,9.5675,9.4299,9.3712,9.4263,9.2831,9.195,9.1803,9.1803,9.1803,9.1803,9.1803,9.14,9.0629,9.1436,9.1363,9.0629,9.1436,9.0996,8.9583,0.0,8.8959,8.7198,8.7509,8.6921,8.5783,8.5654,8.5196,8.4682,8.5233,8.4572,8.3308,8.2627,8.2296,8.2186,8.2186,8.2186,8.2186,8.2186,8.2186,8.2039,8.1232,8.0901,8.0645,7.9816,7.9103,7.8369,7.7509,7.7289,7.7289,7.7289,7.7289,7.7289,7.7289,7.7289,7.7289,7.7289,7.7289,7.7289,7.7289,7.7289,7.7289,7.7289,7.7289,7.7289,7.7289,7.7289,7.7289,7.7289,7.7289,7.7289,7.7289,7.7179,7.7105,7.7105,7.6995,7.6922,7.6922,7.6922,7.6922,7.6922,7.6114,7.5395,7.4683,7.3891,7.3156,5.3812,5.6003,5.8242,5.9612,5.9954,6.0639,6.3282,6.0884,5.949,6.453,6.4701,6.5105,6.8935,7.1211,7.356,7.679,7.9874,8.3361,8.7619,8.883,8.9931,9.1546,9.3418,9.4189,9.3198,9.4153,9.485,9.485,9.3749,9.3272,9.3639,9.2464,9.1803,9.1803,9.1803,9.1803,9.1803,9.1803,9.14,9.0629,9.1436,9.1363,9.0629,9.1436,9.14,9.0629,0.0,8.894,8.8189,8.6811,8.582,8.5159,8.5159,8.4939,8.4646,8.5013,8.4682,8.3875,8.2627,8.2186,8.2186,8.2186,8.2186,8.2186,8.2186,8.2186,8.2039,8.1232,8.1012,8.0718,7.947,7.8883,7.8369,7.7509,7.7289,7.7289,7.7289,7.7289,7.7289,7.7289,7.7289,7.7289,7.7289,7.7289,7.7289,7.7289,7.7289,7.7289,7.7289,7.7289,7.7289,7.7289,7.7289,7.7289,7.7289,7.7289,7.7289,7.7289,7.7289,7.7289,7.7289,7.7289,7.7289,7.7289,7.7289,7.7289,7.7289,7.6497,7.5909,7.5542,7.4735,7.4147,5.2941,5.506,5.7813,6.0823,6.1043,6.1961,6.76,6.4004,6.1398,6.8077,6.7123,6.6463,7.1013,7.2995,7.6056,8.261,8.5343,8.7325,8.9344,8.9638,9.0078,9.1326,9.2024,9.2574,9.3051,9.3675,9.4006,9.4006,9.3272,9.2868,9.3088,9.2281,9.1803,9.1803,9.1803,9.1803,9.1803,9.1803,9.1473,9.0886,9.151,9.1473,9.0922,9.1326,9.1436,9.1143,8.9271,8.861,8.8666,8.6187,8.5049,8.4866,8.4866,8.4866,8.4866,8.4682,8.4499,8.4132,8.27,8.2186,8.2186,8.2186,8.2186,8.2186,8.2186,8.2186,8.2003,8.1012,8.0718,8.0388,7.8956,7.8589,7.8369,7.7509,7.7289,7.7289,7.7289,7.7289,7.7289,7.7289,7.7289,7.7289,7.7289,7.7289,7.7289,7.7289,7.7289,7.7289,7.7289,7.7289,7.7289,7.7289,7.7289,7.7289,7.7289,7.7289,7.7289,7.7289,7.7289,7.7289,7.7289,7.7289,7.7289,7.7289,7.7289,7.7289,7.7289,7.6665,7.6276,7.6093,7.5469,7.5087,5.5636,5.7189,5.851,6.097,5.9355,5.9196,6.7086,6.4444,6.2352,6.9619,7.149,7.2165,7.3303,7.6056,7.9543,8.3838,8.7124,9.0244,9.3418,9.3859,9.3896,9.4006,9.4079,9.3859,9.3161,9.3161,9.3198,9.3198,9.2391,9.2244,9.3051,9.2281,9.1803,9.1803,9.1803,9.1803,9.1803,9.1803,9.1767,9.1693,9.1767,9.1767,9.1693,9.0996,9.028,8.9546,8.94,8.8482,8.7161,8.6904,8.6407,8.571,8.571,8.571,8.56,8.4866,8.4132,8.3344,8.248,8.2186,8.2186,8.2186,8.2186,8.2186,8.2186,8.2186,8.1856,8.033,7.989,7.9706,7.8809,7.8589,7.8369,7.7509,7.7289,7.7289,7.7289,7.7289,7.7289,7.7289,7.7289,7.7289,7.7289,7.7289,7.7289,7.7289,7.7289,7.7289,7.7289,7.7289,7.7289,7.7289,7.7289,7.7289,7.7289,7.7289,7.7289,7.7289,7.7289,7.7289,7.7289,7.7289,7.7289,7.7289,7.7289,7.7289,7.7289,7.7252,7.6812,7.6093,7.6056,7.5616,5.3482,5.5868,5.8694,6.163,6.1435,6.2242,6.8885,6.8348,6.8495,7.5836,7.679,7.668,7.8002,8.0461,8.3324,8.6334,8.9564,9.2134,9.3382,9.3969,9.3896,9.2868,9.2758,9.2611,9.2317,9.2281,9.2281,9.2281,9.1987,9.195,9.2281,9.1987,9.1803,9.1803,9.1803,9.1546,9.1069,9.1069,9.1069,9.1069,9.1546,9.1803,9.1767,9.0959,9.0445,9.0097,8.962,8.8482,8.6941,8.6481,8.549,8.4315,8.4315,8.4609,8.4976,8.4168,8.3638,8.3271,8.248,8.2186,8.2186,8.2186,8.2186,8.2186,8.2186,8.2186,8.1966,8.0865,8.0534,8.0131,7.828,7.8185,7.8369,7.7509,7.7693,7.7949,7.7436,7.7289,7.7289,7.7289,7.7289,7.7289,7.7289,7.7289,7.7289,7.7289,7.7289,7.7289,7.7289,7.7289,7.7289,7.7289,7.7289,7.7289,7.7289,7.7289,7.7289,7.7289,7.7289,7.7289,7.7289,7.7289,7.7289,7.7289,7.7289,7.7289,7.7289,7.7289,7.7142,7.6848,7.6848,7.6665,5.2454,5.4766,5.796,6.0921,6.1838,6.393,7.116,7.2018,7.323,8.0314,8.0681,8.0057,8.1195,8.2957,8.4939,8.7105,9.0408,9.2794,9.3051,9.3565,9.3382,9.195,9.1803,9.1803,9.1803,9.1803,9.1803,9.1803,9.1803,9.1693,9.1436,9.1657,9.1693,9.1436,9.1436,9.1179,9.0629,9.0354,9.0207,9.0207,9.0776,9.1179,9.14,9.0335,8.9858,8.9784,8.8702,8.7655,8.6554,8.549,8.4389,8.3381,8.3381,8.3748,8.4168,8.3601,8.3234,8.2957,8.237,8.2186,8.2186,8.2186,8.2186,8.2186,8.2186,8.2186,8.2039,8.1232,8.1012,8.0571,7.8589,7.8516,7.8809,7.8206,7.8369,7.8442,7.7839,7.7509,7.7289,7.7289,7.7289,7.7289,7.7289,7.7289,7.7289,7.7289,7.7289,7.7289,7.7289,7.7289,7.7289,7.7289,7.7289,7.7289,7.7289,7.7289,7.7289,7.7289,7.7289,7.7289,7.7289,7.7289,7.7289,7.7289,7.7289,7.7289,7.7289,7.7289,7.7289,7.7289,7.7289,7.7289,5.3434,5.4399,5.6209,5.8609,5.9857,6.3246,7.3707,7.4845,7.5579,8.2096,8.281,8.2223,8.2223,8.292,8.3968,8.5527,8.9252,9.2189,9.2978,9.3088,9.2794,9.1913,9.1803,9.1803,9.1803,9.1803,9.1803,9.1803,9.1803,9.1436,9.0629,9.1363,9.1436,9.0629,9.0592,9.0592,9.0592,8.9803,8.94,8.94,8.9363,8.9803,9.0537,8.894,8.8206,8.8096,8.6481,8.58,8.5654,8.4042,8.3381,8.3381,8.3381,8.3381,8.3381,8.3381,8.2884,8.2186,8.2186,8.2186,8.2186,8.2186,8.2186,8.2186,8.2186,8.2186,8.2039,8.1232,8.1012,8.0828,8.0036,7.9816,7.9816,7.9816,7.9176,7.8589,7.8589,7.7913,7.7289,7.7326,7.7326,7.7326,7.7326,7.7326,7.7326,7.7289,7.7289,7.7289,7.7289,7.7289,7.7289,7.7289,7.7289,7.7289,7.7289,7.7289,7.7289,7.7289,7.7289,7.7289,7.7289,7.7289,7.7289,7.7289,7.7289,7.7289,7.7289,7.7289,7.7289,7.7289,7.7289,7.7289,5.4436,5.5647,5.774,5.9563,6.4077,6.9178,7.345,7.5359,7.839,8.606,8.6537,8.5416,8.4829,8.5857,8.6738,8.6664,8.9564,9.1913,9.2134,9.2721,9.2794,9.1913,9.1803,9.1803,9.1803,9.1803,9.1803,9.1803,9.1803,9.1436,9.0629,9.0849,9.0592,8.9767,8.9767,8.9473,8.8904,8.8683,8.8573,8.8573,8.7968,8.8409,8.973,8.8683,8.8206,8.8096,8.6481,8.549,8.4829,8.3214,8.2223,8.1693,8.1693,8.1379,8.0938,8.1489,8.1562,8.1452,8.2003,8.2186,8.2186,8.2186,8.2186,8.2186,8.2186,8.2186,8.215,8.1893,8.1819,8.1782,8.1525,8.1505,8.1195,8.0073,7.9633,7.9302,7.8699,7.7913,7.7472,7.8112,7.8222,7.8222,7.8222,7.8222,7.7986,7.7399,7.7289,7.7289,7.7289,7.7289,7.7289,7.7289,7.7289,7.7289,7.7289,7.7289,7.7289,7.7289,7.7289,7.7289,7.7289,7.7289,7.7289,7.7289,7.7289,7.7289,7.7289,7.7289,7.7289,7.7289,7.7289,7.7289,5.6785,5.785,5.9979,6.4163,6.8054,7.1908,7.613,7.8956,8.2517,8.8996,8.883,8.7435,8.7252,8.7766,8.8169,8.7968,9.0115,9.1803,9.1803,9.2244,9.2281,9.1436,9.1326,9.1216,9.0886,9.0849,9.0849,9.0849,9.0849,9.0519,8.9711,8.995,8.973,8.8959,8.8923,8.8683,8.8206,8.7582,8.7252,8.7252,8.6444,8.6738,8.7986,8.7802,8.7729,8.7619,8.6004,8.4499,8.3104,8.2113,8.1232,8.0534,8.0534,8.0241,7.989,8.0718,8.1012,8.1122,8.1929,8.2186,8.2186,8.2186,8.2186,8.2186,8.2186,8.2186,8.2186,8.2186,8.2186,8.2186,8.2186,8.2186,8.1966,8.0991,8.0257,7.9743,7.958,7.8353,7.7656,7.8846,7.8809,7.8699,7.9029,7.8809,7.8405,7.7876,7.7509,7.7289,7.7289,7.7289,7.7289,7.7289,7.7289,7.7289,7.7289,7.7289,7.7289,7.7289,7.7289,7.7289,7.7289,7.7289,7.7289,7.7289,7.7289,7.7289,7.7289,7.7289,7.7289,7.7289,7.7289,7.7289,6.0003,6.075,6.2695,7.0477,7.1725,7.3193,8.1158,8.4609,8.7178,9.0922,8.9931,8.8647,8.9363,8.8886,8.8647,8.94,9.0739,9.1693,9.1693,9.173,9.1473,9.0592,9.0537,9.028,8.9473,8.94,8.94,8.94,8.94,8.9033,8.8243,8.8886,8.8886,8.8023,8.7986,8.7949,8.7876,8.6407,8.569,8.5673,8.4939,8.4976,8.5727,8.6518,8.6831,8.6684,8.5159,8.3177,8.1012,8.1012,8.0461,7.9706,7.9706,7.9706,7.9779,8.0571,8.0938,8.1122,8.1929,8.2186,8.2186,8.2186,8.2186,8.2186,8.2186,8.2186,8.2186,8.2186,8.2186,8.2186,8.2186,8.2186,8.2186,8.2113,8.0918,8.0,8.0718,7.905,7.7913,7.9596,7.9323,7.9029,7.9779,7.9286,7.8772,7.8626,7.7913,7.7436,7.7436,7.7436,7.7436,7.7436,7.7436,7.7399,7.7326,7.7289,7.7289,7.7289,7.7289,7.7289,7.7289,7.7289,7.7289,7.7289,7.7289,7.7289,7.7289,7.7289,7.7289,7.7289,7.7289,7.7289,6.1949,6.3233,6.5398,7.0316,7.5139,8.0461,8.7252,8.8702,8.9033,9.0555,9.0445,9.0152,9.0317,9.0207,9.0152,9.0317,9.0629,9.0849,9.0849,9.14,9.1253,8.984,9.0207,9.028,8.9473,8.94,8.94,8.94,8.94,8.9033,8.8243,8.8353,8.7802,8.6371,8.6314,8.6004,8.538,8.5013,8.4866,8.4866,8.4682,8.4682,8.4903,8.5673,8.571,8.5049,8.4078,8.2647,8.1012,8.1012,8.0167,7.8846,7.8846,7.8846,7.8956,7.9779,8.0461,8.1122,8.1929,8.2186,8.2186,8.2186,8.2186,8.2186,8.2186,8.2186,8.2186,8.2186,8.2186,8.2186,8.2186,8.2186,8.2039,8.1415,8.0498,7.9853,8.0036,7.914,7.8809,8.0424,8.0608,8.0534,8.0718,8.0608,8.0057,7.8772,7.8442,7.8332,7.8332,7.8332,7.8332,7.8332,7.8332,7.8023,7.7362,7.7289,7.7289,7.7289,7.7289,7.7289,7.7289,7.7289,7.7289,7.7289,7.7289,7.7289,7.7289,7.7289,7.7289,7.7289,7.7289,7.7289,6.2768,6.5485,6.9229,7.5968,8.1656,8.6371,8.9363,8.9987,9.0097,9.0519,9.0592,9.0592,9.0592,9.028,9.0024,9.0024,9.0024,9.0024,9.0024,9.0391,9.006,8.8445,8.8629,8.8409,8.7198,8.7472,8.7545,8.7124,8.7822,8.7912,8.7105,8.7031,8.6664,8.5837,8.5049,8.4462,8.4022,8.3654,8.3434,8.3434,8.3434,8.3654,8.4042,8.4866,8.5013,8.4572,8.3748,8.25,8.0975,8.0571,7.969,7.8552,7.8148,7.8222,7.8699,7.9522,8.0314,8.1122,8.1929,8.2186,8.215,8.1746,8.1636,8.1562,8.1158,8.1064,8.1064,8.1064,8.1064,8.1122,8.1525,8.1636,8.1525,8.1122,8.0388,7.9926,8.0277,7.9433,7.9176,8.1195,8.1269,8.1122,8.1525,8.1269,8.0461,7.8846,7.8919,7.9029,7.8662,7.8919,7.9045,7.8626,7.8589,7.8259,7.7362,7.7289,7.7289,7.7289,7.7289,7.7289,7.7289,7.7289,7.7289,7.7289,7.7289,7.7289,7.7289,7.7289,7.7289,7.7289,7.7289,7.7289,6.3038,6.765,7.3487,8.237,8.7215,8.9748,8.962,8.9913,9.0225,9.0354,9.0391,9.0317,9.0041,8.9436,8.8959,8.8812,8.8776,8.8776,8.8776,8.8886,8.8372,8.6757,8.6721,8.6224,8.4756,8.5196,8.5306,8.4646,8.582,8.6297,8.5637,8.56,8.547,8.5213,8.3911,8.3051,8.2757,8.226,8.2003,8.2003,8.2003,8.2406,8.3197,8.3581,8.3985,8.4352,8.3528,8.2296,8.0755,8.0073,7.9229,7.8295,7.7582,7.7913,7.8883,7.9559,8.0388,8.1305,8.1966,8.2113,8.1893,8.1232,8.0901,8.0681,8.0,7.9816,7.9816,7.9816,7.989,8.0147,8.0645,8.1012,8.1158,8.0865,8.0277,8.0036,8.0828,7.9837,7.947,8.1746,8.1562,8.1269,8.2039,8.1525,8.0571,7.9213,7.9596,7.9764,7.9103,7.958,7.9743,7.9103,7.8883,7.8479,7.7582,7.7509,7.7472,7.7326,7.7436,7.7472,7.7326,7.7289,7.7289,7.7289,7.7289,7.7289,7.7289,7.7289,7.7289,7.7289,7.7289,7.7365,6.3172,7.011,7.7656,8.3214,8.5527,8.7142,8.9821,8.9454,8.872,8.94,8.9546,8.9143,8.7748,8.7381,8.7088,8.6371,8.6261,8.6261,8.6261,8.6885,8.6721,8.5123,8.5527,8.56,8.4682,8.4682,8.4719,8.4609,8.4792,8.4866,8.4756,8.4756,8.4132,8.27,8.248,8.1672,8.0293,8.0865,8.1158,8.1158,8.1158,8.1599,8.2333,8.1028,8.1562,8.3528,8.27,8.1468,7.9963,7.9853,7.8883,7.7472,7.7362,7.8243,7.9669,7.9779,8.0771,8.2039,8.215,8.1746,8.1158,8.1048,8.0534,7.9926,7.9816,7.9816,7.9816,7.9816,8.0277,8.0718,8.011,8.0991,8.1672,8.0293,7.989,8.0036,8.0828,8.0277,8.0147,8.1856,8.1562,8.1269,8.2039,8.1525,8.0938,8.0718,8.0791,8.0791,8.0681,8.0791,8.0791,8.0681,8.0057,7.9302,7.8516,7.8442,7.8112,7.7362,7.7986,7.8112,7.7326,7.7289,7.7289,7.7289,7.7289,7.7289,7.7289,7.7289,7.7289,7.7289,7.7289,7.7629,6.6806,7.1321,7.5858,8.3931,8.5196,8.5306,8.8536,8.8023,8.6958,8.7325,8.7014,8.6757,8.6941,8.6261,8.5563,8.5196,8.4352,8.3948,8.4389,8.4739,8.4555,8.3398,8.3985,8.3948,8.27,8.3398,8.3528,8.2663,8.3838,8.4389,8.3948,8.3508,8.292,8.2223,8.0901,7.9837,7.914,7.947,7.9874,8.0314,8.0314,8.0498,8.0844,8.011,8.0608,8.1986,8.1195,8.044,7.9779,7.9302,7.8699,7.7986,7.7509,7.8332,7.9816,7.9816,8.0807,8.2186,8.2186,8.1672,8.0938,8.0461,7.9764,7.9029,7.8552,7.8405,7.8516,7.8993,7.9029,7.9161,8.0204,8.0645,8.0918,8.1101,8.0791,8.0681,8.1489,8.0697,8.0293,8.1909,8.1562,8.1269,8.2039,8.1893,8.1525,8.1085,8.1379,8.1525,8.1048,8.1379,8.1342,8.0424,8.0424,7.9764,7.8023,7.8332,7.8442,7.8075,7.7913,7.7913,7.8038,7.7546,7.7289,7.7289,7.7289,7.7289,7.7289,7.7289,7.7289,7.7289,7.768,7.803,6.7357,7.0036,7.2518,8.1415,8.3067,8.3214,8.604,8.5894,8.5233,8.5453,8.5013,8.4829,8.5637,8.4792,8.3875,8.3434,8.237,8.1782,8.2406,8.248,8.226,8.1636,8.2113,8.2003,8.0828,8.1782,8.2003,8.0791,8.237,8.3104,8.2517,8.1929,8.1489,8.1269,7.9543,7.8479,7.8259,7.8479,7.8993,7.9816,7.9596,7.9522,7.9486,7.925,7.9507,8.0057,7.9874,7.9669,7.9449,7.8846,7.8479,7.8222,7.7546,7.8206,7.9522,7.9522,8.0498,8.1893,8.1893,8.1379,8.0608,8.0,7.9103,7.8148,7.7509,7.7289,7.7436,7.8112,7.8112,7.8316,7.9947,8.0241,8.0404,8.1599,8.1269,8.0901,8.1709,8.1085,8.0771,8.1966,8.1562,8.1269,8.2039,8.2039,8.1746,8.1379,8.1819,8.1966,8.1379,8.1819,8.1636,8.0257,8.0645,8.0167,7.8096,7.8736,7.9029,7.8626,7.817,7.8023,7.8259,7.7656,7.7289,7.7289,7.7509,7.7509,7.7289,7.7289,7.7396,7.757,7.8086,7.8458,6.119,6.4984,6.8949,7.3303,7.7209,8.044,8.2113,8.303,8.3748,8.4499,8.4646,8.4168,8.27,8.237,8.1819,8.0293,8.0,7.9926,8.0,8.0,7.9963,7.9926,7.9963,7.9963,7.989,7.9926,7.9963,7.989,8.0,8.0036,8.0,7.9963,7.9596,7.8809,7.8662,7.8222,7.7399,7.8185,7.8993,7.9779,7.9045,7.8662,7.8626,7.7803,7.7436,7.7582,7.914,7.9376,7.8662,7.8626,7.8112,7.7362,7.7326,7.7839,7.8662,7.8662,7.969,8.1048,8.1048,8.0534,7.9853,7.9816,7.8699,7.7362,7.7326,7.7289,7.7326,7.7362,7.8479,7.9522,7.8883,7.9837,8.0975,8.1048,8.0461,8.0073,8.0901,8.1599,8.2076,8.2186,8.1562,8.1269,8.2039,8.1562,8.1305,8.2039,8.215,8.2186,8.215,8.215,8.1893,8.1048,8.0975,8.0645,7.9743,8.0424,8.0241,7.8699,7.925,7.8993,7.7436,7.7326,7.7289,7.7289,7.8112,7.8148,7.7289,7.7289,7.7644,7.8255,7.8282,7.8927,5.9832,6.1887,6.4494,7.0624,7.2496,7.3634,7.679,7.8537,7.9417,7.9176,8.0424,8.1012,7.9344,8.0351,8.1085,8.0,7.8883,7.8405,7.8956,7.9045,7.9045,7.9045,7.9486,7.9596,7.9066,7.9522,7.9596,7.9066,7.8516,7.8662,7.9743,7.8311,7.7781,7.8589,7.8075,7.7619,7.7289,7.7619,7.7913,7.817,7.7913,7.7766,7.7766,7.7436,7.7289,7.7326,7.7913,7.8023,7.7766,7.7766,7.7582,7.7289,7.7289,7.7839,7.8589,7.8589,7.9286,8.0277,8.0828,8.0131,7.9103,7.9633,7.8662,7.7289,7.7289,7.7289,7.7509,7.8589,7.8552,7.8626,8.0424,8.0571,8.0604,8.2066,8.1864,8.1539,8.2251,8.1886,8.1562,8.2113,8.1562,8.1269,8.2039,8.1966,8.1856,8.215,8.2186,8.2186,8.2186,8.1746,8.1342,8.1048,8.0534,8.011,7.9816,8.0073,8.0204,8.0131,7.991,7.9522,7.8919,7.8883,7.8662,7.8148,7.9328,7.9084,7.7289,7.8803,7.9377,7.9108,8.0485,8.1376,5.7593,5.8988,6.097,6.6623,6.7857,6.8738,7.2775,7.516,7.6481,7.6481,7.8259,7.9376,7.7986,7.9087,7.991,7.9103,7.8023,7.7509,7.8075,7.8185,7.8185,7.8185,7.8626,7.8736,7.8222,7.8662,7.8736,7.8222,7.7619,7.7803,7.8883,7.7414,7.7011,7.8148,7.7582,7.7289,7.7289,7.7289,7.7289,7.7289,7.7289,7.7289,7.7289,7.7289,7.7289,7.7289,7.7289,7.7289,7.7289,7.7289,7.7289,7.7289,7.7289,7.7656,7.8185,7.8185,7.8699,7.9486,8.0021,7.9507,7.8699,7.9213,7.8442,7.7289,7.7289,7.7289,7.7546,7.8662,7.8552,7.8662,8.0828,8.1161,8.1257,8.2493,8.2853,8.2883,8.2883,8.207,8.1606,8.2386,8.2101,8.1917,8.2433,8.2544,8.245,8.2235,8.2186,8.2186,8.2186,8.1489,8.0901,8.0645,8.011,7.9706,7.9412,7.989,8.0314,8.0571,8.0351,8.0199,8.0146,8.0124,7.9986,7.9634,8.0807,8.0546,7.8781,8.0349,8.0929,8.0605,8.2027,8.2798,0.0,0.0,0.0,6.086,6.3282,6.6132,7.0096,7.2812,7.4977,7.6702,7.8369,7.9302,7.8662,7.8552,7.8295,7.7436,7.7289,7.7289,7.7289,7.7289,7.7289,7.7289,7.7289,7.7289,7.7289,7.7289,7.7289,7.7289,7.7252,7.7252,7.7289,7.7289,7.7289,7.7289,7.7289,7.7289,7.7289,7.7289,7.7289,7.7289,7.7289,7.7289,7.7289,7.7289,7.7289,7.7289,7.7289,7.7289,7.7289,7.7289,7.7289,7.7289,7.7289,7.7289,7.7289,7.7289,7.7839,7.8552,7.8589,7.8589,7.8552,7.8589,7.7986,7.7289,7.7289,7.7289,7.7326,7.7326,7.8516,7.9779,7.9848,8.1518,8.3017,8.2254,8.317,8.3837,8.2554,8.2284,8.2434,8.3097,8.3218,8.3232,8.3232,8.3218,8.298,8.2327,8.2203,8.2186,8.2186,8.1489,8.0681,7.9926,7.9779,7.9449,7.873,8.0052,8.0656,7.9916,8.0614,8.101,8.087,8.0898,8.116,8.1724,8.2529,8.2579,8.1797,8.1797,8.2107,8.2748,8.2758,8.3102,5.3287,0.0,0.0,0.0,0.0,0.0,6.2915,6.4383,6.6402,7.0389,7.2055,7.3597,7.6313,7.7252,7.7582,7.7362,7.7289,7.7289,7.7289,7.7289,7.7289,7.7289,7.7289,7.7289,7.7289,7.7289,7.7289,7.7289,7.6225,7.6078,7.7252,7.7289,7.7289,7.7289,7.7289,7.7289,7.7289,7.7289,7.7289,7.7289,7.7289,7.7289,7.7289,7.7289,7.7289,7.7289,7.7289,7.7289,7.7289,7.7289,7.7289,7.7289,7.7289,7.7289,7.7289,7.7289,7.7436,7.7766,7.8369,7.8185,7.7766,7.8405,7.7986,7.7289,7.7289,7.7289,7.7436,7.8075,7.8589,7.9332,8.0955,8.2301,8.3396,8.4093,8.4207,8.4216,8.4275,8.3966,8.3543,8.326,8.3597,8.3915,8.3915,8.3529,8.3132,8.295,8.2513,8.2186,8.2186,8.0991,8.0277,8.0645,7.905,7.8563,8.0013,7.9982,8.0535,8.1962,8.2251,8.2343,8.2298,8.2912,8.3038,8.258,8.3843,8.4394,8.4176,8.4176,8.3957,8.3607,8.4649,8.4938,0.0,0.0,0.0,0.0,0.0,0.0,6.0309,6.1777,6.3833,6.8054,7.033,7.2312,7.4661,7.5469,7.5894,7.6225,7.6298,7.6518,7.7215,7.7289,7.7289,7.7289,7.7289,7.7289,7.7289,7.7289,7.7289,7.7289,7.6445,7.6298,7.7252,7.7289,7.7289,7.7289,7.7289,7.7289,7.7289,7.7289,7.7289,7.7289,7.7289,7.7289,7.7289,7.7289,7.7289,7.7289,7.7289,7.7289,7.7289,7.7289,7.7289,7.7289,7.7289,7.7289,7.7289,7.7289,7.7289,7.7362,7.7876,7.7729,7.7399,7.7876,7.7693,7.7289,7.7289,7.7289,7.7399,7.7913,7.8762,8.0037,8.2325,8.3436,8.4166,8.4925,8.5048,8.4953,8.4762,8.4877,8.4811,8.4104,8.4325,8.4583,8.4583,8.4239,8.3824,8.3289,8.3126,8.2921,8.2662,8.1422,8.0771,8.124,7.9382,7.8617,7.9962,8.0301,8.0968,8.2331,8.3072,8.3545,8.3824,8.4317,8.4479,8.4234,8.5072,8.5523,8.5523,8.5523,8.5264,8.4833,8.5706,8.5863,0.0,0.0,0.0,0.0,0.0,0.0,6.0137,6.1936,6.3882,6.7357,7.0073,7.2055,7.2877,7.312,7.334,7.3876,7.4353,7.5197,7.6812,7.7179,7.7252,7.7069,7.7179,7.7289,7.7289,7.7289,7.7289,7.7289,7.7289,7.7289,7.7289,7.7289,7.7289,7.7289,7.7289,7.7289,7.7289,7.7289,7.7289,7.7289,7.7289,7.7289,7.7289,7.7289,7.7289,7.7289,7.7289,7.7289,7.7289,7.7289,7.7289,7.7289,7.7289,7.7289,7.7289,7.7289,7.7289,7.7289,7.7289,7.7289,7.7289,7.7289,7.7289,7.7289,7.7289,7.7289,7.7341,7.7632,7.9179,8.136,8.3702,8.4696,8.5131,8.5192,8.5673,8.5793,8.4639,8.529,8.5937,8.534,8.5202,8.5202,8.5202,8.5151,8.4691,8.3447,8.3813,8.3941,8.3252,8.2296,8.1688,8.1688,8.0179,7.9233,7.9301,8.0737,8.1743,8.1888,8.3413,8.4575,8.5182,8.5202,8.5504,8.6085,8.6094,8.6094,8.6094,8.6094,8.6094,8.6094,8.6094,8.6094,0.0,0.0,0.0,0.0,0.0,0.0,5.676,5.6014,5.6774,6.1961,6.1447,6.1887,6.7811,6.9412,6.9449,6.8311,7.0881,7.3509,7.5124,7.6481,7.6812,7.5527,7.6518,7.7289,7.7289,7.7289,7.7289,7.7289,7.7289,7.7289,7.7289,7.7289,7.7289,7.7289,7.7289,7.7289,7.7289,7.7289,7.7289,7.7289,7.7289,7.7289,7.7289,7.7289,7.7289,7.7289,7.7289,7.7289,7.7289,7.7289,7.7289,7.7289,7.7289,7.7289,7.7289,7.7289,7.7289,7.7289,7.7289,7.7289,7.7289,7.7289,7.7289,7.7289,7.7289,7.7289,7.7684,7.9597,8.0461,8.1431,8.4195,8.4999,8.5222,8.5793,8.5988,8.6043,8.5784,8.5928,8.6069,8.5937,8.5881,8.5881,8.5881,8.5475,8.4809,8.391,8.4015,8.3915,8.3088,8.2207,8.1688,8.1688,8.0179,7.9403,7.9888,8.088,8.1957,8.3161,8.4176,8.5093,8.5872,8.5881,8.5962,8.6085,8.6094,8.6094,8.6094,8.6094,8.6094,8.6094,8.6094,8.6094,0.0,0.0,0.0,5.5401,0.0,0.0,0.0,5.4987,5.6003,5.9648,5.9758,6.0456,6.4494,6.4934,6.5081,6.6292,6.7871,6.9486,7.1064,7.4059,7.6114,7.6114,7.6812,7.7289,7.7289,7.7289,7.7289,7.7289,7.7289,7.7289,7.7289,7.7289,7.7289,7.7289,7.6922,7.6885,7.7289,7.6885,7.6885,7.7289,7.7289,7.7289,7.7289,7.7289,7.7289,7.7289,7.7289,7.7289,7.7289,7.7289,7.7289,7.7289,7.7289,7.7289,7.7289,7.7289,7.7289,7.7289,7.7289,7.7289,7.7289,7.7289,7.7289,7.7365,7.7695,7.8007,7.8562,8.0151,8.1144,8.2156,8.4022,8.5044,8.5682,8.6035,8.6094,8.6094,8.6094,8.6094,8.6094,8.6094,8.6094,8.6094,8.6094,8.5474,8.4882,8.4551,8.4167,8.3798,8.3421,8.2572,8.1983,8.1983,8.1231,8.0688,8.062,8.2141,8.3281,8.3585,8.4786,8.567,8.6094,8.6094,8.6094,8.6094,8.6094,8.6094,8.6094,8.6094,8.6094,8.6094,8.6094,8.6094,0.0,0.0,0.0,0.0,0.0,5.517,0.0,0.0,0.0,5.7985,5.9061,6.0089,6.1215,6.0493,6.0639,6.3466,6.442,6.5141,6.6159,7.033,7.3766,7.5087,7.5784,7.6078,7.5931,7.5894,7.6298,7.7252,7.6885,7.6812,7.7289,7.7289,7.7289,7.7289,7.6665,7.6628,7.7289,7.6665,7.6665,7.7289,7.7289,7.7289,7.7289,7.7289,7.7289,7.7289,7.7289,7.7289,7.7289,7.7289,7.7289,7.7289,7.7289,7.7289,7.7289,7.7289,7.7289,7.7289,7.7289,7.7289,7.7304,7.7435,7.7585,7.776,7.8299,7.8829,7.9372,8.0344,8.1501,8.2691,8.3801,8.4972,8.5901,8.6055,8.6094,8.6094,8.6094,8.6094,8.6094,8.6094,8.6094,8.6094,8.6094,8.5431,8.4891,8.4834,8.4125,8.3585,8.3611,8.283,8.2362,8.2516,8.2401,8.2054,8.14,8.3516,8.4516,8.3678,8.517,8.6094,8.6094,8.6094,8.6094,8.6094,8.6094,8.6094,8.6094,8.6094,8.6094,8.6094,8.6094,8.6094,0.0,0.0,0.0,0.0,5.7152,0.0,0.0,0.0,5.3875,5.4766,0.0,5.3786,5.6025,0.0,0.0,5.4976,5.9416,6.2646,6.141,6.4824,6.7504,6.7724,7.0243,7.1711,7.0991,7.0917,7.2679,7.6995,7.5322,7.5028,7.7179,7.7289,7.7289,7.7289,7.7215,7.7215,7.7289,7.7215,7.7215,7.7289,7.7289,7.7289,7.7289,7.7289,7.7289,7.7289,7.7289,7.7289,7.7289,7.7289,7.7289,7.7289,7.7289,7.7289,7.7289,7.7289,7.7289,7.7289,7.7289,7.7289,7.7411,7.8002,7.8538,7.8998,7.9069,7.9152,7.9513,8.0895,8.142,8.2034,8.4225,8.4898,8.5209,8.594,8.6094,8.6094,8.6094,8.6094,8.6094,8.6094,8.6094,8.6094,8.6094,8.5431,8.4654,8.3874,8.3684,8.3316,8.2567,8.2369,8.2593,8.337,8.2747,8.2247,8.217,8.3862,8.4516,8.3678,8.517,8.6094,8.6094,8.6094,8.6094,8.6094,8.6094,8.6094,8.6094,8.6094,8.6094,8.6094,8.6094,8.6094,0.0,0.0,0.0,0.0,0.0,0.0,5.4913,0.0,5.2747,0.0,0.0,0.0,0.0,0.0,0.0,0.0,5.6455,5.785,5.7629,6.0713,6.4016,6.6856,6.7577,6.8224,6.9302,6.9412,7.0807,7.4243,7.3142,7.2958,7.4426,7.5821,7.6592,7.6592,7.6592,7.6812,7.7289,7.6848,7.6848,7.7289,7.7289,7.7289,7.7289,7.7289,7.7289,7.7289,7.7289,7.7289,7.7289,7.7289,7.7525,7.7875,7.7875,7.7622,7.7335,7.7739,7.7875,7.7932,7.8299,7.8394,7.8447,7.8741,7.9233,7.9706,7.9706,8.0007,8.0448,8.103,8.1551,8.2131,8.3121,8.4132,8.497,8.5316,8.5747,8.6247,8.6748,8.6863,8.7017,8.7517,8.7594,8.744,8.694,8.5786,8.4931,8.5055,8.4217,8.3486,8.3101,8.2593,8.2247,8.217,8.267,8.287,8.2324,8.4324,8.5247,8.4401,8.544,8.6094,8.6094,8.6094,8.6324,8.6824,8.6863,8.7094,8.7594,8.7094,8.6594,8.6094,8.6094,8.6094,6.0774,0.0,0.0,0.0,0.0,0.0,0.0,0.0,0.0,0.0,0.0,0.0,0.0,0.0,0.0,0.0,0.0,5.4704,5.463,5.7005,6.0162,6.3919,6.4347,6.5338,6.7981,6.743,6.8201,7.1284,7.0353,7.0389,7.2078,7.4258,7.5542,7.5763,7.5983,7.6387,7.6959,7.6592,7.6702,7.7289,7.7289,7.7289,7.7289,7.7289,7.7289,7.7289,7.7289,7.7289,7.7304,7.7495,7.7846,7.8322,7.8484,7.8245,7.7866,7.8365,7.8562,7.8589,7.9046,7.9313,7.9447,7.9447,7.9868,8.0361,8.0361,8.0724,8.1093,8.1093,8.1516,8.2093,8.2554,8.3593,8.467,8.5132,8.5863,8.6632,8.7248,8.7594,8.7948,8.8564,8.8526,8.8141,8.7517,8.6209,8.5277,8.5401,8.4362,8.3524,8.3255,8.2909,8.2439,8.1862,8.287,8.3255,8.2362,8.4209,8.5286,8.4931,8.5662,8.6094,8.6094,8.6094,8.6517,8.7363,8.7401,8.7825,8.8718,8.7825,8.694,8.6094,8.5863,8.5632,0.0,0.0,0.0,5.8572,0.0,0.0,0.0,0.0,5.5034,0.0,0.0,0.0,0.0,0.0,0.0,0.0,0.0,0.0,0.0,5.3555,5.495,5.5879,5.9366,6.3001,6.6256,6.3686,6.3833,6.8628,6.683,6.7197,7.1123,7.2899,7.4147,7.4903,7.5689,7.613,7.613,7.6885,7.7289,7.7289,7.7289,7.7289,7.7289,7.7289,7.7289,7.7289,7.7289,7.7289,7.735,7.8002,7.8282,7.8376,7.8926,7.9163,7.914,7.9163,7.9175,7.9175,7.9198,7.9578,8.0057,8.0057,8.0508,8.1069,8.1069,8.1085,8.1093,8.1093,8.1131,8.1516,8.3139,8.3601,8.4063,8.567,8.6748,8.7363,8.7401,8.8064,8.8679,8.8679,8.8017,8.744,8.7401,8.6671,8.5517,8.3909,8.364,8.3293,8.2439,8.3062,8.3563,8.3524,8.3563,8.3255,8.2362,8.3139,8.4016,8.4854,8.5662,8.6094,8.6094,8.6094,8.6517,8.7363,8.7401,8.7825,8.8718,8.7825,8.694,8.6094,8.5277,8.4478,0.0,0.0,6.7393,6.2768,0.0,0.0,0.0,0.0,0.0,0.0,0.0,0.0,0.0,0.0,0.0,0.0,0.0,0.0,0.0,5.0472,5.1867,5.3775,5.6161,0.0,5.9905,5.9575,6.0566,6.3833,6.2842,6.3123,6.5545,6.9265,7.1688,7.2481,7.4845,7.635,7.6885,7.7179,7.7289,7.7289,7.7289,7.7289,7.7289,7.7289,7.7289,7.7289,7.7289,7.7289,7.735,7.803,7.8549,7.8938,7.9556,8.0076,8.0409,7.9949,7.9816,7.9868,8.0296,8.0591,8.0758,8.0758,8.0934,8.1093,8.1093,8.1093,8.1093,8.1093,8.1093,8.1362,8.2439,8.3178,8.3909,8.5016,8.6363,8.7555,8.8141,8.8902,8.9671,9.0248,8.9633,8.8902,8.8363,8.7555,8.6555,8.544,8.5247,8.4978,8.4132,8.4286,8.4247,8.3678,8.4132,8.4093,8.3216,8.3978,8.4593,8.4893,8.6209,8.6978,8.6978,8.7517,8.8209,8.9047,8.9047,8.921,8.9479,8.8671,8.7517,8.6055,8.467,8.3862,6.8348,6.9155,0.0,6.5411,6.3539,0.0,5.8389,0.0,0.0,0.0,0.0,0.0,0.0,0.0,0.0,0.0,0.0,0.0,0.0,4.8746,4.9774,5.1683,5.4116,0.0,0.0,5.7005,5.7886,5.9758,5.9428,5.993,6.1838,6.6586,6.9633,7.0426,7.3854,7.5931,7.6445,7.7032,7.7289,7.7289,7.7289,7.7289,7.7289,7.7289,7.7289,7.7304,7.7555,7.7636,7.7724,7.8576,7.9163,7.9578,8.0192,8.0724,8.1061,8.0617,8.0463,8.0508,8.0959,8.1093,8.1093,8.1093,8.1093,8.1093,8.1093,8.1093,8.1208,8.1823,8.1554,8.1477,8.3208,8.364,8.3986,8.544,8.6863,8.8094,8.894,8.9517,9.0163,9.1018,9.0009,8.894,8.8756,8.7709,8.6632,8.5786,8.594,8.5824,8.5008,8.5162,8.5016,8.4132,8.4555,8.4439,8.3255,8.4209,8.4893,8.4893,8.6478,8.7555,8.7863,8.841,8.9363,9.0778,9.0201,9.0355,9.1248,8.9517,8.794,8.6517,8.4824,8.3909]}]]